[[{"header":{"parameterUnit":"m.s-1","parameterCategory":1,"la1":30.6,"la2":28.766,"lo1":-90.7593,"lo2":-88.6598,"dy":0.0162,"dx":0.0183,"nx":116,"ny":114,"refTime":"2023-09-26T12:00:00:Z","depth":0,"parameterNumber":2,"parameterNumberName":"U-component_of_WINDS"},"data":[0.0,0.0,0.0,0.0,0.0,0.0,0.0,0.0,0.0,0.0,0.0,0.0,0.0,0.0,0.0,0.0,0.0,0.0,0.0,0.0,0.0,0.0,0.0,0.0,0.0,0.0,0.0,0.0,0.0,0.0,0.0,0.0,0.0,0.0,0.0,0.0,0.0,0.0,0.0,0.0,0.0,0.0,0.0,0.0,0.0,0.0,0.0,0.0,0.0,0.0,0.0,0.0,0.0,0.0,0.0,0.0,0.0,0.0,0.0,0.0,0.0,0.0,0.0,0.0,0.0,0.0,0.0,0.0,0.0,0.0,0.0,0.0,0.0,0.0,0.0,0.0,0.0,0.0,0.0,0.0,0.0,0.0,0.0,0.0,0.0,0.0,0.0,0.0,0.0,0.0,0.0,0.0,0.0,0.0,0.0,0.0,0.0,0.0,0.0,0.0,0.0,0.0,0.0,0.0,0.0,0.0,0.0,0.0,0.0,0.0,0.0,0.0,0.0,0.0,0.0,0.0,0.0,0.0,0.0,0.0,0.0,0.0,0.0,0.0,0.0,0.0,0.0,0.0,0.0,0.0,0.0,0.0,0.0,0.0,0.0,0.0,0.0,0.0,0.0,0.0,0.0,0.0,0.0,0.0,0.0,0.0,0.0,0.0,0.0,0.0,0.0,0.0,0.0,0.0,0.0,0.0,0.0,0.0,0.0,0.0,0.0,0.0,0.0,0.0,0.0,0.0,0.0,0.0,0.0,0.0,0.0,0.0,0.0,0.0,0.0,0.0,0.0,0.0,0.0,0.0,0.0,0.0,0.0,0.0,0.0,0.0,0.0,0.0,0.0,0.0,0.0,0.0,0.0,0.0,0.0,0.0,0.0,0.0,0.0,0.0,0.0,0.0,0.0,0.0,0.0,0.0,0.0,0.0,0.0,0.0,0.0,0.0,0.0,0.0,0.0,0.0,0.0,0.0,0.0,0.0,0.0,0.0,0.0,0.0,0.0,0.0,0.0,0.0,0.0,0.0,0.0,0.0,0.0,0.0,0.0,0.0,0.0,0.0,0.0,0.0,0.0,0.0,0.0,0.0,0.0,0.0,0.0,0.0,0.0,0.0,0.0,0.0,0.0,0.0,0.0,0.0,0.0,0.0,0.0,0.0,0.0,0.0,0.0,0.0,0.0,0.0,0.0,0.0,0.0,0.0,0.0,0.0,0.0,0.0,0.0,0.0,0.0,0.0,0.0,0.0,0.0,0.0,0.0,0.0,0.0,0.0,0.0,0.0,0.0,0.0,0.0,0.0,0.0,0.0,0.0,0.0,0.0,0.0,0.0,0.0,0.0,0.0,0.0,0.0,0.0,0.0,0.0,0.0,0.0,0.0,0.0,0.0,0.0,0.0,0.0,0.0,0.0,0.0,0.0,0.0,0.0,0.0,0.0,0.0,0.0,0.0,0.0,0.0,0.0,0.0,0.0,0.0,0.0,0.0,0.0,0.0,0.0,0.0,0.0,0.0,0.0,0.0,0.0,0.0,0.0,0.0,0.0,0.0,0.0,0.0,0.0,0.0,0.0,0.0,0.0,0.0,0.0,0.0,0.0,0.0,0.0,0.0,0.0,0.0,0.0,0.0,0.0,0.0,0.0,0.0,0.0,0.0,0.0,0.0,0.0,0.0,0.0,0.0,0.0,0.0,0.0,0.0,0.0,0.0,0.0,0.0,0.0,0.0,0.0,0.0,0.0,0.0,0.0,0.0,0.0,0.0,0.0,0.0,0.0,0.0,0.0,0.0,0.0,0.0,0.0,0.0,0.0,0.0,0.0,0.0,0.0,0.0,0.0,0.0,0.0,0.0,0.0,0.0,0.0,0.0,0.0,0.0,0.0,0.0,0.0,0.0,0.0,0.0,0.0,0.0,0.0,0.0,0.0,0.0,0.0,0.0,0.0,0.0,0.0,0.0,0.0,0.0,0.0,0.0,0.0,0.0,0.0,0.0,0.0,0.0,0.0,0.0,0.0,0.0,0.0,0.0,0.0,0.0,0.0,0.0,0.0,0.0,0.0,0.0,0.0,0.0,0.0,0.0,0.0,0.0,0.0,0.0,0.0,0.0,0.0,0.0,0.0,0.0,0.0,0.0,0.0,0.0,0.0,0.0,0.0,0.0,0.0,0.0,0.0,0.0,0.0,0.0,0.0,0.0,0.0,0.0,0.0,0.0,0.0,0.0,0.0,0.0,0.0,0.0,0.0,0.0,0.0,0.0,0.0,0.0,0.0,0.0,0.0,0.0,0.0,0.0,0.0,0.0,0.0,0.0,0.0,0.0,0.0,0.0,0.0,0.0,0.0,0.0,0.0,0.0,0.0,0.0,0.0,0.0,0.0,0.0,0.0,0.0,0.0,0.0,0.0,0.0,0.0,0.0,0.0,0.0,0.0,0.0,0.0,0.0,0.0,0.0,0.0,0.0,0.0,0.0,0.0,0.0,0.0,0.0,0.0,0.0,0.0,0.0,0.0,0.0,0.0,0.0,0.0,0.0,0.0,0.0,0.0,0.0,0.0,0.0,0.0,0.0,0.0,0.0,0.0,0.0,0.0,0.0,0.0,0.0,0.0,0.0,0.0,0.0,0.0,0.0,0.0,0.0,0.0,0.0,0.0,0.0,0.0,0.0,0.0,0.0,0.0,0.0,0.0,0.0,0.0,0.0,0.0,0.0,0.0,0.0,0.0,0.0,0.0,0.0,0.0,0.0,0.0,0.0,0.0,0.0,0.0,0.0,0.0,0.0,0.0,0.0,0.0,0.0,0.0,0.0,0.0,0.0,0.0,0.0,0.0,0.0,0.0,0.0,0.0,0.0,0.0,0.0,0.0,0.0,0.0,0.0,0.0,0.0,0.0,0.0,0.0,0.0,0.0,0.0,0.0,0.0,0.0,0.0,0.0,0.0,0.0,0.0,0.0,0.0,0.0,0.0,0.0,0.0,0.0,0.0,0.0,0.0,0.0,0.0,0.0,0.0,0.0,0.0,0.0,0.0,0.0,0.0,0.0,0.0,0.0,0.0,0.0,0.0,0.0,0.0,0.0,0.0,0.0,0.0,0.0,0.0,0.0,0.0,0.0,0.0,0.0,0.0,0.0,0.0,0.0,0.0,0.0,0.0,0.0,0.0,0.0,0.0,0.0,0.0,0.0,0.0,0.0,0.0,0.0,0.0,0.0,0.0,0.0,0.0,0.0,0.0,0.0,0.0,0.0,0.0,0.0,0.0,0.0,0.0,0.0,0.0,0.0,0.0,0.0,0.0,0.0,0.0,0.0,0.0,0.0,0.0,0.0,0.0,0.0,0.0,0.0,0.0,0.0,0.0,0.0,0.0,0.0,0.0,0.0,0.0,0.0,0.0,0.0,0.0,0.0,0.0,0.0,0.0,0.0,0.0,0.0,0.0,0.0,0.0,0.0,0.0,0.0,0.0,0.0,0.0,0.0,0.0,0.0,0.0,0.0,0.0,0.0,0.0,0.0,0.0,0.0,0.0,0.0,0.0,0.0,0.0,0.0,0.0,0.0,0.0,0.0,0.0,0.0,0.0,0.0,0.0,0.0,0.0,0.0,0.0,0.0,0.0,0.0,0.0,0.0,0.0,0.0,0.0,0.0,0.0,0.0,0.0,0.0,0.0,0.0,0.0,0.0,0.0,0.0,0.0,0.0,0.0,0.0,0.0,0.0,0.0,0.0,0.0,0.0,0.0,0.0,0.0,0.0,0.0,0.0,0.0,0.0,0.0,0.0,0.0,0.0,0.0,0.0,0.0,0.0,0.0,0.0,0.0,0.0,0.0,0.0,0.0,0.0,0.0,0.0,0.0,0.0,0.0,0.0,0.0,0.0,0.0,0.0,0.0,0.0,0.0,0.0,0.0,0.0,0.0,0.0,0.0,0.0,0.0,0.0,0.0,0.0,0.0,0.0,0.0,0.0,0.0,0.0,0.0,0.0,0.0,0.0,0.0,0.0,0.0,0.0,0.0,0.0,0.0,0.0,0.0,0.0,0.0,0.0,0.0,0.0,0.0,0.0,0.0,0.0,0.0,0.0,0.0,0.0,0.0,0.0,0.0,0.0,0.0,0.0,0.0,0.0,0.0,0.0,0.0,0.0,0.0,0.0,0.0,0.0,0.0,0.0,0.0,0.0,0.0,0.0,0.0,0.0,0.0,0.0,0.0,0.0,0.0,0.0,0.0,0.0,0.0,0.0,0.0,0.0,0.0,0.0,0.0,0.0,0.0,0.0,0.0,0.0,0.0,0.0,0.0,0.0,0.0,0.0,0.0,0.0,0.0,0.0,0.0,0.0,0.0,0.0,0.0,0.0,0.0,0.0,0.0,0.0,0.0,0.0,0.0,0.0,0.0,0.0,0.0,0.0,0.0,0.0,0.0,0.0,0.0,0.0,0.0,0.0,0.0,0.0,0.0,0.0,0.0,0.0,0.0,0.0,0.0,0.0,0.0,0.0,0.0,0.0,0.0,0.0,0.0,0.0,0.0,0.0,0.0,0.0,0.0,0.0,0.0,0.0,0.0,0.0,0.0,0.0,0.0,0.0,0.0,0.0,0.0,0.0,0.0,0.0,0.0,0.0,0.0,0.0,0.0,0.0,0.0,0.0,0.0,0.0,0.0,0.0,0.0,0.0,0.0,0.0,0.0,0.0,0.0,0.0,0.0,0.0,0.0,0.0,0.0,0.0,0.0,0.0,0.0,0.0,0.0,0.0,0.0,0.0,0.0,0.0,0.0,0.0,0.0,0.0,0.0,0.0,0.0,0.0,0.0,0.0,0.0,0.0,0.0,0.0,0.0,0.0,0.0,0.0,0.0,0.0,0.0,0.0,0.0,0.0,0.0,0.0,0.0,0.0,0.0,0.0,0.0,0.0,0.0,0.0,0.0,0.0,0.0,0.0,0.0,0.0,0.0,0.0,0.0,0.0,0.0,0.0,0.0,0.0,0.0,0.0,0.0,0.0,0.0,0.0,0.0,0.0,0.0,0.0,0.0,0.0,0.0,0.0,0.0,0.0,0.0,0.0,0.0,0.0,0.0,0.0,0.0,0.0,0.0,0.0,0.0,0.0,0.0,0.0,0.0,0.0,0.0,0.0,0.0,0.0,0.0,0.0,0.0,0.0,0.0,0.0,0.0,0.0,0.0,0.0,0.0,0.0,0.0,0.0,0.0,0.0,0.0,0.0,0.0,0.0,0.0,0.0,0.0,0.0,0.0,0.0,0.0,0.0,0.0,0.0,0.0,0.0,0.0,0.0,0.0,0.0,0.0,0.0,0.0,0.0,0.0,0.0,0.0,0.0,0.0,0.0,0.0,0.0,0.0,0.0,0.0,0.0,0.0,0.0,0.0,0.0,0.0,0.0,0.0,0.0,0.0,0.0,0.0,0.0,0.0,0.0,0.0,0.0,0.0,0.0,0.0,0.0,0.0,0.0,0.0,0.0,0.0,0.0,0.0,0.0,0.0,0.0,0.0,0.0,0.0,0.0,0.0,0.0,0.0,0.0,0.0,0.0,0.0,0.0,0.0,0.0,0.0,0.0,0.0,0.0,0.0,0.0,0.0,0.0,0.0,0.0,0.0,0.0,0.0,0.0,0.0,0.0,0.0,0.0,0.0,0.0,0.0,0.0,0.0,0.0,0.0,0.0,0.0,0.0,0.0,0.0,0.0,0.0,0.0,0.0,0.0,0.0,0.0,0.0,0.0,0.0,0.0,0.0,0.0,0.0,0.0,0.0,0.0,0.0,0.0,0.0,0.0,0.0,0.0,0.0,0.0,0.0,0.0,0.0,0.0,0.0,0.0,0.0,0.0,0.0,0.0,0.0,0.0,0.0,0.0,0.0,0.0,0.0,0.0,0.0,0.0,0.0,0.0,0.0,0.0,0.0,0.0,0.0,0.0,0.0,0.0,0.0,0.0,0.0,0.0,0.0,0.0,0.0,0.0,0.0,0.0,0.0,0.0,0.0,0.0,0.0,0.0,0.0,0.0,0.0,0.0,0.0,0.0,0.0,0.0,0.0,0.0,0.0,0.0,0.0,0.0,0.0,0.0,0.0,0.0,0.0,0.0,0.0,0.0,0.0,0.0,0.4874,0.4057,0.0,0.0,0.0,0.0,0.0,0.0,0.0,0.0,0.0,0.0,0.0,0.0,0.0,0.0,0.0,0.0,0.0,0.0,0.0,0.0,0.0,0.0,0.0,0.0,0.0,0.0,0.0,0.0,0.0,0.0,0.0,0.0,0.0,0.0,0.0,0.0,0.0,-0.8338,-0.8316,-0.7899,-0.714,-0.753,-0.7759,-0.7848,0.0,0.0,0.0,0.0,0.0,0.0,0.0,0.0,0.0,0.0,0.0,0.0,0.0,0.0,0.0,0.0,0.0,0.0,0.0,0.0,0.0,0.0,0.0,0.0,0.0,0.0,0.0,0.0,0.0,0.0,0.0,0.0,0.0,0.0,0.0,0.0,0.0,0.0,0.0,0.0,0.0,0.0,0.0,0.0,0.0,0.0,0.0,0.0,0.0,0.0,0.0,0.0,0.0,0.0,0.0,0.0,0.0,0.0,0.0,0.0,0.0,0.0,0.0,0.0,0.0,0.0,0.0,0.0,0.0,0.0,0.506,0.4775,0.0,0.0,0.0,0.0,0.0,0.0,0.0,0.0,0.0,0.0,0.0,0.0,0.0,0.0,0.0,0.0,0.0,0.0,0.0,0.0,0.0,0.0,0.0,-1.3899,-1.388,-1.3327,-1.3218,-1.3241,0.0,0.0,0.0,0.0,0.0,0.0,-0.9825,-0.9321,-0.9004,-0.8858,-0.8204,-0.7716,-0.7386,-0.7386,-0.7338,-0.723,-0.7288,0.0,0.0,0.0,0.0,0.0,0.0,0.0,0.0,0.0,0.0,0.0,0.0,0.0,0.0,0.0,0.0,0.0,0.0,0.0,0.0,0.0,0.0,0.0,0.0,0.0,0.0,0.0,0.0,0.0,0.0,0.0,0.0,0.0,0.0,0.0,0.0,0.0,0.0,0.0,0.0,0.0,0.0,0.0,0.0,0.0,0.0,0.0,0.0,0.0,0.0,0.0,0.0,0.0,0.0,0.0,0.0,0.0,0.0,0.0,0.0,0.0,0.0,0.0,0.5726,0.5788,0.5788,0.5788,0.5566,0.5226,0.546,0.5688,0.5849,0.523,0.0,0.0,0.0,0.0,0.0,0.0,0.0,0.0,0.0,0.0,0.0,0.0,0.0,0.0,0.0,0.0,0.0,0.0,0.0,-1.4016,-1.4016,-1.4075,-1.4074,-1.3974,-1.3696,-1.3829,-1.4521,0.0,0.0,0.0,0.0,0.0,-1.1483,-1.0575,-0.9798,-0.9144,-0.7462,-0.6762,-0.6984,-0.6984,-0.6966,-0.6944,-0.6666,-0.6488,-0.6301,0.0,0.0,0.0,0.0,0.0,0.0,0.0,0.0,0.0,0.0,0.0,0.0,0.0,0.0,0.0,0.0,0.0,0.0,0.0,0.0,0.0,0.0,0.0,0.0,0.0,0.0,0.0,0.0,0.0,0.0,0.0,0.0,0.0,0.0,0.0,0.0,0.0,0.0,0.0,0.0,0.0,0.3933,0.405,0.0,0.0,0.0,0.0,0.0,0.0,0.0,0.0,0.0,0.0,0.0,0.0,0.0,0.5276,0.5214,0.5979,0.6348,0.6375,0.7015,0.7305,0.7305,0.7305,0.7272,0.7177,0.6477,0.0,0.5515,0.5924,0.0,0.0,0.0,0.0,0.0,0.0,0.0,0.0,0.0,0.0,0.0,0.0,0.0,0.0,0.0,0.0,0.0,0.0,0.0,0.0,0.0,-1.4179,-1.4238,-1.375,-1.3741,-1.4046,-1.471,-1.3958,0.0,0.0,0.0,-1.1726,-1.1529,-1.0501,-0.9846,-0.96,-0.9267,-0.899,-0.8741,-0.8052,-0.7749,-0.7711,-0.6927,-0.6615,-0.6639,-0.5623,0.0,0.0,0.0,0.0,0.0,0.0,0.0,0.0,0.0,0.0,0.0,0.0,0.0,0.0,0.0,0.0,0.0,0.0,0.0,0.0,0.0,0.0,0.0,0.0,0.0,0.0,0.0,0.0,0.0,0.0,0.0,0.0,0.0,0.0,0.0,0.0,0.0,0.0,0.0,0.4355,0.4616,0.4873,0.4968,0.4586,0.0,0.0,0.0,0.0,0.0,0.0,0.0,0.0,0.0,0.546,0.5988,0.6137,0.5904,0.6709,0.7131,0.7131,0.7441,0.7597,0.7597,0.7597,0.7597,0.7577,0.7206,0.6886,0.662,0.6402,0.6185,0.6021,0.0,0.0,0.0,0.0,0.5515,0.5768,0.0,0.0,0.0,0.0,0.0,0.0,0.0,0.0,0.0,0.0,0.0,0.0,-1.3957,-1.4248,-1.4227,-1.3589,-1.3574,-1.3803,-1.4327,-1.3667,-1.3371,-1.3644,-1.2439,-1.1674,-1.1516,-1.0607,-1.0167,-1.0224,-1.0389,-1.0224,-0.9705,-0.8524,-0.7959,-0.7938,-0.7088,-0.6738,-0.6767,-0.6072,-0.5562,-0.5214,0.0,0.0,0.0,0.0,0.0,0.0,0.0,0.0,0.0,0.0,0.0,0.0,0.0,0.0,0.0,0.0,0.0,0.0,0.0,0.0,0.0,0.0,0.0,0.0,0.0,0.0,0.0,0.0,0.0,0.0,0.0,0.0,0.0,0.0,0.0,0.0,0.0,0.4818,0.5173,0.565,0.5414,0.4982,0.0,0.0,0.0,0.0,0.0,0.0,0.5224,0.5368,0.5588,0.5954,0.6695,0.6939,0.6627,0.7299,0.7651,0.7651,0.7692,0.7712,0.7712,0.7712,0.7712,0.7712,0.7712,0.7712,0.7658,0.6974,0.6533,0.6362,0.6849,0.6471,0.5739,0.6087,0.6274,0.6302,0.0,0.0,0.0,0.0,0.0,0.0,0.0,0.0,0.0,0.0,0.0,-1.4692,-1.4661,-1.4221,-1.3917,-1.3884,-1.3202,-1.2963,-1.3443,-1.3067,-1.2737,-1.2493,-1.2814,-1.271,-1.2075,-1.1564,-1.1264,-1.1135,-0.9387,-0.8536,-0.8463,-0.7328,-0.6778,-0.6785,-0.6722,-0.6464,-0.6061,-0.6204,-0.5988,-0.5542,-0.522,0.0,0.0,0.0,0.0,0.0,0.0,0.0,0.0,0.0,0.0,0.0,0.0,0.0,0.0,0.0,0.0,0.0,0.0,0.0,0.0,0.0,0.0,0.0,0.0,0.0,0.0,0.0,0.0,0.0,0.0,0.0,0.0,0.0,0.0,0.0,0.0,0.0,0.0,0.5883,0.635,0.0,0.0,0.0,0.0,0.5065,0.5707,0.6357,0.6766,0.6786,0.7018,0.7475,0.7536,0.7556,0.7536,0.7712,0.7801,0.7801,0.7925,0.7993,0.7993,0.7993,0.7993,0.7993,0.7993,0.7993,0.7979,0.779,0.7722,0.7668,0.7461,0.7333,0.7188,0.6336,0.658,0.726,0.0,0.0,0.0,0.0,0.0,0.0,0.0,0.0,-1.3139,-1.3953,-1.3948,-1.3663,-1.314,-1.327,-1.3183,-1.2648,-1.2716,-1.296,-1.3436,-1.3406,-1.3489,-1.3726,-1.3199,-1.2612,-1.1981,-1.2362,-1.2524,-1.2491,-1.2212,-1.2157,-1.2289,-1.1166,-1.024,-0.9492,-0.8716,-0.7756,-0.6694,-0.66,-0.6362,-0.6047,-0.592,-0.5641,0.0,0.0,0.0,0.0,0.0,0.0,0.0,0.0,0.0,0.0,0.0,0.0,0.0,0.0,0.0,0.0,0.0,0.0,0.0,0.0,0.0,0.0,0.0,0.0,0.0,0.0,0.0,0.0,0.0,0.0,0.0,0.0,0.0,0.0,0.0,0.0,0.0,0.6471,0.6809,0.0,0.6399,0.6675,0.6717,0.628,0.6809,0.7231,0.7459,0.7472,0.7594,0.7851,0.7858,0.7858,0.7858,0.7905,0.7932,0.7932,0.7986,0.7988,0.7988,0.7988,0.7988,0.7988,0.7988,0.7988,0.7988,0.7952,0.7932,0.7925,0.7817,0.7776,0.7736,0.7418,0.7506,0.7756,0.0,0.0,0.0,0.0,0.0,0.0,0.0,0.0,-1.3209,-1.3863,-1.3488,-1.3006,-1.2554,-1.2697,-1.2663,-1.2249,-1.2575,-1.2876,-1.309,-1.3754,-1.3978,-1.3639,-1.3098,-1.2831,-1.2903,-1.3304,-1.3601,-1.3801,-1.3792,-1.3882,-1.4039,-1.2895,-1.197,-1.1185,-0.9931,-0.882,-0.7878,-0.7257,-0.6831,-0.6566,-0.6409,-0.604,-0.5505,0.0,0.0,0.0,0.0,0.0,0.0,0.0,0.0,0.0,0.0,0.0,0.0,0.0,0.0,0.0,0.0,0.0,0.0,0.0,0.0,0.0,0.0,0.0,0.0,0.0,0.0,0.0,0.0,0.0,0.0,0.0,0.0,0.0,0.0,0.5456,0.6146,0.6823,0.7121,0.7256,0.7208,0.729,0.7323,0.7283,0.7553,0.7763,0.7858,0.7864,0.7912,0.7988,0.8067,0.8094,0.8094,0.8142,0.8162,0.8162,0.8162,0.8162,0.8162,0.8162,0.8027,0.7804,0.8054,0.802,0.781,0.806,0.8162,0.8155,0.8054,0.7988,0.7988,0.7988,0.7988,0.802,0.0,0.0,0.0,0.0,0.0,0.0,-1.1751,-1.2458,-1.3047,-1.3297,-1.2953,-1.2765,-1.3008,-1.2607,-1.2457,-1.2776,-1.2816,-1.269,-1.2358,-1.4003,-1.4065,-1.206,-1.2526,-1.3474,-1.4865,-1.4386,-1.441,-1.5008,-1.3835,-1.3269,-1.3246,-1.2141,-1.1604,-1.1512,-1.0177,-0.9551,-0.9427,-0.8153,-0.7405,-0.7071,-0.6695,-0.6253,-0.5806,0.0,0.0,0.0,0.0,0.0,0.0,0.0,0.0,0.0,0.0,0.0,0.0,0.0,0.0,0.0,0.0,0.0,0.0,0.0,0.0,0.0,0.0,0.0,0.0,0.0,0.0,0.0,0.0,0.0,0.0,0.0,0.0,0.0,0.3876,0.5631,0.6911,0.6938,0.7323,0.7665,0.7801,0.7821,0.7858,0.7925,0.7995,0.7995,0.7945,0.7982,0.7993,0.7993,0.8167,0.8267,0.8267,0.843,0.8505,0.8505,0.8505,0.8505,0.8505,0.8505,0.811,0.7471,0.8192,0.8097,0.7485,0.8213,0.8505,0.8478,0.8142,0.8002,0.8002,0.8002,0.8002,0.8047,0.0,0.0,0.0,0.0,0.0,0.0,-1.178,-1.1981,-1.2074,-1.1889,-1.1804,-1.171,-1.1589,-1.2227,-1.269,-1.2789,-1.3166,-1.334,-1.324,-1.4084,-1.4296,-1.3748,-1.3691,-1.3963,-1.4604,-1.4693,-1.4825,-1.5008,-1.4658,-1.4605,-1.4789,-1.4477,-1.3888,-1.3043,-1.1679,-1.0492,-0.9427,-0.8153,-0.755,-0.7455,-0.724,-0.6919,-0.658,0.0,0.0,0.0,0.0,0.0,0.0,0.0,0.0,0.0,0.0,0.0,0.0,0.0,0.0,0.0,0.0,0.0,0.0,0.0,0.0,0.0,0.0,0.0,0.0,0.0,0.0,0.0,0.0,0.0,0.0,0.0,0.3426,0.4426,0.5974,0.6523,0.6985,0.7634,0.7817,0.7912,0.7946,0.7952,0.757,0.6631,0.7585,0.7795,0.6811,0.7274,0.7556,0.7556,0.7621,0.7641,0.7641,0.8219,0.8505,0.8505,0.8505,0.8505,0.8505,0.8505,0.8396,0.8213,0.8417,0.8389,0.8219,0.8423,0.8505,0.8498,0.8391,0.8357,0.8357,0.8357,0.8357,0.8275,0.0,0.0,0.0,0.0,0.0,0.0,-1.1344,-1.1578,-1.1612,-1.1084,-1.1237,-1.1392,-1.1387,-1.2221,-1.2891,-1.3126,-1.3561,-1.37,-1.346,-1.3821,-1.4294,-1.4829,-1.4568,-1.4559,-1.487,-1.5079,-1.5227,-1.5347,-1.5347,-1.5404,-1.5578,-1.5578,-1.5214,-1.451,-1.2606,-1.132,-1.0399,-0.8542,-0.7763,-0.7749,-0.7617,-0.7305,-0.6904,-0.6877,-0.615,-0.5173,-0.5229,-0.4394,-0.3312,-0.379,0.0,0.0,0.0,0.0,0.0,0.0,0.0,0.0,0.0,0.0,0.0,0.0,0.0,0.0,0.0,0.0,0.0,0.0,0.0,0.0,0.0,0.0,0.0,0.0,0.3042,0.4059,0.5585,0.6145,0.6802,0.7878,0.7509,0.716,0.716,0.6651,0.5992,0.5234,0.5994,0.6157,0.5374,0.5737,0.6125,0.643,0.687,0.7259,0.7556,0.8451,0.8886,0.8886,0.8886,0.8886,0.8886,0.8886,0.8716,0.8437,0.875,0.8709,0.8444,0.8757,0.8886,0.8859,0.0,0.0,0.0,0.0,0.8505,0.8444,0.0,0.0,0.0,0.0,0.0,0.0,-1.0713,-1.1217,-1.1406,-1.0697,-1.1089,-1.1583,-1.1873,-1.2489,-1.3086,-1.356,-1.3921,-1.3902,-1.3387,-1.346,-1.4104,-1.5442,-1.5138,-1.5106,-1.5431,-1.5444,-1.5555,-1.5808,-1.5808,-1.5808,-1.5808,-1.5808,-1.5737,-1.5486,-1.2993,-1.1828,-1.1512,-0.904,-0.7988,-0.8,-0.7864,-0.7492,-0.7019,-0.7105,-0.686,-0.6429,-0.6561,-0.5653,-0.4404,-0.449,0.0,0.0,0.0,0.0,0.0,0.0,0.0,0.0,0.0,0.0,0.0,0.0,0.0,0.0,0.0,0.0,0.0,0.0,0.0,0.0,0.0,0.0,0.0,0.0,0.245,0.3072,0.3895,0.4906,0.6047,0.7384,0.6503,0.5776,0.5761,0.4694,0.3933,0.3782,0.3923,0.3967,0.3814,0.3865,0.0,0.0,0.0,0.6993,0.7844,0.8872,0.941,0.941,0.941,0.941,0.941,0.941,0.9049,0.8457,0.9124,0.9036,0.8471,0.9138,0.941,0.9356,0.8818,0.8614,0.86,0.8498,0.8526,0.8614,0.0,0.0,0.0,0.0,0.0,0.0,-1.0618,-1.0728,-1.0776,-1.0618,-1.1293,-1.1828,-1.1899,-1.2826,-1.35,-1.3586,-1.3921,-1.4135,-1.4234,-1.3447,-1.3676,-1.5363,-1.4878,-1.4941,-1.5701,-1.5728,-1.5741,-1.5808,-1.5808,-1.5808,-1.5808,-1.5808,-1.5235,-1.4196,-1.2595,-1.1341,-1.0264,-0.8676,-0.7988,-0.7988,-0.7986,-0.7831,-0.7607,-0.7543,-0.6842,-0.5944,-0.5966,-0.4497,-0.2603,-0.3204,-0.2596,-0.1728,-0.2589,-0.2956,0.0,0.0,0.0,0.0,0.0,0.0,0.0,0.0,0.0,0.0,0.0,0.0,0.0,0.0,0.0,0.0,0.0,0.0,0.0,0.1968,0.2098,0.2609,0.3832,0.3284,0.3263,0.4621,0.4545,0.4391,0.4377,0.4159,0.3563,0.2458,0.349,0.3678,0.2598,0.3121,0.4109,0.561,0.5876,0.6685,0.818,0.9009,0.941,0.941,0.941,0.0,0.941,0.941,0.9328,0.9206,0.9349,0.9328,0.9206,0.9349,0.941,0.9396,0.9281,0.9233,0.9123,0.8365,0.8581,0.911,0.0,0.0,0.0,0.0,0.0,0.0,-1.0602,-1.0602,-1.0602,-1.0602,-1.1213,-1.1757,-1.2069,-1.2765,-1.3253,-1.3393,-1.3427,-1.3755,-1.4447,-1.3961,-1.4162,-1.5351,-1.5234,-1.5354,-1.5795,-1.5808,-1.5808,-1.5808,-1.5808,-1.5808,-1.5808,-1.5808,-1.5462,-1.4758,-1.2775,-1.156,-1.0828,-0.885,-0.7988,-0.7988,-0.7988,-0.7966,-0.7891,-0.7824,-0.7427,-0.6906,-0.6906,-0.564,-0.4058,-0.4437,-0.3711,-0.2751,-0.3289,-0.3355,-0.3165,0.0,0.0,0.0,0.0,0.0,0.0,0.0,0.0,0.0,0.0,0.0,0.0,0.0,0.0,0.0,0.0,0.0,0.0994,0.1004,0.0998,0.1234,0.1901,0.1427,0.1751,0.3772,0.341,0.2995,0.2998,0.2401,0.1718,0.1038,0.1676,0.182,0.1147,0.1446,0.2201,0.3417,0.4676,0.5936,0.7145,0.8786,0.9598,0.9598,0.8789,0.8856,0.9683,0.8859,0.8993,0.9859,0.9859,0.9859,0.9859,0.9747,0.9673,0.9598,0.9598,0.951,0.9356,0.8879,0.8994,0.9349,0.0,0.0,0.0,0.0,0.0,0.0,0.0,-1.0602,-1.0626,-1.0747,-1.1182,-1.1744,-1.2318,-1.2671,-1.2952,-1.3186,-1.2898,-1.3206,-1.4421,-1.4447,-1.475,-1.5444,-1.5675,-1.5808,-1.5808,-1.5808,-1.5808,-1.5808,-1.5808,-1.5808,-1.5808,-1.5808,-1.5534,-1.4949,-1.2837,-1.1634,-1.0999,-0.8899,-0.7988,-0.7988,-0.7988,-0.7988,-0.7988,-0.7988,-0.7988,-0.7988,-0.7988,-0.7135,-0.5992,-0.5998,-0.5107,-0.3995,-0.4005,-0.3936,-0.3786,-0.3517,-0.337,0.0,0.0,0.0,0.0,0.0,0.0,0.0,0.0,0.0,0.0,0.0,0.0,0.0,0.0,0.0,0.0,0.0,0.0,0.0,0.0,0.0,0.08,0.2969,0.2261,0.1613,0.1619,0.0639,0.0,0.0,0.0,0.0,0.0,0.0,0.0431,0.1346,0.3374,0.4877,0.5763,0.7829,0.8848,0.8817,0.7547,0.7846,0.9493,0.8193,0.86,1.0315,1.0315,1.0315,1.0301,1.0148,0.9988,0.991,0.991,0.9768,0.958,0.949,0.9469,0.9469,0.0,0.0,0.0,0.0,0.0,0.0,0.0,0.0,-1.0774,-1.1246,-1.161,-1.2056,-1.2695,-1.2992,-1.3173,-1.3213,-1.2679,-1.2973,-1.4407,-1.4282,-1.4629,-1.5701,-1.5781,-1.5808,-1.5808,-1.5808,-1.5808,-1.5808,-1.5808,-1.5808,-1.5808,-1.5808,-1.4567,-1.2315,-1.2023,-1.0607,-0.8404,-0.8113,-0.7988,-0.7988,-0.7988,-0.7988,-0.7988,-0.7988,-0.7988,-0.7988,-0.7988,-0.7135,-0.6002,-0.5992,-0.5105,-0.4004,-0.3993,-0.399,-0.3959,-0.3938,-0.3903,-0.385,-0.3589,-0.2565,-0.1311,-0.027,0.0,0.0,0.0,0.0,0.0,0.0,0.0,0.0,0.0,0.0,0.0,0.0,0.0,0.0,0.0,0.0,0.011,0.0416,0.0306,0.0224,0.0228,0.0087,0.0,0.0,0.0,0.0,0.0,0.0,0.0723,0.2297,0.263,0.3489,0.4995,0.5301,0.5461,0.5461,0.5269,0.6133,0.7875,0.7684,0.8585,1.0315,1.0315,1.0315,1.0308,1.0295,1.0243,1.0229,1.0229,1.024,1.0148,0.9869,0.9744,0.9744,0.0,0.0,0.0,0.0,0.0,0.0,0.0,0.0,-1.0747,-1.1116,-1.1423,-1.1837,-1.2444,-1.247,-1.2524,-1.2665,-1.2113,-1.2492,-1.4162,-1.4162,-1.4616,-1.5755,-1.5808,-1.5808,-1.5808,-1.5808,-1.5808,-1.5808,-1.5808,-1.5808,-1.5808,-1.5808,-1.5224,-1.41,-1.2581,-1.1292,-1.0165,-0.8651,-0.7988,-0.7988,-0.7988,-0.7988,-0.7988,-0.7988,-0.7988,-0.7993,-0.7824,-0.7419,0.0,-0.6931,-0.6563,-0.612,-0.6283,-0.5684,-0.496,-0.5123,-0.4367,-0.3329,-0.2621,-0.202,-0.1346,-0.0267,0.0,0.0,0.0,0.0,0.0,0.0,0.0,0.0,0.0,0.0,0.0,0.0,0.0,0.0,0.0,0.0,0.0,0.0,0.0,0.0,0.0,0.0,0.0,0.0,0.0,0.0,0.0,0.0,0.0312,0.1012,0.2004,0.2836,0.3499,0.4415,0.491,0.4878,0.3949,0.4997,0.7672,0.6761,0.7869,1.0534,1.0534,1.0487,1.0437,1.0437,1.0351,1.0315,1.0315,1.0315,1.0263,1.0134,1.0086,1.0086,0.0,0.0,0.0,0.0,0.0,0.0,0.0,0.0,0.0,0.0,-1.1232,-1.1633,-1.2238,-1.2056,-1.2002,-1.2278,-1.1984,-1.2438,-1.4009,-1.4263,-1.4643,-1.5244,-1.5605,-1.5629,-1.5296,-1.5605,-1.5808,-1.5808,-1.5808,-1.5808,-1.5808,-1.5808,-1.5415,-1.4639,-1.2751,-1.1512,-1.0705,-0.88,-0.7988,-0.7988,-0.7988,-0.7988,-0.7988,-0.7988,-0.7966,-0.7864,-0.7678,-0.7597,-0.759,-0.7502,-0.7529,-0.7624,-0.7729,-0.7025,-0.6174,-0.627,-0.526,-0.382,-0.2512,-0.2078,-0.1696,-0.034,0.0,0.0,0.0,0.0,0.0,0.0,0.0,0.0,0.0,0.0,0.0,0.0,0.0,0.0,0.0,0.0,0.0,0.0,0.0,0.0,0.0,0.0,0.0,0.0,0.0,0.0,0.0,0.0,0.0,0.0,0.1164,0.1812,0.1812,0.2953,0.3544,0.3544,0.2376,0.3693,0.7126,0.6961,0.8256,1.0684,1.0684,1.0623,1.0555,1.0555,1.0493,1.0399,1.0399,1.0399,1.0399,1.0399,1.0351,1.0315,0.0,0.0,0.0,0.0,0.0,0.0,0.0,0.0,0.0,0.0,0.0,0.0,0.0,-1.2056,-1.2002,-1.2278,-1.2583,-1.3132,-1.4049,-1.4638,-1.4666,-1.4004,-1.514,-1.5211,-1.3968,-1.5164,-1.5808,-1.5808,-1.5808,-1.5808,-1.5808,-1.5808,-1.4448,-1.2023,-1.195,-1.0485,-0.8113,-0.8038,-0.7988,-0.7988,-0.7988,-0.7988,-0.7988,-0.7988,-0.7837,-0.7611,-0.7604,-0.7597,-0.7556,-0.7235,-0.733,-0.755,-0.7235,-0.7321,-0.7473,-0.7155,-0.6838,-0.6152,-0.4085,-0.3306,-0.2566,-0.0518,0.0,0.0,0.0,0.0,0.0,0.0,0.0,0.0,0.0,0.0,0.0,0.0,0.0,0.0,0.0,0.0,0.0,0.0,0.0,0.0,0.0,0.0,0.0,0.0,0.0,0.0,0.0,0.0,0.0,0.0,0.0065,0.0066,0.0066,0.0133,0.0134,0.0134,0.0101,0.1979,0.5593,0.9,1.0611,1.0684,1.0684,1.0684,1.0677,1.0677,1.0677,1.0704,1.0704,1.0704,1.0704,1.0704,1.0527,1.0315,0.0,0.0,0.0,0.0,0.0,0.0,0.0,0.0,0.0,0.0,0.0,0.0,0.0,0.0,0.0,0.0,-1.2037,-1.2412,-1.3687,-1.3954,-1.3921,-1.3579,-1.4195,-1.434,-1.3896,-1.4316,-1.4949,-1.5808,-1.5808,-1.5367,-1.4531,-1.4531,-1.3596,-1.1853,-1.1023,-1.0141,-0.9262,-0.8386,-0.7988,-0.7988,-0.7988,-0.7988,-0.7993,-0.7797,-0.7685,-0.755,0.0,-0.7007,-0.6987,-0.6885,-0.6919,-0.7021,-0.7087,-0.7053,-0.6946,-0.6668,-0.6128,-0.5293,-0.3695,-0.2701,-0.177,-0.0362,0.0,0.0,0.0,0.0,0.0,0.0,0.0,0.0,0.0,0.0,0.0,0.0,0.0,0.0,0.0,0.0,0.0,0.0,0.0,0.0,0.0,0.0,0.0,0.0,0.0,0.0,0.0,0.0,0.0,0.0,0.0,0.0,0.0,0.0,0.0,0.0034,0.245,0.4225,0.5533,0.9164,1.084,1.084,1.0975,1.1016,1.1016,1.1016,1.1016,1.1002,1.0874,1.084,1.0826,1.0725,1.0623,1.0575,0.0,0.0,0.0,0.0,0.0,0.0,0.0,0.0,0.0,0.0,0.0,0.0,0.0,0.0,0.0,0.0,0.0,-1.2305,-1.3253,-1.348,-1.3391,-1.2948,-1.3604,-1.3795,-1.3438,-1.4012,-1.4682,-1.5524,-1.524,-1.4711,-1.3896,-1.3416,-1.2474,-1.1194,-1.0362,-0.9731,-0.9238,-0.8361,-0.7988,-0.7982,-0.7898,-0.7858,-0.7824,-0.7526,-0.7373,0.0,-0.6837,-0.6634,-0.6566,-0.6566,-0.6614,-0.6715,-0.6797,-0.6695,-0.6566,-0.6586,-0.5814,-0.4709,-0.3578,-0.2453,-0.1343,-0.0262,0.0,0.0,0.0,0.0,0.0,0.0,0.0,0.0,0.0,0.0,0.0,0.0,0.0,0.0,0.0,0.0,0.0,0.0,0.0,0.0,0.0,0.0,0.0,0.0,0.0,0.0,0.0,0.0,0.0,0.0,0.0,0.0,0.0,0.0,0.0,0.0034,0.3709,0.5474,0.5613,0.933,1.0819,1.0535,1.1016,1.1016,1.0744,1.1063,1.12,1.1186,1.1063,1.1023,1.1016,1.0914,1.088,1.0867,0.0,0.0,0.0,0.0,0.0,0.0,0.0,0.0,0.0,0.0,0.0,0.0,0.0,0.0,0.0,0.0,0.0,0.0,-1.2803,-1.328,-1.3123,-1.2118,-1.3303,-1.3536,-1.2588,-1.4062,-1.4888,-1.4946,-1.4258,-1.3874,-1.3766,-1.2496,-1.1225,-1.0016,-0.9967,-0.9232,-0.804,-0.7966,-0.7941,-0.7946,-0.7668,-0.7577,-0.7543,-0.7208,-0.6924,-0.6702,-0.6681,-0.6518,-0.63,-0.63,-0.6477,-0.6654,-0.633,-0.6282,-0.643,-0.686,-0.5879,-0.4471,-0.3711,-0.2533,-0.1267,-0.0258,0.0,0.0,0.0,0.0,0.0,0.0,0.0,0.0,0.0,0.0,0.0,0.0,0.0,0.0,0.0,0.0,0.0,0.0,0.0,0.0,0.0,0.0,0.0,0.0,0.0,0.0,0.0,0.0,0.0,0.0,0.0,0.0,0.0,0.0,0.0,0.0035,0.3806,0.5618,0.5723,0.9492,1.0711,0.992,1.0846,1.0737,0.9947,1.0833,1.122,1.122,1.1213,1.1206,1.1206,1.12,1.12,1.1159,0.0,0.0,0.0,0.0,0.0,0.0,0.0,0.0,0.0,0.0,0.0,0.0,0.0,0.0,0.0,0.0,0.0,0.0,-1.2789,-1.2931,-1.2632,-1.1852,-1.2126,-1.2286,-1.2234,-1.264,-1.3336,-1.433,-1.4152,-1.3536,-1.2557,-1.2203,-1.1372,-1.0122,-0.9368,-0.8849,-0.8472,-0.7662,-0.7321,-0.7314,-0.7263,-0.7235,-0.7202,-0.6904,-0.6763,-0.6675,-0.6471,-0.6361,-0.63,-0.63,-0.6477,-0.6556,-0.5688,-0.6092,-0.6729,-0.5853,-0.4788,-0.3628,-0.2424,-0.1267,-0.034,-0.0079,0.0,0.0,0.0,0.0,0.0,0.0,0.0,0.0,0.0,0.0,0.0,0.0,0.0,0.0,0.0,0.0,0.0,0.0,0.0,0.0,0.0,0.0,0.0,0.0,0.0,0.0,0.0,0.0,0.0,0.0,0.0,0.0,0.0,0.0,0.0,0.0035,0.3806,0.5618,0.5723,0.9584,1.1206,1.1009,1.1355,1.1375,1.1144,1.1409,1.1504,1.1491,1.1375,1.1335,1.1356,1.124,1.12,1.1186,0.0,0.0,0.0,0.0,0.0,0.0,0.0,0.0,0.0,0.0,0.0,0.0,0.0,0.0,0.0,0.0,0.0,0.0,0.0,-1.2516,-1.2406,-1.1974,-1.1967,-1.2089,-1.24,-1.2515,-1.3011,-1.3874,-1.3433,-1.2909,-1.2303,-1.1586,-1.0649,-0.9531,-0.8943,-0.8448,-0.7965,-0.7356,-0.7098,0.0,0.0,-0.6924,-0.6891,-0.662,-0.6525,-0.6505,-0.6361,-0.6002,-0.5527,-0.5047,-0.4987,-0.5033,-0.4576,-0.4845,-0.5253,-0.4764,-0.3715,-0.2589,-0.1941,-0.0895,0.0,0.0,0.0,0.0,0.0,0.0,0.0,0.0,0.0,0.0,0.0,0.0,0.0,0.0,0.0,0.0,0.0,0.0,0.0,0.0,0.0,0.0,0.0,0.0,0.0,0.0,0.0,0.0,0.0,0.0,0.0,0.0,0.0,0.0,0.0,0.0,0.0426,0.1318,0.4264,0.6142,0.7027,0.9226,0.9998,0.9657,1.0119,1.0106,0.9845,1.1096,1.1584,1.1577,1.1525,1.1491,1.1484,1.1396,1.1362,1.1362,0.0,0.0,0.0,0.0,0.0,0.0,0.0,0.0,0.0,0.0,0.0,0.0,0.0,0.0,0.0,0.0,0.0,0.0,0.0,0.0,-1.2049,-1.2088,-1.2191,-1.2417,-1.2789,-1.3032,-1.3273,-1.3547,-1.2654,-1.2341,-1.2575,-1.1027,-0.9816,-0.8961,-0.8691,-0.8074,-0.7194,-0.7042,-0.7006,-0.6979,-0.6742,-0.6641,-0.6614,0.0,-0.63,-0.63,-0.63,-0.5619,-0.4528,-0.347,-0.3138,-0.3188,-0.3338,-0.3301,-0.3288,-0.3626,-0.2748,-0.1656,-0.1724,-0.0889,0.0,0.0,0.0,0.0,0.0,0.0,0.0,0.0,0.0,0.0,0.0,0.0,0.0,0.0,0.0,0.0,0.0,0.0,0.0,0.0,0.0,0.0,0.0,0.0,0.0,0.0,0.0,0.0,0.0,0.0,0.0,0.0,0.0,0.0106,0.0394,0.0394,0.1368,0.3306,0.5011,0.6677,0.8307,0.8307,0.8035,0.7601,0.8378,0.8407,0.8144,1.0588,1.1584,1.1584,1.1584,1.1584,1.1584,1.1584,1.1584,1.1584,0.0,0.0,0.0,0.0,0.0,0.0,0.0,0.0,0.0,0.0,-0.9255,-1.0033,0.0,0.0,0.0,0.0,0.0,0.0,0.0,0.0,0.0,-1.1063,-1.1647,-1.2234,-1.2789,-1.2857,-1.2992,-1.326,-1.287,-1.2707,-1.2726,-1.1356,-1.0613,-1.0363,-0.8707,-0.7855,-0.7619,-0.6786,-0.6437,-0.643,-0.6395,-0.6375,-0.6368,-0.632,0.0,0.0,-0.63,-0.5619,-0.4528,-0.347,-0.3291,-0.3359,-0.2538,-0.3004,-0.3635,-0.2631,-0.216,-0.1703,-0.0643,-0.0187,0.0,0.0,0.0,0.0,0.0,0.0,0.0,0.0,0.0,0.0,0.0,0.0,0.0,0.0,0.0,0.0,0.0,0.0,0.0,0.0,0.0,0.0,0.0,0.0,0.0,0.0,0.0,0.0,0.0,0.0,0.0,0.0,0.0,0.0761,0.2393,0.2393,0.3373,0.5301,0.5627,0.5989,0.6315,0.6315,0.7096,0.85,0.8652,0.9536,1.0895,1.1409,1.1584,1.1584,1.1584,1.1584,1.1584,1.1584,1.1584,1.1584,0.0,0.0,0.0,0.0,0.0,0.0,0.0,-0.8464,-0.8251,-0.7679,-0.7768,-0.8189,-0.9032,-0.9111,-0.9159,0.0,0.0,0.0,0.0,0.0,0.0,0.0,-1.0363,-1.068,-1.0964,-1.1054,-1.1527,-1.2413,0.0,-1.1486,-1.2199,-1.0716,-0.9734,-0.9187,-0.8237,-0.7518,-0.6988,-0.6512,-0.63,-0.63,-0.63,-0.63,-0.63,-0.63,0.0,0.0,-0.63,-0.5619,-0.4527,-0.3461,-0.2855,-0.2363,-0.1304,-0.1388,-0.1798,-0.1142,-0.0957,-0.0812,-0.0181,0.0,0.0,0.0,0.0,0.0,0.0,0.0,0.0,0.0,0.0,0.0,0.0,0.0,0.0,0.0,0.0,0.0,0.0,0.0,0.0,0.0,0.0,0.0,0.0,0.0,0.0,0.0,0.0,0.0,0.0,0.0,0.0,0.0,0.0,0.0437,0.1384,0.1384,0.2365,0.4286,0.5301,0.6315,0.7291,0.7291,0.7833,0.8703,0.8703,0.8968,0.9511,1.0999,1.1341,1.0968,1.1436,1.1584,1.1584,1.1584,1.1584,1.1584,0.0,0.0,0.0,0.0,0.0,0.0,0.0,-0.7421,-0.7292,-0.6943,-0.6333,-0.6375,-0.7551,-0.809,-0.8417,0.0,0.0,0.0,0.0,0.0,0.0,0.0,0.0,0.0,-0.9381,0.0,0.0,-1.141,-1.0195,0.0,0.0,0.0,0.0,0.0,-0.7576,-0.7038,-0.63,-0.63,-0.63,0.0,0.0,-0.63,-0.63,0.0,0.0,0.0,0.0,-0.5752,-0.4871,-0.381,-0.2929,-0.2115,-0.1051,-0.0381,0.0,0.0,0.0,0.0,0.0,0.0,0.0,0.0,0.0,0.0,0.0,0.0,0.0,0.0,0.0,0.0,0.0,0.0,0.0,0.0,0.0,0.0,0.0,0.0,0.0,0.0,0.0,0.0,0.0,0.0,0.0,0.0,0.0,0.0,0.0,0.0,0.0,0.0,0.0,0.0182,0.062,0.062,0.182,0.4138,0.5265,0.6821,0.8703,0.8266,0.8302,0.8703,0.8703,0.8459,0.8205,1.0613,1.109,1.0403,1.1267,1.1584,1.1584,1.1584,1.1584,1.1584,0.0,0.0,0.0,0.0,0.0,0.0,0.0,-0.6525,-0.6149,-0.5093,-0.4994,-0.5117,-0.5371,-0.5709,-0.6022,0.0,0.0,0.0,0.0,0.0,0.0,0.0,0.0,0.0,0.0,0.0,0.0,-1.0512,-1.008,0.0,0.0,0.0,0.0,0.0,0.0,-0.6396,-0.63,-0.63,0.0,0.0,0.0,0.0,0.0,0.0,0.0,0.0,0.0,-0.6228,-0.599,-0.4925,-0.4573,-0.4415,-0.3348,-0.1609,0.0,0.0,0.0,0.0,0.0,0.0,0.0,0.0,0.0,0.0,0.0,0.0,0.0,0.0,0.0,0.0,0.0,0.0,0.0,0.0,0.0,0.0,0.0,0.0,0.0,0.0,0.0,0.0,0.0,0.0,0.0,0.0,0.0,0.0,0.0,0.0,0.0,0.0,0.0,0.0838,0.2618,0.2618,0.4504,0.8158,0.6568,0.6821,0.8631,0.6857,0.7038,0.8703,0.8703,0.9188,1.012,1.1177,1.109,1.0403,1.1267,1.1584,1.1584,1.1584,1.1584,1.1584,0.0,0.0,0.0,0.0,0.0,0.0,-0.5641,-0.5619,-0.5392,-0.4786,-0.4741,-0.4802,-0.4857,-0.5119,-0.5491,-0.5952,0.0,0.0,0.0,0.0,0.0,0.0,0.0,0.0,0.0,0.0,-0.8236,-0.9186,-0.8382,0.0,0.0,0.0,0.0,0.0,0.0,-0.63,-0.63,-0.63,0.0,0.0,0.0,0.0,0.0,0.0,0.0,0.0,0.0,0.0,-0.6152,-0.5157,-0.4376,-0.3775,-0.3563,-0.2372,-0.1081,-0.1077,-0.0576,0.0,0.0,0.0,0.0,0.0,0.0,0.0,0.0,0.0,0.0,0.0,0.0,0.0,0.0,0.0,0.0,0.0,0.0,0.0,0.0,0.0,0.0,0.0,0.0,0.0,0.0,0.0,0.0,0.0,0.0,0.0,0.0,0.0,0.0,0.0,0.0,0.0365,0.1129,0.1166,0.2509,0.5225,0.5627,0.6821,0.8703,0.9105,0.9723,1.0449,1.0449,1.0057,0.9555,1.1023,1.0738,0.9589,1.1056,1.1584,1.1584,1.1584,1.1584,1.1584,0.0,0.0,0.0,0.0,0.0,-0.5375,-0.5146,-0.5096,-0.5024,-0.4789,-0.4755,-0.4755,-0.4755,-0.502,-0.5369,-0.5842,-0.6078,0.0,0.0,0.0,0.0,0.0,0.0,0.0,0.0,0.0,-0.6877,-0.7785,-0.7015,-0.7114,0.0,0.0,-0.6471,-0.6443,0.0,0.0,0.0,0.0,0.0,0.0,0.0,0.0,0.0,0.0,0.0,0.0,0.0,0.0,0.0,0.0,0.0,-0.319,-0.3446,-0.2733,-0.1791,-0.1801,-0.1192,-0.0465,-0.01,0.0,0.0,0.0,0.0,0.0,0.0,0.0,0.0,0.0,0.0,0.0,0.0,0.0,0.0,0.0,0.0,0.0,0.0,0.0,0.0,0.0,0.0,0.0,0.0,0.0,0.0,0.0,0.0,0.0,0.0,0.0,0.0,0.0,0.0,0.0,0.0,0.0583,0.182,0.3778,0.5736,0.7527,0.9219,1.085,1.1477,1.124,1.1504,1.0718,0.9426,1.0955,1.0684,0.946,1.0988,1.1584,1.1584,1.1584,1.1584,1.1584,0.0,0.0,0.0,0.0,0.0,0.0,-0.5143,-0.5096,-0.5049,-0.4923,-0.4903,-0.4903,-0.4903,-0.5198,-0.5453,-0.56,-0.5842,0.0,0.0,0.0,0.0,0.0,0.0,0.0,0.0,0.0,-0.6306,-0.6326,-0.6443,-0.6443,-0.6326,-0.645,-0.6436,-0.63,0.0,0.0,0.0,0.0,0.0,0.0,0.0,0.0,0.0,0.0,0.0,0.0,0.0,0.0,0.0,0.0,0.0,0.0,0.0,-0.2615,-0.1804,-0.1809,-0.1786,-0.1515,-0.0315,0.0,0.0,0.0,0.0,0.0,0.0,0.0,0.0,0.0,0.0,0.0,0.0,0.0,0.0,0.0,0.0,0.0,0.0,0.0,0.0,0.0,0.0,0.0,0.0,0.0,0.0,0.0,0.0,0.0,0.0,0.0,0.0,0.0,0.0,0.0,0.0,0.1892,0.3851,0.5808,0.7724,0.9227,1.0324,1.1212,1.1138,1.0376,1.1233,1.1104,1.0337,1.1246,1.1084,1.0358,1.1267,1.1584,1.1584,1.1584,1.1584,1.1584,0.0,0.0,0.0,0.0,0.0,0.0,0.0,-0.5375,-0.5237,-0.5065,-0.5029,-0.4995,-0.4916,-0.5198,-0.5453,-0.5593,-0.5842,0.0,0.0,0.0,0.0,0.0,0.0,0.0,0.0,0.0,-0.63,-0.63,-0.6443,-0.6471,-0.645,-0.6471,-0.6471,-0.6443,-0.634,-0.63,0.0,0.0,0.0,0.0,0.0,0.0,-0.6222,0.0,0.0,0.0,0.0,0.0,0.0,0.0,0.0,0.0,0.0,0.0,0.0,-0.181,-0.1227,-0.0481,-0.0097,0.0,0.0,0.0,0.0,0.0,0.0,0.0,0.0,0.0,0.0,0.0,0.0,0.0,0.0,0.0,0.0,0.0,0.0,0.0,0.0,0.0,0.0,0.0,0.0,0.0,0.0,0.0,0.0,0.0,0.0,0.0,0.0,0.0,0.0,0.0656,0.1965,0.2581,0.4537,0.7797,0.8415,0.9256,1.0342,1.1212,1.1131,1.0363,1.1233,1.1111,1.0383,1.1246,1.109,1.0403,1.1267,1.1584,1.1584,1.1584,1.1584,1.1584,0.0,0.0,0.0,0.0,0.0,0.0,0.0,-0.5559,-0.543,-0.5302,-0.525,-0.5182,-0.5094,-0.5321,-0.5525,-0.5657,-0.587,0.0,0.0,0.0,0.0,0.0,0.0,0.0,-0.63,-0.63,-0.6272,-0.6192,-0.6341,-0.6382,-0.6308,-0.6382,-0.6429,-0.6429,-0.634,-0.63,0.0,0.0,0.0,0.0,0.0,0.0,-0.5021,0.0,0.0,0.0,0.0,0.0,0.0,0.0,0.0,0.0,0.0,0.0,0.0,0.0,-0.0581,0.0,0.0,0.0,0.0,0.0,0.0,0.0,0.0,0.0,0.0,0.0,0.0,0.0,0.0,0.0,0.0,0.0,0.0,0.0,0.0,0.0,0.0,0.0,0.0,0.0,0.0,0.0,0.0,0.0,0.0,0.0,0.0,0.0,0.0328,0.1056,0.1093,0.1675,0.2872,0.4356,0.6311,0.8703,0.943,0.9959,1.0342,1.1212,1.1131,1.0363,1.1233,1.1301,0.0,1.1389,1.1287,1.0839,1.1402,1.1584,1.1584,1.1584,1.1584,1.1584,0.0,0.0,0.0,0.0,0.0,0.0,0.0,-0.5698,-0.5603,-0.5603,-0.5498,-0.5426,-0.5426,-0.5545,-0.5677,-0.5806,0.0,0.0,0.0,0.0,0.0,0.0,0.0,0.0,-0.608,-0.6073,-0.5982,-0.5781,-0.5982,-0.5975,-0.5788,-0.5976,-0.608,-0.608,-0.608,-0.608,0.0,0.0,0.0,0.0,-0.3495,-0.3102,0.0,0.0,0.0,0.0,0.0,0.0,0.0,0.0,0.0,0.0,0.0,0.0,0.0,0.0,0.0,0.0,0.0,0.0,0.0,0.0,0.0,0.0,0.0,0.0,0.0,0.0,0.0,0.0,0.0,0.0,0.0,0.0,0.0,0.0,0.0,0.0,0.0,0.0,0.0,0.0,0.0,0.0,0.0,0.0,0.0,0.0,0.0,0.0146,0.102,0.2836,0.3161,0.3306,0.3306,0.6889,0.875,0.8847,1.0712,1.1118,1.0215,1.1179,1.1131,1.0363,1.1233,1.1584,1.1584,1.1584,1.1584,1.1584,1.1584,1.1584,1.1584,1.1584,1.1584,1.1584,0.0,0.0,0.0,0.0,0.0,0.0,0.0,0.0,0.0,0.0,-0.5718,-0.5698,-0.5698,-0.5833,-0.5924,0.0,0.0,0.0,0.0,0.0,0.0,0.0,0.0,0.0,-0.3865,-0.3859,-0.3774,-0.3636,-0.3774,-0.3774,-0.3641,-0.3784,-0.3846,-0.3846,-0.3846,-0.3846,0.0,0.0,0.0,0.0,-0.32,-0.3102,0.0,0.0,0.0,0.0,-0.0746,-0.037,0.0,0.0,0.0,0.0,0.0,0.0,0.0,0.0,0.0,0.0,0.0,0.0,0.0,0.0,0.0,0.0,0.0,0.0,0.0,0.0,0.0,0.0,0.0,0.0,0.0,0.0,0.0,0.0,0.0,0.0,0.0,0.0,0.0,0.0,0.0,0.0,0.0,0.0,0.0,0.0,0.0,0.142,0.2436,0.2872,0.5769,0.7327,0.7327,0.823,0.9113,0.9933,1.1078,1.0759,0.9278,1.0894,1.1131,1.0363,1.1233,1.1584,1.1584,1.1584,1.1584,1.1584,1.1584,1.1584,1.1584,1.1584,1.1584,1.1584,0.0,0.0,0.0,0.0,0.0,0.0,0.0,0.0,0.0,0.0,0.0,-0.5827,-0.5876,-0.5964,0.0,0.0,0.0,0.0,0.0,0.0,0.0,0.0,0.0,-0.369,-0.3102,-0.3092,-0.3071,-0.2991,-0.3071,-0.3056,-0.2991,-0.3066,-0.3102,-0.3102,-0.3102,-0.3102,0.0,0.0,0.0,0.0,-0.1879,0.0,0.0,0.0,0.0,0.0,-0.0205,0.0,0.0,0.0,0.0,0.0,0.0,0.0,0.0,0.0,0.0,0.0,0.0,0.0,0.0,0.0,0.0,0.0,0.0,0.0,0.0,0.0,0.0,0.0,0.0,0.0,0.0,0.0,0.0,0.0,0.0,0.0,0.0,0.0,0.0,0.0,0.0,0.0,0.0,0.0,0.0,0.0401,0.1275,0.2328,0.3705,0.5515,0.7616,0.8703,0.8703,0.9574,1.0115,1.0322,1.1192,1.0894,0.9598,1.0955,1.1355,1.0894,1.09,1.1172,1.155,1.1063,1.1151,1.1584,1.1584,1.1584,1.1584,1.1584,1.1584,1.1584,0.0,0.0,0.0,0.0,0.0,0.0,0.0,0.0,0.0,0.0,0.0,0.0,0.0,0.0,0.0,0.0,0.0,0.0,0.0,0.0,0.0,0.0,-0.2794,-0.2794,-0.2638,-0.2627,-0.263,-0.2633,-0.2619,-0.2622,-0.2633,-0.2632,-0.2626,-0.2618,-0.2618,-0.2618,0.0,0.0,0.0,0.0,-0.0373,0.0,0.0,0.0,0.0,0.0,0.0,0.0,0.0,0.0,0.0,0.0,0.0,0.0,0.0,0.0,0.0,0.0,0.0,0.0,0.0,0.0,0.0,0.0,0.0,0.0,0.0,0.0,0.0,0.0,0.0,0.0,0.0,0.0,0.0,0.0,0.0,0.0,0.0,0.0,0.0,0.0,0.0,0.0,0.0,0.0,0.0292,0.1166,0.28,0.3451,0.5298,0.8595,0.8992,0.9141,0.9141,1.0779,1.1165,1.0322,1.1192,1.1151,1.0342,1.1212,1.1584,1.1536,1.071,1.0799,1.1516,1.0623,1.0779,1.1584,1.1584,1.1584,1.1584,1.1584,1.1584,1.1584,0.0,0.0,0.0,0.0,0.0,0.0,0.0,0.0,0.0,0.0,0.0,0.0,0.0,0.0,0.0,0.0,0.0,0.0,0.0,0.0,0.0,-0.051,-0.1352,-0.1411,-0.049,-0.0469,-0.0474,-0.0485,-0.0484,-0.0484,-0.0485,-0.0485,-0.048,-0.047,-0.047,-0.047,-0.0471,0.0,0.0,-0.0235,-0.0059,0.0,0.0,0.0,0.0,0.0,0.0,0.0,0.0,0.0,0.0,0.0,0.0,0.0,0.0,0.0,0.0,0.0,0.0,0.0,0.0,0.0,0.0,0.0,0.0,0.0,0.0,0.0,0.0,0.0,0.0,0.0,0.0,0.0,0.0,0.0,0.0,0.0,0.0,0.0,0.0,0.0,0.0,0.0,0.0,0.0,0.1529,0.2581,0.2872,0.6022,0.8085,0.8667,1.0305,1.1145,1.1145,1.144,1.1165,1.0322,1.1192,1.1151,1.0342,1.1212,1.1584,1.1577,1.145,1.147,1.1606,1.1408,1.1435,1.1584,1.1584,1.1584,1.1584,1.1584,1.1584,1.164,0.0,0.0,0.0,0.0,0.0,0.0,0.0,0.0,0.0,0.0,0.0,0.0,0.0,0.0,0.0,0.0,0.0,0.0,0.0,0.0,-0.051,-0.002,-0.0477,-0.0497,-0.002,0.0,0.0,0.0,0.0,0.0,0.0,0.0,0.0,0.0,0.0,0.0,0.0,0.0,0.0,0.0,0.0,0.0,0.0,0.0,0.0,0.0,0.0,0.0,0.0,0.0,0.0,0.0,0.0,0.0,0.0,0.0,0.0,0.0,0.0,0.0,0.0,0.0,0.0,0.0,0.0,0.0,0.0,0.0,0.0,0.0,0.0,0.0,0.0,0.0,0.0,0.0,0.0,0.0,0.0,0.0,0.0,0.0,0.0,0.095,0.1566,0.1566,0.3381,0.4939,0.5986,0.7724,0.9177,1.0233,1.1145,1.1584,1.1584,1.1584,1.1165,1.0322,1.1192,1.1151,1.0342,1.1212,1.1584,1.1586,1.0982,1.1056,1.1572,1.0968,1.107,1.1584,1.1584,1.1631,1.1705,1.183,1.1857,1.187,0.0,0.0,0.0,0.0,0.0,0.0,0.0,0.0,0.0,0.0,0.0,0.0,0.0,0.0,0.0,0.0,0.0,0.0,0.0,0.0,0.0,0.0,0.0,0.0,0.0,0.0,0.0,0.0,0.0,0.0,0.0,0.0,0.0,0.0,0.0,0.0,0.0,0.0,0.0,0.0,0.0,0.0,0.0,0.0,0.0,0.0,0.0,0.0,0.0,0.0,0.0,0.0,0.0,0.0,0.0,0.0,0.0,0.0,0.0,0.0,0.0,0.0,0.0,0.0,0.0,0.0,0.0,0.0,0.0,0.0,0.0,0.0,0.0,0.0,0.0,0.0,0.0,0.0,0.0,0.0,0.0,0.0173,0.0642,0.2013,0.309,0.356,0.5373,0.7147,0.8631,0.9136,1.0047,1.1548,1.1584,1.1584,1.1584,1.1584,1.1274,1.0602,1.1294,1.126,1.0616,1.1307,1.1584,1.1536,1.0732,1.084,1.1558,1.0718,1.088,1.1631,1.1631,1.1755,1.1898,1.2057,1.2125,1.2152,0.0,0.0,0.0,0.0,0.0,0.0,0.0,0.0,0.0,0.0,0.0,0.0,0.0,0.0,0.0,0.0,0.0,0.0,0.0,0.0,0.0,0.0,0.0,0.0,0.0,0.0,0.0,0.0,0.0,0.0,0.0,0.0,0.0,0.0,0.0,0.0,0.0,0.0,0.0,0.0,0.0,0.0,0.0,0.0,0.0,0.0,0.0,0.0,0.0,0.0,0.0,0.0,0.0,0.0,0.0,0.0,0.0,0.0,0.0,0.0,0.0,0.0,0.0,0.0,0.0,0.0,0.0,0.0,0.0,0.0,0.0,0.0,0.0,0.0,0.0,0.0,0.0,0.0,0.0,0.0,0.0,0.0725,0.2527,0.2828,0.3633,0.5446,0.7399,0.8559,0.8703,1.0413,1.1476,1.1584,1.1584,1.1584,1.1584,1.1584,1.1586,1.1525,1.1586,1.1586,1.1525,1.1556,1.1584,1.1613,1.1502,1.1516,1.1577,1.1502,1.159,1.178,1.178,1.1911,1.2084,1.2098,1.2186,1.2277,0.0,0.0,0.0,0.0,0.0,0.0,0.0,0.0,0.0,0.0,0.0,0.0,0.0,0.0,0.0,0.0,0.0,0.0,0.0,0.0,0.0,0.0,0.0,0.0,0.0,0.0,0.0,0.0,0.0,0.0,0.0,0.0,0.0,0.0,0.0,0.0,0.0,0.0,0.0,0.0,0.0,0.0,0.0,0.0,0.0,0.0,0.0,0.0,0.0,0.0,0.0,0.0,0.0,0.0,0.0,0.0,0.0,0.0,0.0,0.0,0.0,0.0,0.0,0.0,0.0,0.0,0.0,0.0,0.0,0.0,0.0,0.0,0.0,0.0,0.0,0.0,0.0,0.0,0.0,0.0,0.1056,0.211,0.2836,0.5081,0.6817,0.7544,0.9394,1.0485,1.0485,1.1217,1.1584,1.1584,1.1584,1.1584,1.1584,1.1584,1.1584,1.1584,1.1584,1.1584,1.1584,1.1584,1.1584,1.1584,1.1584,1.1631,1.1712,1.1712,1.1837,1.1986,1.2081,1.2155,1.2216,1.2305,1.2372,1.242,0.0,0.0,0.0,0.0,0.0,0.0,0.0,0.0,0.0,0.0,0.0,0.0,0.0,0.0,0.0,0.0,0.0,0.0,0.0,0.0,0.0,0.0,0.0,0.0,0.0,0.0,0.0,0.0,0.0,0.0,0.0,0.0,0.0,0.0,0.0,0.0,0.0,0.0,0.0,0.0,0.0,0.0,0.0,0.0,0.0,0.0,0.0,0.0,0.0,0.0,0.0,0.0,0.0,0.0,0.0,0.0,0.0,0.0,0.0,0.0,0.0,0.0,0.0,0.0,0.0,0.0,0.0,0.0,0.0,0.0,0.0,0.0,0.0,0.0,0.0,0.0,0.0,0.051,0.0911,0.0911,0.2619,0.4068,0.4682,0.7142,0.8956,0.9574,1.0851,1.1584,1.1584,1.1584,1.1584,1.1584,1.1584,1.1584,1.1584,1.1584,1.1584,1.1584,1.1584,1.1584,1.1584,1.1584,1.1611,1.1651,1.1651,1.1732,1.1904,1.1904,1.1993,1.2186,1.2298,1.2359,1.2372,1.2467,1.2501,1.2501,0.0,0.0,0.0,0.0,0.0,0.0,0.0,0.0,0.0,0.0,0.0,0.0,0.0,0.0,0.0,0.0,0.0,0.0,0.0,0.0,0.0,0.0,0.0,0.0,0.0,0.0,0.0,0.0,0.0,0.0,0.0,0.0,0.0,0.0,0.0,0.0,0.0,0.0,0.0,0.0,0.0,0.0,0.0,0.0,0.0,0.0,0.0,0.0,0.0,0.0,0.0,0.0,0.0,0.0,0.0,0.0,0.0,0.0,0.0,0.0,0.0,0.0,0.0,0.0,0.0,0.0,0.0,0.0,0.0,0.0,0.0,0.0,0.0,0.0,0.0,0.0,0.0036,0.1675,0.2909,0.2909,0.4649,0.6568,0.8523,0.8703,0.9538,1.1476,1.1584,1.1584,1.1584,1.1584,1.1584,1.1584,1.1584,1.1584,1.1584,1.1584,1.1584,1.1584,1.1584,1.1584,1.1584,1.1584,1.1665,1.1793,1.1793,1.1925,1.2098,1.2104,1.2193,1.2305,1.2447,1.2501,1.2501,1.2501,1.2501,1.2501,0.0,0.0,0.0,0.0,0.0,0.0,0.0,0.0,0.0,0.0,0.0,0.0,0.0,0.0,0.0,0.0,0.0,0.0,0.0,0.0,0.0,0.0,0.0,0.0,0.0,0.0,0.0,0.0,0.0,0.0,0.0,0.0,0.0,0.0,0.0,0.0,0.0,0.0,0.0,0.0,0.0,0.0,0.0,0.0,0.0,0.0,0.0,0.0,0.0,0.0,0.0,0.0,0.0,0.0,0.0,0.0,0.0,0.0,0.0,0.0,0.0,0.0,0.0,0.0,0.0,0.0,0.0,0.0,0.0,0.0,0.0,0.0,0.0,0.0,0.0,0.0462,0.185,0.2545,0.3415,0.4794,0.664,0.8049,0.8631,0.9939,1.0995,1.1548,1.1584,1.1584,1.1584,1.1584,1.1584,1.1584,1.1584,1.1584,1.1584,1.1584,1.1584,1.1584,1.1685,1.1732,1.1732,1.1732,1.185,1.1993,1.1993,1.2118,1.2268,1.2332,1.24,1.244,1.2488,1.2501,1.2501,1.2501,1.2501,1.2501,0.0,0.0,0.0,0.0,0.0,0.0,0.0,0.0,0.0,0.0,0.0,0.0,0.0,0.0,0.0,0.0,0.0,0.0,0.0,0.0,0.0,0.0,0.0,0.0,0.0,0.0,0.0,0.0,0.0,0.0,0.0,0.0,0.0,0.0,0.0,0.0,0.0,0.0,0.0,0.0,0.0,0.0,0.0,0.0,0.0,0.0,0.0,0.0,0.0,0.0,0.0,0.0,0.0,0.0,0.0,0.0,0.0,0.0,0.0,0.0,0.0,0.0,0.0,0.0,0.0,0.0,0.0,0.0,0.0,0.0,0.0,0.0,0.0253,0.1024,0.1147,0.182,0.3778,0.4718,0.5624,0.6821,0.8667,0.9867,0.9867,1.0923,1.1584,1.1584,1.1584,1.1584,1.1584,1.1584,1.1584,1.1584,1.1584,1.1584,1.1584,1.1584,1.1647,1.1665,1.1753,1.1861,1.2013,1.1952,1.2006,1.2193,1.2247,1.2291,1.2379,1.2467,1.2501,1.2501,1.2501,1.2501,1.2501,1.2501,1.2501,1.2501,0.0,0.0,0.0,0.0,0.0,0.0,0.0,0.0,0.0,0.0,0.0,0.0,0.0,0.0,0.0,0.0,0.0,0.0,0.0,0.0,0.0,0.0,0.0,0.0,0.0,0.0,0.0,0.0,0.0,0.0,0.0,0.0,0.0,0.0,0.0,0.0,0.0,0.0,0.0,0.0,0.0,0.0,0.0,0.0,0.0,0.0,0.0,0.0,0.0,0.0,0.0,0.0,0.0,0.0,0.0,0.0,0.0,0.0046,0.0207,0.0209,0.017,0.0229,0.011,0.0,0.0,0.0,0.0,0.0,0.0,0.0,0.0,0.0146,0.0838,0.2618,0.3052,0.3851,0.5808,0.758,0.8776,0.8956,1.0521,1.1584,1.1584,1.1584,1.1584,1.1584,1.1584,1.1584,1.1584,1.1584,1.1584,1.1584,1.1584,1.1584,1.1584,1.1597,1.1665,1.1793,1.182,1.202,1.2284,1.2186,1.2207,1.2318,1.2447,1.2501,1.2501,1.2501,1.2501,1.2501,1.2501,1.2501,1.2501,1.2501,1.2501,1.2501,0.0,0.0,0.0,0.0,0.0,0.0,0.0,0.0,0.0,0.0,0.0,0.0,0.0,0.0,0.0,0.0,0.0,0.0,0.0,0.0,0.0,0.0,0.0,0.0,0.0,0.0,0.0,0.0,0.0,0.0,0.0,0.0,0.0,0.0,0.0,0.0,0.0,0.0,0.0,0.0,0.0,0.0,0.0,0.0,0.0,0.0,0.0,0.0,0.0,0.0,0.0,0.0,0.0,0.0,0.0,0.0,0.0,0.0313,0.1732,0.1774,0.1521,0.1994,0.1055,0.0,0.0,0.0,0.0,0.0,0.0,0.0,0.0,0.1239,0.24,0.2836,0.4177,0.5844,0.7797,0.8451,0.9285,1.0779,1.1361,1.1584,1.1584,1.1584,1.1584,1.1584,1.1584,1.1584,1.1584,1.1584,1.1584,1.1584,1.1584,1.1584,1.1584,1.1692,1.1766,1.18,1.2074,1.223,1.2291,1.2257,1.2318,1.2461,1.2488,1.2501,1.2501,1.2501,1.2501,1.2501,1.2501,1.2501,1.2501,1.2501,1.2501,1.2501,0.0,0.0,0.0,0.0,0.0,0.0,0.0,0.0,0.0,0.0,0.0,0.0,0.0,0.0,0.0,0.0,0.0,0.0,0.0,0.0,0.0,0.0,0.0,0.0,0.0,0.0,0.0,0.0,0.0,0.0,0.0,0.0,0.0,0.0,0.0,0.0,0.0,0.0,0.0,0.0,0.0,0.0,0.0,0.0,0.0,0.0,0.0,0.0,0.0,0.0,0.0,0.0,0.0,0.0,0.0,0.0,0.0,0.0286,0.1656,0.1497,0.1009,0.1324,0.0711,0.0,0.0,0.0,0.028,0.1194,0.1382,0.1398,0.1375,0.2981,0.4576,0.5515,0.6528,0.7873,0.9831,1.0083,1.0449,1.1476,1.1584,1.1584,1.1584,1.1584,1.1584,1.1584,1.1584,1.1584,1.1584,1.1584,1.1584,1.1584,1.1584,1.1617,1.1685,1.1759,1.1868,1.2054,1.2216,1.2325,1.2393,1.2393,1.2433,1.2501,1.2501,1.2501,1.2501,1.2501,1.2501,1.2501,1.2501,1.2501,1.2501,1.2501,1.2501,1.2501,0.0,0.0,0.0,0.0,0.0,0.0,0.0,0.0,0.0,0.0,0.0,0.0,0.0,0.0,0.0,0.0,0.0,0.0,0.0,0.0,0.0,0.0,0.0,0.0,0.0,0.0,0.0,0.0,0.0,0.0,0.0,0.0,0.0,0.0,0.0,0.0,0.0,0.0,0.0,0.0,0.0,0.0,0.0,0.0,0.0,0.0,0.0,0.0,0.0,0.0,0.0,0.0,0.0,0.0,0.0,0.0,0.0,0.0228,0.1259,0.1018,0.0435,0.0349,0.0169,0.0105,0.0439,0.0486,0.1042,0.301,0.3125,0.3016,0.3342,0.4975,0.6821,0.8451,0.8992,0.9759,1.1361,1.1584,1.1584,1.1584,1.1584,1.1584,1.1584,1.1584,1.1584,1.1584,1.1584,1.1584,1.1584,1.1584,1.1584,1.1584,1.1604,1.1678,1.1793,1.1847,1.204,1.2291,1.2318,1.2386,1.2501,1.2501,1.2501,1.2501,1.2501,1.2501,1.2501,1.2501,1.2501,1.2501,1.2501,1.2501,1.2501,1.2501,1.2522,1.2542,0.0,0.0,0.0,0.0,0.0,0.0,0.0,0.0,0.0,0.0,0.0,0.0,0.0,0.0,0.0,0.0,0.0,0.0,0.0,0.0,0.0,0.0,0.0,0.0,0.0,0.0,0.0,0.0,0.0,0.0,0.0,0.0,0.0,0.0,0.0,0.0,0.0,0.0,0.0,0.0,0.0,0.0,0.0,0.0,0.0,0.0,0.0,0.0,0.0,0.0,0.0,0.0,0.0,0.0,0.0,0.0,0.0,0.038,0.2045,0.2424,0.2211,0.168,0.0758,0.0439,0.2137,0.2524,0.3051,0.5027,0.4068,0.3415,0.5084,0.7002,0.8415,0.8667,1.0119,1.1289,1.1548,1.1584,1.1584,1.1584,1.1584,1.1584,1.1584,1.1584,1.1584,1.1584,1.1584,1.1584,1.1584,1.1584,1.1584,1.1584,1.1705,1.1773,1.1793,1.2094,1.225,1.2291,1.2413,1.2481,1.2501,1.2501,1.2501,1.2501,1.2501,1.2501,1.2501,1.2501,1.2501,1.2501,1.2501,1.2501,1.2501,1.2501,1.2583,1.2659,0.0,0.0,0.0,0.0,0.0,0.0,0.0,0.0,0.0,0.0,0.0,0.0,0.0,0.0,0.0,0.0941,0.1008,0.1,0.1,0.0366,0.0,0.0,0.0,0.0,0.0,0.0,0.0,0.0,0.0,0.0,0.0,0.0,0.0,0.0,0.0,0.0,0.0,0.0,0.0,0.0,0.0,0.0,0.0,0.0,0.0,0.0,0.0,0.0,0.0,0.0,0.0,0.0,0.0,0.0,0.0,0.0,0.0,0.0406,0.2286,0.2854,0.3116,0.3866,0.3013,0.2447,0.4125,0.421,0.4587,0.6943,0.6749,0.642,0.7255,0.8997,1.0305,1.0305,1.1038,1.1584,1.1584,1.1584,1.1584,1.1584,1.1584,1.1584,1.1584,1.1584,1.1584,1.1584,1.1584,1.1584,1.1584,1.1584,1.1617,1.1698,1.1759,1.1874,1.2088,1.2223,1.2332,1.2413,1.2474,1.2501,1.2501,1.2501,1.2501,1.2501,1.2501,1.2501,1.2501,1.2501,1.2501,1.2501,1.2501,1.2556,1.2591,1.2591,1.2725,1.2861,0.0,0.0,0.0,0.0,0.0,0.0,0.0,0.0,0.0,0.0,0.0,0.0,0.0,0.0,0.0,0.0,0.203,0.1695,0.1369,0.05,0.0,0.0,0.0,0.0,0.0,0.0,0.0,0.0,0.0,0.0,0.0,0.0,0.0,0.0,0.0,0.0,0.0,0.0,0.0,0.0,0.0,0.0,0.0,0.0,0.0187,0.0,0.0,0.0192,0.0408,0.0097,0.0,0.0,0.0,0.0,0.0,0.0,0.0,0.0324,0.1776,0.252,0.3186,0.4462,0.4233,0.4112,0.5617,0.5705,0.6154,0.8655,0.9319,0.943,0.943,1.0635,1.1584,1.1584,1.1584,1.1584,1.1584,1.1584,1.1584,1.1584,1.1584,1.1584,1.1584,1.1584,1.1584,1.1584,1.1584,1.1584,1.1584,1.1584,1.1651,1.1786,1.187,1.202,1.2291,1.2325,1.24,1.2501,1.2501,1.2501,1.2501,1.2501,1.2501,1.2501,1.2501,1.2501,1.2501,1.2501,1.2522,1.2562,1.2562,1.2651,1.2786,1.2786,1.2881,1.3057,0.0,0.0,0.0,0.0,0.0,0.0,0.0,0.0,0.0,0.0,0.0,0.0,0.3579,0.3608,0.3631,0.37,0.2647,0.1452,0.0175,0.0044,0.0,0.0,0.0,0.0,0.0,0.0,0.0,0.0,0.0,0.0,0.0,0.0,0.0,0.0,0.0,0.0,0.0,0.0,0.0,0.0,0.0,0.0,0.0,0.0,0.0717,0.1556,0.0411,0.0734,0.1521,0.0375,0.0,0.0,0.0,0.0,0.0,0.0,0.0,0.0,0.0117,0.1188,0.2192,0.2037,0.3005,0.4408,0.6089,0.6975,0.8019,1.0006,1.0946,1.144,1.144,1.1548,1.1584,1.1584,1.1584,1.1584,1.1584,1.1584,1.1584,1.1584,1.1584,1.1584,1.1584,1.1584,1.1584,1.1584,1.1584,1.1584,1.1584,1.1584,1.1651,1.1786,1.1972,1.2166,1.2291,1.2427,1.2494,1.2501,1.2501,1.2501,1.2501,1.2501,1.2501,1.2501,1.2501,1.2501,1.2501,1.2501,1.2589,1.2679,1.2679,1.2813,1.2989,1.2989,1.3077,1.32,0.0,0.0,0.0,0.0,0.0,0.0,0.0,0.0,0.0,0.0,0.0,0.0,0.0,0.1372,0.1684,0.2444,0.2119,0.1664,0.1197,0.0427,0.0,0.0,0.0,0.0,0.0,0.0,0.0,0.0,0.0,0.0,0.0,0.0,0.0,0.0,0.0,0.0,0.0,0.0,0.0,0.0101,0.126,0.1035,0.0213,0.2162,0.2688,0.2382,0.2324,0.2944,0.3528,0.1761,0.128,0.1254,0.0288,0.0,0.0,0.0,0.0,0.0492,0.2665,0.3317,0.3977,0.6605,0.6781,0.6704,0.8253,0.8679,0.8952,0.966,1.0758,1.147,1.0982,1.1294,1.1584,1.1584,1.1584,1.1584,1.1584,1.1584,1.1584,1.1584,1.1584,1.1584,1.1584,1.1584,1.1584,1.1584,1.1084,1.1009,1.1556,1.1158,1.1226,1.1959,1.2166,1.2277,1.2427,1.2474,1.2501,1.2501,1.2501,1.2501,1.2501,1.2501,1.2501,1.2508,1.2603,1.2651,1.2651,1.2651,1.2739,1.2874,1.2874,1.3009,1.3139,1.3139,1.3193,1.3315,0.0,0.0,0.0,0.0,0.0,0.0,0.0,0.0,0.0,0.3207,0.0,0.0,0.0,0.0,0.1874,0.1864,0.2644,0.2784,0.192,0.1527,0.1143,0.07,0.0662,0.0454,0.0,0.0,0.0,0.0,0.0,0.0,0.0,0.0,0.0,0.0,0.0,0.0,0.0,0.0,0.0,0.0135,0.1698,0.1794,0.1234,0.3607,0.4344,0.4126,0.4283,0.4862,0.5309,0.37,0.3095,0.2871,0.1986,0.1626,0.1505,0.1433,0.1402,0.19,0.4129,0.4773,0.5482,0.8195,0.8385,0.8099,0.8893,0.9313,0.9503,0.943,1.0575,1.1463,1.0962,1.128,1.1584,1.1584,1.1584,1.1584,1.1584,1.1584,1.1584,1.1584,1.1584,1.1584,1.1584,1.1584,1.1584,1.1584,1.1063,1.0989,1.1586,1.1185,1.1307,1.2152,1.2284,1.2406,1.2501,1.2501,1.2501,1.2501,1.2501,1.2501,1.2501,1.2501,1.2528,1.2583,1.2645,1.2693,1.2693,1.2786,1.2895,1.3071,1.3071,1.3159,1.3247,1.3247,1.3315,1.3403,0.0,0.0,0.0,0.0,0.0,0.0,0.0,0.0,0.579,0.5616,0.0,0.0,0.0,0.0,0.0,0.2256,0.432,0.4694,0.2212,0.3281,0.3423,0.2119,0.205,0.1444,0.0147,0.0072,0.0073,0.0076,0.0025,0.0,0.0,0.0,0.0,0.0,0.0,0.0,0.0,0.0,0.0,0.0094,0.1257,0.217,0.295,0.4208,0.5582,0.6741,0.6123,0.6372,0.686,0.6107,0.5369,0.4826,0.5011,0.4812,0.0,0.0,0.0,0.0,0.0,0.0,0.0,0.6152,0.7295,0.8342,0.7746,0.8743,0.9707,0.9415,1.0548,1.1556,1.1586,1.1606,1.1584,1.1584,1.1584,1.1584,1.1584,1.1584,1.1584,1.1584,1.1584,1.1584,1.1584,1.1584,1.1584,1.1584,1.1592,1.1556,1.159,1.1726,1.1986,1.2284,1.2427,1.2501,1.2501,1.2501,1.2501,1.2501,1.2501,1.2501,1.2508,1.2508,1.2589,1.2699,1.2699,1.2706,1.2713,1.2948,1.3091,1.322,1.322,1.3268,1.3403,1.3403,1.3403,1.3403,0.0,0.0,0.0,0.0,0.0,0.5812,0.6127,0.6624,0.6634,0.0,0.0,0.0,0.4114,0.4244,0.4172,0.3495,0.4084,0.4202,0.3491,0.3802,0.3833,0.347,0.3439,0.3318,0.3053,0.2002,0.1501,0.1593,0.0515,0.0,0.0,0.0,0.0,0.0,0.0,0.0,0.0,0.0,0.0,0.025,0.3291,0.3009,0.1388,0.668,0.722,0.5447,0.7624,0.8605,0.8659,0.7508,0.6906,0.643,0.5076,0.0,0.0,0.0,0.0,0.0,0.5387,0.0,0.0,0.0,0.0,0.0,0.7932,0.8459,0.896,0.8771,0.9924,1.0934,1.0826,1.1253,1.1584,1.1584,1.1584,1.1584,1.1584,1.1584,1.1584,1.1584,1.1584,1.1584,1.1584,1.1584,1.1584,1.1584,1.1016,1.0982,1.1698,1.202,1.225,1.2433,1.2481,1.2501,1.2501,1.2501,1.2501,1.2501,1.2501,1.2562,1.2625,1.2625,1.2752,1.2901,1.3003,1.3051,1.3051,1.3139,1.32,1.3336,1.3336,1.3363,1.3403,1.3403,1.3403,1.3403,0.0,0.0,0.0,0.0,0.0,0.6582,0.6636,0.7208,0.7201,0.0,0.0,0.0,0.4899,0.4793,0.4623,0.4043,0.5096,0.5288,0.4083,0.4606,0.4426,0.3217,0.317,0.2937,0.2456,0.1618,0.1203,0.128,0.041,0.0,0.0,0.0,0.0,0.0,0.0,0.0,0.0,0.0,0.0,0.0291,0.3755,0.4063,0.2983,0.8276,0.9,0.7434,0.9553,1.0249,1.0051,0.9461,0.8979,0.8374,0.7096,0.6535,0.0,0.0,0.0,0.0,0.0,0.0,0.0,0.8215,0.0,0.0,0.7891,0.8561,0.9142,0.8859,1.0005,1.0955,1.0487,1.0765,1.1063,1.1063,1.1063,1.1192,1.1565,1.1584,1.1584,1.1584,1.1584,1.1584,1.1584,1.1584,1.1584,1.1584,1.1192,1.1246,1.1986,1.2196,1.2352,1.2494,1.2501,1.2501,1.2501,1.2501,1.2501,1.2501,1.2569,1.2605,1.2693,1.28,1.2908,1.3098,1.318,1.3248,1.3268,1.3268,1.3322,1.3403,1.3403,1.3403,1.3403,1.3403,1.3403,1.3403,0.0,0.0,0.5122,0.437,0.5209,0.6044,0.6149,0.7192,0.7525,0.0,0.7155,0.7396,0.6209,0.6187,0.5792,0.4614,0.6841,0.7224,0.466,0.5765,0.5391,0.2806,0.2669,0.2125,0.0959,0.0767,0.071,0.071,0.0585,0.0509,0.0508,0.0499,0.0502,0.0495,0.0504,0.0508,0.051,0.0514,0.0488,0.0678,0.3511,0.5103,0.6125,0.9261,1.0496,1.0625,1.1339,1.1272,1.0928,1.136,1.1016,1.029,0.9897,0.9379,0.8967,0.907,0.8798,0.0,0.0,0.0,0.0,0.0,0.8362,0.0,0.7767,0.875,0.9663,0.9254,1.0297,1.1063,1.0365,1.0229,1.0229,1.0229,1.0233,1.048,1.1348,1.1558,1.155,1.1484,1.1523,1.1584,1.1584,1.1584,1.1584,1.1584,1.1732,1.1986,1.2277,1.2305,1.2372,1.2501,1.2501,1.2501,1.2501,1.2501,1.2501,1.2501,1.2657,1.2699,1.272,1.2915,1.3105,1.3241,1.3241,1.3275,1.3403,1.3403,1.3403,1.3403,1.3403,1.3403,1.3403,1.3403,1.3403,1.3403,0.0,0.7107,0.7063,0.6886,0.7064,0.7266,0.7298,0.7519,0.7617,0.7456,0.7875,0.8091,0.7831,0.7929,0.7904,0.7646,0.8144,0.8229,0.7668,0.7807,0.766,0.7087,0.6912,0.6788,0.6688,0.5634,0.5113,0.5222,0.4156,0.3624,0.3625,0.3625,0.3631,0.3619,0.3632,0.3634,0.3612,0.3628,0.3473,0.3354,0.4929,0.5634,0.6219,0.9933,1.0058,0.854,1.0801,1.1172,1.0629,1.0934,1.0928,1.063,0.9754,0.9388,0.9184,0.8634,0.8403,0.0,0.0,0.0,0.0,0.806,0.8081,0.0,0.7952,0.8175,0.8507,0.8879,0.921,0.9528,0.9825,0.991,0.991,0.991,0.9713,0.9818,1.0453,1.1165,1.1355,1.0629,1.1179,1.1584,1.1584,1.1584,1.1584,1.1584,1.1864,1.2132,1.2277,1.24,1.2474,1.2501,1.2501,1.2501,1.2501,1.2501,1.2501,1.2501,1.2657,1.2793,1.2962,1.3105,1.3214,1.3356,1.3356,1.337,1.3403,1.3403,1.3403,1.3403,1.3403,1.3403,1.3403,1.3403,1.3403,1.3403,0.7597,0.7597,0.7624,0.7692,0.7706,0.776,0.7934,0.7961,0.8008,0.8126,0.8308,0.8403,0.8403,0.8403,0.843,0.8498,0.8505,0.8216,0.7544,0.7496,0.7176,0.645,0.6314,0.631,0.6395,0.5749,0.543,0.5514,0.4817,0.4496,0.451,0.4496,0.4374,0.4169,0.4385,0.4378,0.4179,0.4409,0.4956,0.576,0.6581,0.6813,0.7049,1.0338,1.076,0.9772,1.1111,1.1375,1.1023,1.0799,1.0786,1.0806,1.0236,0.9741,0.9322,0.8873,0.8526,0.8281,0.8174,0.8074,0.7988,0.7988,0.7988,0.0,0.0,0.8142,0.85,0.8656,0.9041,0.9305,0.9184,0.915,0.915,0.915,0.8906,0.8845,0.9254,1.0243,1.0948,1.0948,1.1348,1.1584,1.1584,1.1584,1.1681,1.183,1.2016,1.22,1.2386,1.2461,1.2501,1.2501,1.2501,1.2501,1.2501,1.2501,1.2542,1.2617,1.2773,1.2922,1.3111,1.322,1.3329,1.3403,1.3403,1.3403,1.3403,1.3403,1.3403,1.3403,1.3403,1.3403,1.3403,1.3403,1.3403,1.3403,0.7726,0.7753,0.7807,0.7923,0.7943,0.8024,0.8301,0.8335,0.8389,0.8532,0.8505,0.8532,0.8682,0.8471,0.8389,0.8621,0.8634,0.8141,0.6953,0.7083,0.6652,0.5364,0.5293,0.5275,0.5283,0.5299,0.5297,0.5302,0.5323,0.5358,0.5358,0.5354,0.5137,0.4783,0.5097,0.5114,0.4938,0.5237,0.6331,0.7903,0.8382,0.8372,0.8361,1.0719,1.1529,1.1469,1.1586,1.1584,1.1511,1.0812,1.0711,1.0874,1.0637,0.9998,0.9279,0.9206,0.8716,0.8219,0.8281,0.816,0.7988,0.7988,0.7988,0.7952,0.0,0.0,0.0,0.8445,0.8974,0.923,0.8533,0.8397,0.8384,0.8357,0.8126,0.8027,0.8342,0.9294,1.0181,1.0819,1.0995,1.1111,1.1145,1.1274,1.1558,1.2064,1.2098,1.2227,1.2488,1.2501,1.2501,1.2501,1.2501,1.2501,1.2501,1.2528,1.261,1.2693,1.2915,1.3105,1.322,1.3329,1.3403,1.3403,1.3403,1.3403,1.3403,1.3403,1.3403,1.3403,1.3403,1.3403,1.3403,1.3403,1.3403,1.3403,0.8219,0.8321,0.841,0.843,0.843,0.8444,0.8478,0.8485,0.8539,0.8662,0.8459,0.8628,0.9395,0.8784,0.8512,0.9084,0.9132,0.8885,0.8315,0.8798,0.8839,0.8256,0.8122,0.8045,0.8058,0.8154,0.8211,0.8225,0.8348,0.8384,0.8384,0.8404,0.8384,0.8299,0.8013,0.8263,0.8932,0.8542,0.8836,0.9581,1.028,1.0346,1.0109,1.1176,1.134,1.1043,1.1442,1.1584,1.1509,1.1022,1.0887,1.0786,1.0233,0.9575,0.898,0.9152,0.8566,0.7923,0.8219,0.816,0.7988,0.7988,0.7988,0.7982,0.7973,0.0,0.8108,0.8074,0.0,0.8182,0.8081,0.0,0.0,0.7909,0.7753,0.7889,0.8567,0.8676,0.8628,0.8439,0.8892,0.9264,0.9451,1.007,1.0921,1.2016,1.2098,1.2227,1.2488,1.2501,1.2501,1.2501,1.2501,1.2501,1.2501,1.2637,1.2672,1.2693,1.3017,1.32,1.322,1.3329,1.3403,1.3403,1.3403,1.3403,1.3403,1.3403,1.3403,1.3403,1.3403,1.3403,1.3403,1.3403,1.3403,1.3403,0.8417,0.8464,0.8505,0.8505,0.8505,0.854,0.8716,0.8893,0.8967,0.8831,0.8811,0.9022,0.9551,0.9191,0.9186,0.9784,0.9727,0.9632,0.956,0.9517,0.0,0.9239,0.892,0.8723,0.8723,0.8784,0.8818,0.8818,0.8879,0.8912,0.8912,0.8912,0.877,0.854,0.8383,0.8621,0.9176,0.8987,0.9352,1.01,1.0204,1.029,1.041,1.128,1.1469,1.1272,1.1056,1.1246,1.1443,1.0297,1.0541,1.1103,0.9988,0.9535,0.9453,0.9662,0.8941,0.8226,0.8791,0.8832,0.8689,0.8689,0.8621,0.8534,0.8534,0.8238,0.7988,0.7988,0.0,0.0,0.0,0.0,0.0,0.0,0.7746,0.774,0.8133,0.7885,0.802,0.8933,0.9197,0.9483,0.992,0.9777,1.0084,1.1111,1.1314,1.1435,1.1556,1.2176,1.2501,1.2501,1.2501,1.2542,1.263,1.2659,1.2813,1.299,1.3112,1.3261,1.3308,1.337,1.3403,1.3403,1.3403,1.3403,1.3403,1.3403,1.3403,1.3403,1.3403,1.3403,1.3403,1.3403,1.3458,1.37,0.8601,0.0,0.8682,0.8615,0.8668,0.873,0.8885,0.9191,0.9334,0.9169,0.9164,0.9376,0.9856,0.934,0.9293,1.0141,0.9974,0.992,1.0141,0.993,0.9795,0.9795,0.9217,0.8967,0.9095,0.8973,0.8912,0.8912,0.8912,0.8912,0.8912,0.8912,0.8737,0.8445,0.8349,0.852,0.8919,0.9041,0.9571,1.0315,1.0304,1.0446,1.0704,1.1233,1.1475,1.1545,1.0995,1.1151,1.1416,1.0093,1.0439,1.1212,1.0154,0.9815,0.9852,1.0202,0.9539,0.8798,0.9395,0.9456,0.9328,0.9165,0.9015,0.8865,0.8703,0.8298,0.7988,0.7988,0.7988,0.0,0.0,0.0,0.0,0.0,0.0,0.774,0.7801,0.754,0.7817,0.9041,0.9232,0.9429,0.9897,0.9492,0.9485,1.0195,1.065,1.0914,1.0914,1.1938,1.2501,1.2501,1.2501,1.2576,1.2686,1.2733,1.2922,1.3214,1.3254,1.3295,1.3403,1.3403,1.3403,1.3403,1.3403,1.3403,1.3403,1.3403,1.3424,1.3464,1.3464,1.386,1.4465,1.4421,1.4508,1.4934,0.8865,0.9035,0.9117,0.8919,0.9042,0.9117,0.8933,0.9191,0.9483,0.9724,0.9444,0.9573,1.0575,0.8967,0.8426,0.99,0.9652,0.9523,0.9785,1.01,1.0288,1.0288,0.9379,0.9115,0.9578,0.9136,0.8912,0.8912,0.8912,0.8912,0.8912,0.8912,0.8906,0.8872,0.8465,0.852,0.894,0.9372,0.9856,1.0358,1.1219,1.1529,1.1496,1.109,1.1205,1.1613,1.1556,1.1563,1.1509,1.1022,1.0894,1.0928,1.088,1.0373,0.9934,1.0671,1.0245,0.9632,0.9913,0.9886,0.9629,0.9061,0.8912,0.8757,0.815,0.8002,0.7988,0.7988,0.7988,0.7988,0.7988,0.0,0.0,0.0,0.0,0.0,0.0,0.7905,0.7905,0.7699,0.8076,0.8403,0.856,0.8941,0.9315,0.9612,1.042,1.0914,1.0914,1.1938,1.2501,1.2501,1.2501,1.2576,1.2686,1.2881,1.3071,1.3214,1.3322,1.3397,1.3403,1.3403,1.3403,1.3403,1.3403,1.3403,1.3403,1.3403,1.3492,1.3578,1.3578,1.5041,1.7171,1.7027,1.7078,1.7535,0.8811,0.9015,0.9138,0.8933,0.8953,0.8967,0.8919,0.9251,0.9564,0.9666,0.975,1.0063,1.0752,1.0251,0.9981,1.0317,1.0663,1.069,1.029,1.0555,1.0691,1.0691,1.0148,0.9761,0.9612,0.9433,0.921,0.8912,0.8912,0.8912,0.8912,0.8912,0.8912,0.8892,0.8472,0.852,0.894,0.9393,0.9869,1.0317,1.0711,1.0934,1.1016,1.1266,1.1448,1.1584,1.1584,1.1584,1.1504,1.0758,1.09,1.1252,1.0697,1.0466,1.0508,1.1164,1.065,0.9981,1.0442,1.0576,1.0488,1.0253,0.9859,0.944,0.9237,0.8581,0.7988,0.7988,0.7988,0.7988,0.7988,0.0,0.0,0.0,0.0,0.0,0.0,0.7898,0.7824,0.7753,0.7787,0.8022,0.8464,0.7997,0.7889,0.8384,0.8764,0.8953,0.8852,1.0495,1.1442,1.1442,1.2199,1.2725,1.2881,1.3071,1.3214,1.3322,1.3376,1.3403,1.3403,1.3403,1.3403,1.3403,1.3403,1.3403,1.3528,1.5184,1.5886,1.6075,1.7732,1.8913,1.9519,1.7847,1.8322,2.0118,0.8852,0.8947,0.9049,0.8926,0.8912,0.8967,0.9122,0.9334,0.9598,1.0001,1.0019,1.0243,1.0914,1.0704,1.0562,1.0717,1.0785,1.0846,1.0887,1.0447,1.0488,1.1124,1.0399,0.9998,1.0055,0.9774,0.9544,0.9386,0.9068,0.8994,0.9142,0.8987,0.8912,0.8899,0.8635,0.852,0.8568,0.9476,0.989,1.0036,1.0466,1.0873,1.1212,1.13,1.1545,1.1775,1.1775,1.1775,1.1687,1.1145,1.1301,1.1674,1.1132,1.1043,1.1274,1.166,1.1294,1.0813,1.1205,1.1341,1.1294,1.1043,1.0656,1.0243,1.0032,0.9318,0.8723,0.8757,0.8683,0.8547,0.823,0.8263,0.0,0.0,0.0,0.0,0.0,0.7851,0.7794,0.774,0.7841,0.7957,0.8104,0.7624,0.7323,0.7414,0.7776,0.7946,0.7797,0.9778,1.0914,1.0914,1.207,1.2807,1.3003,1.3146,1.3247,1.3403,1.3403,1.3403,1.3403,1.3403,1.3403,1.3403,1.3403,1.388,1.4837,1.6427,1.7662,1.8634,2.0247,2.1452,2.2129,2.046,2.1452,2.3809,0.9,0.8912,0.8912,0.8912,0.8926,0.9088,0.9544,0.9417,0.9648,1.0711,1.0272,1.0202,1.107,1.0399,1.0229,1.105,1.0111,1.0039,1.1394,0.9927,0.9771,1.1509,1.0256,0.9951,1.0894,1.0082,0.9876,1.0315,0.9372,0.9163,0.9598,0.9122,0.8912,0.8919,0.8919,0.8507,0.7943,0.9598,1.0009,0.9544,1.0475,1.1341,1.1975,1.1198,1.143,1.2118,1.2104,1.2098,1.2098,1.2098,1.2098,1.2098,1.2098,1.2098,1.2098,1.2098,1.2098,1.2098,1.2098,1.2098,1.1962,1.1383,1.122,1.105,1.0485,1.0157,1.0028,1.009,0.9944,0.9585,0.8716,0.8771,0.0,0.0,0.0,0.0,0.0,0.7807,0.7753,0.7617,0.8079,0.8158,0.7464,0.7722,0.7601,0.6763,0.7465,0.7898,0.7814,0.969,1.0826,1.0921,1.1983,1.2712,1.3009,1.3105,1.3288,1.3562,1.3445,1.3438,1.3562,1.3562,1.3569,1.3576,1.37,1.5093,1.7268,1.7401,1.8913,2.1185,2.1323,2.279,2.4869,2.4746,2.618,2.8179,0.9,0.8912,0.8912,0.8912,0.919,0.9447,0.9591,0.9917,1.0141,1.0082,1.0521,1.0812,1.0677,1.0962,1.0813,1.0073,1.0236,1.0304,1.0103,1.0184,1.0637,1.1543,1.1253,1.0982,1.0914,1.0691,1.0468,1.0315,0.9713,0.9496,0.9598,0.9122,0.8967,0.9124,0.9124,0.877,0.8287,0.991,1.0582,1.0488,1.0197,1.0622,1.141,1.1213,1.164,1.2359,1.2179,1.2098,1.2098,1.2098,1.2098,1.2098,1.2098,1.2098,1.2098,1.2098,1.2098,1.2098,1.2098,1.2098,1.2064,1.1907,1.1533,1.1159,1.1002,1.0568,1.0222,1.0254,1.022,1.0059,0.9683,0.9347,0.8988,0.0,0.0,0.0,0.0,0.777,0.7638,0.7604,0.7441,0.7339,0.7389,0.7278,0.7053,0.6729,0.6912,0.7265,0.778,0.854,0.9618,1.1097,1.0758,1.1389,1.3146,1.2488,1.3392,1.5753,1.4176,1.4259,1.5794,1.5794,1.5908,1.6244,1.7844,1.904,1.9992,2.183,2.2989,2.3798,2.5615,2.6736,2.7308,2.7285,2.7649,2.8179,0.9,0.8912,0.8912,0.8912,0.9447,0.9903,0.9903,1.0073,1.0297,1.0542,1.0758,1.0934,1.0975,1.1362,1.1314,1.0555,1.0331,1.0278,1.0447,1.008,1.0366,1.1617,1.1428,1.1171,1.0921,1.1043,1.0955,1.0575,1.0059,0.9903,1.008,0.9435,0.9178,0.9281,0.9281,0.9022,0.8655,1.0032,1.0826,1.1164,1.0704,1.1002,0.0,1.1424,1.1782,1.2481,1.2311,1.225,1.225,1.225,1.225,1.225,1.225,1.225,1.225,1.225,1.225,1.225,1.225,1.225,1.225,1.225,1.2036,1.1785,1.1785,1.1443,1.1158,1.1158,1.1138,1.0948,1.04,0.9958,0.9458,0.0,0.0,0.0,0.7925,0.8,0.7963,0.7638,0.7604,0.757,0.7505,0.7021,0.6749,0.6776,0.6782,0.6931,0.7305,0.8418,0.9279,0.9781,1.0385,1.1056,1.1839,1.2023,1.2918,1.4485,1.4758,1.5472,1.6647,1.7709,1.8302,1.8588,1.9917,2.1254,2.2534,2.3939,2.5131,2.6276,2.7649,2.8179,2.8179,2.8179,2.8179,2.8179,0.9,0.8926,0.896,0.9014,0.97,1.0263,1.0405,1.0215,1.0366,1.1313,1.1002,1.088,1.1408,1.1606,1.1647,1.1565,1.0487,1.031,1.1484,0.9971,0.9876,1.1775,1.1333,1.1063,1.1063,1.1348,1.1355,1.1063,1.0485,1.0369,1.0671,0.9802,0.9424,0.9437,0.9437,0.934,0.9251,1.0053,1.0846,1.1579,1.1443,1.1775,1.2298,1.1748,1.1938,1.2501,1.2501,1.2501,1.2501,1.2501,1.2501,1.2501,1.2501,1.2501,1.2501,1.2501,1.2501,1.2501,1.2501,1.2501,1.2501,1.2501,1.2501,1.2501,1.2501,1.2406,1.2318,1.2318,1.221,1.1914,1.107,1.0521,0.9812,0.856,0.8133,0.7898,0.7722,0.8284,0.8452,0.7665,0.8126,0.0,0.7658,0.7008,0.6722,0.6945,0.6999,0.7043,0.7097,0.8757,0.9308,0.8457,1.0615,1.1309,1.0322,1.1844,1.2714,1.2881,1.5405,1.6907,1.7583,1.9729,2.0765,2.0869,2.1441,2.2964,2.4981,2.4981,2.6234,2.8179,2.8179,2.8179,2.8179,2.8179,2.8179,2.8179,0.9,0.9035,0.926,0.9575,0.9765,1.0195,1.1063,1.126,1.1158,1.0744,1.1219,1.1381,1.0894,1.1538,1.1819,1.1322,1.1063,1.1023,1.1261,1.0955,1.1152,1.2023,1.1962,1.1907,1.1907,1.1955,1.1955,1.1907,1.1016,1.0643,1.0671,0.9802,0.9449,0.9571,0.9571,1.0019,1.0764,1.0053,1.0405,1.143,1.1402,1.147,1.164,1.2121,1.2386,1.2501,1.2501,1.2501,1.2501,1.2501,1.2501,1.2501,1.2501,1.2501,1.2501,1.2501,1.2501,1.2501,1.2501,1.2501,1.2501,1.2501,1.2501,1.2501,1.2501,1.2481,1.2467,1.2467,1.244,1.2338,1.2067,1.0758,0.949,0.875,0.8092,0.7553,0.7276,0.8182,0.85,0.7553,0.816,0.8391,0.7672,0.7389,0.726,0.7314,0.7516,0.8113,0.92,0.8481,0.8846,1.066,1.136,1.1663,1.1504,1.27,1.505,1.8449,1.6386,1.7851,2.2389,2.2812,2.3299,2.3869,2.5695,2.6887,2.7551,2.7551,2.7788,2.8179,2.8179,2.8179,2.8179,2.8179,2.8179,2.8179,0.9528,0.9449,0.9437,0.9492,0.9992,1.0488,1.0873,1.145,1.1721,1.139,1.1681,1.1816,1.1457,1.1839,1.1982,1.1689,1.1376,1.1329,1.1642,1.137,1.1506,1.2149,1.222,1.207,1.1757,1.2094,1.2139,1.1751,1.1199,1.0948,1.0928,1.0032,0.9646,0.9697,0.9964,1.0344,1.0846,1.0778,1.1097,1.164,1.187,1.1965,1.2006,1.2366,1.2501,1.2501,1.2501,1.2501,1.2501,1.2501,1.2501,1.2501,1.2501,1.2501,1.2501,1.2501,1.2501,1.2501,1.2501,1.2501,1.2501,1.2501,1.2501,1.2501,1.2501,1.2501,1.2501,1.2501,1.2501,1.2386,1.2013,1.1172,1.0337,0.9734,0.8811,0.8126,0.7952,0.823,0.8344,0.8099,0.8723,0.8974,0.8485,0.8973,0.8991,0.8231,0.936,1.0057,1.0006,1.0193,1.0958,1.2404,1.3231,1.3901,1.4385,1.5659,1.7216,1.9074,1.946,2.1022,2.3662,2.5095,2.5877,2.6213,2.7438,2.8045,2.8179,2.8179,2.8179,2.8179,2.8179,2.8179,2.8179,2.8179,2.8179,2.8179,1.0163,1.0001,0.9849,0.973,1.0385,1.0907,1.0921,1.1518,1.203,1.2091,1.2125,1.2145,1.2145,1.2173,1.2139,1.2016,1.1683,1.1574,1.1798,1.1608,1.1696,1.2128,1.2264,1.2115,1.164,1.2203,1.2216,1.1626,1.1444,1.1288,1.1179,1.0337,0.9964,0.9985,1.0432,1.069,1.0826,1.1496,1.1847,1.1969,1.2359,1.2522,1.2549,1.2549,1.2569,1.2596,1.2596,1.2596,1.2596,1.2596,1.2556,1.2501,1.2501,1.2501,1.2501,1.2501,1.2501,1.2501,1.2501,1.2501,1.2501,1.2501,1.2501,1.2501,1.2501,1.2501,1.2501,1.2501,1.2501,1.2359,1.1891,1.1531,1.109,1.0453,0.9374,0.854,0.8316,0.8202,0.8417,0.9157,0.9426,0.9603,0.9728,1.0818,1.0906,0.9471,1.1071,1.1873,1.1383,1.2142,1.3076,1.4053,1.5133,1.6011,1.6755,1.8136,1.9031,1.9463,2.2136,2.3792,2.4535,2.6726,2.7736,2.7802,2.8085,2.8179,2.8179,2.8179,2.8179,2.8179,2.8179,2.8179,2.8179,2.8179,2.8179,2.8179,1.0623,1.0711,1.0907,1.1321,1.111,1.1225,1.2176,1.1945,1.1755,1.2064,1.222,1.2271,1.2271,1.2386,1.2244,1.1708,1.2101,1.1938,1.0914,1.1809,1.2169,1.1701,1.2196,1.2454,1.24,1.2467,1.2467,1.24,1.1979,1.1558,1.1186,1.0656,1.0426,1.0446,1.0934,1.1328,1.1671,1.1759,1.2067,1.244,1.2481,1.2583,1.2672,1.2672,1.2793,1.2962,1.2962,1.2962,1.2962,1.2962,1.2732,1.2501,1.2501,1.2501,1.2501,1.2501,1.2501,1.2501,1.2501,1.2501,1.2501,1.2501,1.2501,1.2501,1.2501,1.2501,1.2501,1.2501,1.2501,1.2481,1.2427,1.1597,1.0711,0.9974,0.9001,0.8002,0.7021,0.7902,0.9241,1.0848,1.0091,0.9959,1.1326,1.2303,1.2289,1.1005,1.1415,1.2741,1.4955,1.3132,1.3224,1.594,1.6164,1.6358,1.6616,1.7897,2.0059,2.309,2.2459,2.3984,2.7326,2.7586,2.7884,2.8138,2.8179,2.8179,2.8179,2.8179,2.8179,2.8179,2.8179,2.8179,2.8179,2.8179,2.8179,2.8179,1.1354,1.1259,1.1212,1.1185,1.1401,1.1701,1.1938,1.2074,1.2189,1.2311,1.2379,1.242,1.242,1.2467,1.2406,1.2169,1.2366,1.2298,1.1823,1.2237,1.2393,1.2162,1.2372,1.2501,1.2501,1.2501,1.2501,1.2501,1.1782,1.1376,1.1186,1.0737,1.0636,1.0948,1.1362,1.1714,1.1986,1.2257,1.2528,1.2819,1.2819,1.2813,1.2868,1.2868,1.2948,1.3003,1.3003,1.3003,1.3003,1.3003,1.2921,1.2819,1.2819,1.2819,1.2819,1.2819,1.2819,1.2819,1.2819,1.2819,1.2819,1.2819,1.2705,1.2637,1.2637,1.2569,1.2501,1.2501,1.2501,1.2501,1.2501,1.2162,1.1606,1.0765,1.0209,0.9544,0.8581,0.8832,0.9616,1.0914,1.0747,1.1363,1.3418,1.4112,1.457,1.487,1.5106,1.5317,1.5465,1.5876,1.7061,1.9129,1.8845,1.989,2.2473,2.196,2.2975,2.5539,2.545,2.6214,2.7709,2.7924,2.8072,2.8179,2.8179,2.8179,2.8179,2.8179,2.8179,2.8179,2.8179,2.8179,2.8179,2.8179,2.8179,2.8179,1.2026,1.1857,1.1653,1.1408,1.1843,1.206,1.1681,1.2162,1.2508,1.2325,1.2501,1.2603,1.2515,1.2501,1.2433,1.2257,1.24,1.2352,1.1999,1.2305,1.2427,1.225,1.2406,1.2501,1.2501,1.2501,1.2501,1.2501,1.1911,1.1594,1.1458,1.1179,1.1227,1.1547,1.1965,1.2223,1.2383,1.2664,1.2861,1.3003,1.3003,1.3023,1.3064,1.3064,1.3091,1.3132,1.3132,1.3132,1.3132,1.3132,1.3132,1.3118,1.303,1.3003,1.3003,1.3003,1.3003,1.3003,1.3003,1.3003,1.3003,1.3003,1.2881,1.28,1.28,1.2712,1.2637,1.2637,1.2637,1.2637,1.2637,1.2637,1.2359,1.1497,1.1711,1.1696,1.0859,1.1218,1.2018,1.3193,1.2794,1.3368,1.5924,1.6058,1.6274,1.6972,1.7618,1.7528,1.6486,1.7409,1.8703,2.0294,1.9156,2.0624,2.505,2.3643,2.4275,2.7081,2.7495,2.7749,2.7884,2.8085,2.8179,2.8179,2.8179,2.8179,2.8179,2.8179,2.8179,2.8179,2.8179,2.8179,2.8179,2.8179,2.8179,2.8179,1.2494,1.2488,1.2488,1.2481,1.2488,1.2298,1.1671,1.2212,1.2476,1.1881,1.2494,1.288,1.2535,1.2501,1.2264,1.1644,1.2162,1.1999,1.0786,1.185,1.2244,1.1653,1.2189,1.2501,1.2501,1.2501,1.2501,1.2501,1.2605,1.2481,1.2091,1.2241,1.2271,1.2298,1.2785,1.2989,1.2989,1.2996,1.3003,1.3003,1.3003,1.3084,1.3214,1.3214,1.3261,1.3397,1.3397,1.3397,1.3397,1.3397,1.3397,1.3342,1.3091,1.3003,1.3003,1.3003,1.3003,1.3003,1.3003,1.3003,1.3003,1.3003,1.3003,1.2996,1.2996,1.2996,1.2996,1.2996,1.2996,1.2996,1.2996,1.2996,1.2744,1.1908,1.3369,1.429,1.355,1.5329,1.7294,1.8894,1.6642,1.6072,1.8876,1.8064,1.7024,1.6186,1.7844,1.8876,1.885,1.6942,1.6662,1.8464,1.5941,1.6994,2.1991,2.1194,2.3094,2.7682,2.7696,2.7856,2.8179,2.8179,2.8179,2.8179,2.8179,2.8179,2.8179,2.8179,2.8179,2.8179,2.8179,2.8179,2.8179,2.8179,2.8179,2.8179,1.1369,1.1945,1.2406,1.2094,1.2348,1.263,1.2549,1.2732,1.286,1.263,1.2853,1.2962,1.2867,1.2853,1.2778,1.2588,1.2332,1.2254,1.2281,1.2254,1.2343,1.2522,1.2356,1.2241,1.2241,1.2241,1.2241,1.2241,1.2352,1.2359,1.2254,1.2271,1.2454,1.2792,1.2935,1.3057,1.3146,1.3146,1.3207,1.3261,1.3261,1.3288,1.3329,1.3329,1.3356,1.3403,1.3403,1.3403,1.3403,1.3403,1.3403,1.3383,1.3288,1.3261,1.3261,1.3261,1.3261,1.3261,1.3261,1.3261,1.3261,1.3261,1.318,1.3146,1.3146,1.3071,1.3003,1.3003,1.3003,1.3003,1.3003,1.4181,1.4913,1.4051,1.6195,1.7642,1.6749,1.6746,1.6928,1.7248,1.6813,1.7323,1.9411,2.002,2.0388,2.0705,2.054,1.9943,1.8943,1.921,2.0334,2.2325,2.1376,2.2258,2.5251,2.4022,2.4836,2.7696,2.7951,2.8098,2.8179,2.8179,2.8179,2.8179,2.8179,2.8179,2.8179,2.8179,2.8179,2.8179,2.8179,2.8179,2.8179,2.8179,2.8179,2.8179,1.1633,1.2162,1.2583,1.2305,1.2569,1.2773,1.2683,1.2901,1.3003,1.2778,1.2989,1.3166,1.3166,1.3166,1.3125,1.3009,1.2656,1.2601,1.2975,1.2649,1.2608,1.2982,1.2642,1.2438,1.2438,1.2438,1.2438,1.2438,1.2588,1.2651,1.2705,1.2705,1.2854,1.3166,1.3166,1.3214,1.3302,1.3302,1.3315,1.3403,1.3403,1.3403,1.3403,1.3403,1.3403,1.3403,1.3403,1.3403,1.3403,1.3403,1.3403,1.3403,1.3403,1.3403,1.3403,1.3403,1.3403,1.3403,1.3403,1.3403,1.3403,1.3403,1.3329,1.3302,1.3302,1.3193,1.3166,1.3166,1.3166,1.3409,1.4198,1.5433,1.6428,1.6738,1.9062,2.0641,2.0073,1.9656,1.9439,1.9472,1.9109,1.9577,2.1417,2.219,2.2719,2.3041,2.1537,2.0655,2.0735,2.0668,2.1309,2.2832,2.2699,2.3701,2.5947,2.5053,2.5718,2.7911,2.8098,2.8179,2.8179,2.8179,2.8179,2.8179,2.8179,2.8179,2.8179,2.8179,2.8179,2.8179,2.8179,2.8179,2.8179,2.8179,2.8179,2.8179,1.2887,1.2941,1.2989,1.2962,1.2989,1.2833,1.2275,1.2785,1.299,1.244,1.2969,1.3403,1.3403,1.3403,1.3288,1.3057,1.2996,1.2989,1.303,1.2989,1.2989,1.303,1.2989,1.2969,1.2969,1.2969,1.2989,1.303,1.3166,1.3261,1.3403,1.3403,1.3403,1.3403,1.3403,1.3403,1.3403,1.341,1.3417,1.3417,1.3424,1.3431,1.3431,1.3431,1.3431,1.3431,1.3431,1.3431,1.3431,1.3431,1.3431,1.3431,1.3431,1.3431,1.3424,1.3403,1.3403,1.3403,1.3403,1.3403,1.3403,1.3403,1.3403,1.3403,1.3403,1.3403,1.3403,1.3403,1.3403,1.4011,1.5999,1.6647,1.7506,1.9582,2.1845,2.3305,2.3158,2.3503,2.3915,2.4279,2.2792,2.2492,2.4319,2.4399,2.4102,2.3465,2.1416,2.1256,2.379,2.1563,2.0508,2.1141,2.1181,2.2352,2.4786,2.4826,2.5972,2.8179,2.8179,2.8179,2.8179,2.8179,2.8179,2.8179,2.8179,2.8179,2.8179,2.8179,2.8179,2.8179,2.8179,2.8179,2.8179,2.8179,2.8179,2.8179,1.1717,1.237,1.2894,1.2547,1.286,1.3152,1.3085,1.3234,1.3295,1.3152,1.3288,1.3403,1.3403,1.3403,1.337,1.3302,1.2874,1.2807,1.3268,1.2868,1.2813,1.3275,1.2854,1.261,1.261,1.261,1.2834,1.3295,1.3329,1.3363,1.3403,1.3403,1.3403,1.3403,1.3403,1.3403,1.341,1.3526,1.3531,1.3545,1.3653,1.3693,1.3693,1.3693,1.3693,1.3693,1.3693,1.3693,1.3693,1.3693,1.3693,1.3693,1.3693,1.3693,1.3653,1.3464,1.3403,1.3403,1.3403,1.3403,1.3403,1.3403,1.3403,1.3403,1.3403,1.3403,1.3403,1.3403,1.3403,1.3562,1.4052,1.686,1.9298,1.9826,2.31,2.5166,2.3819,2.3733,2.3268,2.179,2.2612,2.3388,2.3572,2.4997,2.5531,2.473,2.4142,2.4195,2.505,2.4753,2.4914,2.5717,2.5919,2.6333,2.6961,2.7242,2.763,2.8179,2.8179,2.8179,2.8179,2.8179,2.8179,2.8179,2.8179,2.8179,2.8179,2.8179,2.8179,2.8179,2.8179,2.8179,2.8179,2.8179,2.8179,2.8179,1.2288,1.2712,1.3085,1.284,1.3064,1.3302,1.339,1.3403,1.3403,1.3403,1.3464,1.3505,1.3505,1.3559,1.3558,1.3558,1.318,1.3051,1.3376,1.3091,1.3057,1.339,1.3085,1.2915,1.2915,1.2915,1.3071,1.3403,1.3471,1.3505,1.3505,1.3531,1.3558,1.3558,1.3558,1.3558,1.3607,1.3646,1.3687,1.3693,1.3768,1.3795,1.3795,1.3795,1.3795,1.3795,1.3795,1.3795,1.3795,1.3795,1.3795,1.3795,1.3795,1.3795,1.3768,1.3648,1.3558,1.3558,1.3558,1.3553,1.3492,1.3417,1.3403,1.3403,1.3403,1.3403,1.3403,1.3403,1.3403,1.4011,1.6008,1.8281,2.0554,2.2539,2.4172,2.49,2.3937,2.3108,2.2445,2.2158,2.3241,2.4222,2.4826,2.6052,2.6626,2.6158,2.5248,2.5211,2.644,2.5772,2.5999,2.7415,2.7791,2.7938,2.7938,2.8098,2.8179,2.8179,2.8179,2.8179,2.8179,2.8179,2.8179,2.8179,2.8179,2.8179,2.8179,2.8179,2.8179,2.8179,2.8179,2.8179,2.8179,2.8179,2.8179,2.8179,1.3403,1.3403,1.341,1.3431,1.3437,1.3444,1.3464,1.3464,1.3464,1.3464,1.358,1.3619,1.3619,1.3727,1.3795,1.3795,1.3572,1.3464,1.3464,1.3464,1.3464,1.3464,1.3464,1.3464,1.3464,1.3464,1.3464,1.3464,1.3558,1.3619,1.3619,1.3741,1.3795,1.3795,1.3795,1.3795,1.3802,1.3822,1.3835,1.3835,1.3856,1.3869,1.3869,1.3869,1.3869,1.3869,1.3869,1.3869,1.3869,1.3869,1.3869,1.3869,1.3869,1.3869,1.3869,1.3869,1.3869,1.3856,1.3808,1.3707,1.3585,1.3498,1.3464,1.3464,1.3464,1.3464,1.3548,1.3922,1.3999,1.5228,1.9274,2.0293,2.1658,2.5136,2.4703,2.3821,2.3629,2.2458,2.2205,2.3728,2.4356,2.5251,2.6747,2.7121,2.7322,2.7362,2.5718,2.5625,2.7655,2.6119,2.5959,2.7709,2.8045,2.8179,2.8179,2.8179,2.8179,2.8179,2.8179,2.8179,2.8179,2.8179,2.8179,2.8179,2.8179,2.8179,2.8179,2.8179,2.8179,2.8179,2.8179,2.8179,2.8179,2.8179,2.8179,2.8179,1.3403,1.3403,1.3444,1.3531,1.3551,1.3592,1.3714,1.3727,1.3727,1.3727,1.3747,1.3761,1.3761,1.3788,1.3795,1.3795,1.3754,1.3727,1.3727,1.3727,1.3727,1.3727,1.3727,1.3727,1.3727,1.3727,1.3727,1.3727,1.3754,1.3761,1.3768,1.3788,1.3795,1.3795,1.3795,1.3795,1.3808,1.398,1.4034,1.4048,1.4177,1.4231,1.4231,1.4231,1.4231,1.4231,1.4231,1.4231,1.4231,1.4231,1.4231,1.4231,1.4231,1.4231,1.4231,1.4231,1.4231,1.417,1.3869,1.3781,1.3761,1.3734,1.3727,1.3727,1.3727,1.3727,1.4316,1.6285,1.6707,1.75,2.0171,2.2124,2.3191,2.2624,2.3616,2.4026,2.2806,2.3439,2.4159,2.4439,2.5852,2.6934,2.7215,2.7282,2.7403,2.7615,2.7335,2.7428,2.8085,2.7817,2.7791,2.8112,2.8165,2.8179,2.8179,2.8179,2.8179,2.8179,2.8179,2.8179,2.8179,2.8179,2.8179,2.8179,2.8179,2.8179,2.8179,2.8179,2.8179,2.8179,2.8179,2.8179,2.8179,2.8179,2.8179,2.8179,1.3578,1.3641,1.3619,1.3687,1.37,1.372,1.3788,1.3795,1.3795,1.3795,1.3869,1.3966,1.3966,1.4041,1.4089,1.4089,1.4089,1.4089,1.4089,1.3889,1.3795,1.3795,1.3795,1.3795,1.3795,1.3795,1.3795,1.3795,1.3926,1.3966,1.3966,1.4048,1.4089,1.4089,1.4089,1.4089,1.4095,1.4163,1.4197,1.4204,1.4272,1.4299,1.4299,1.4299,1.4299,1.4299,1.4299,1.4299,1.4299,1.4299,1.4299,1.4299,1.4299,1.4299,1.4299,1.4299,1.4299,1.4251,1.4027,1.3966,1.3946,1.3822,1.3795,1.3795,1.3795,1.4771,1.5991,1.7087,1.8304,1.9851,2.2108,2.3324,2.4167,2.4696,2.4684,2.4359,2.3679,2.4172,2.4599,2.4599,2.6333,2.7495,2.7495,2.7684,2.7831,2.7965,2.7978,2.8045,2.8179,2.8179,2.8179,2.8179,2.8179,2.8179,2.8179,2.8179,2.8179,2.8179,2.8179,2.8179,2.8179,2.8179,2.8179,2.8179,2.8179,2.8179,2.8179,2.8179,2.8179,2.8179,2.8179,2.8179,2.8179,2.8179,2.8179,2.8179,1.3774,1.3795,1.3808,1.3842,1.3849,1.3862,1.3896,1.3903,1.3903,1.3903,1.4055,1.4166,1.4166,1.4231,1.4299,1.4299,1.4299,1.4299,1.4299,1.4082,1.3903,1.3903,1.3903,1.3903,1.3903,1.3903,1.3903,1.3903,1.4068,1.4166,1.4173,1.4245,1.4299,1.4299,1.4299,1.4299,1.4299,1.4299,1.4299,1.4299,1.4299,1.4299,1.4299,1.4299,1.4299,1.4299,1.4299,1.4299,1.4299,1.4299,1.4299,1.4299,1.4299,1.4299,1.4299,1.4299,1.4299,1.4272,1.4156,1.4166,1.4095,1.393,1.3903,1.4075,1.4622,1.6109,1.7716,1.8821,2.0462,2.2366,2.455,2.4977,2.5417,2.6771,2.5772,2.4826,2.4893,2.4853,2.4959,2.5398,2.6841,2.7802,2.7802,2.8045,2.8179,2.8179,2.8179,2.8179,2.8179,2.8179,2.8179,2.8179,2.8179,2.8179,2.8179,2.8179,2.8179,2.8179,2.8179,2.8179,2.8179,2.8179,2.8179,2.8179,2.8179,2.8179,2.8179,2.8179,2.8179,2.8179,2.8179,2.8179,2.8179,2.8179,2.8179,2.8179,1.3795,1.3795,1.3842,1.4027,1.4098,1.4102,1.4245,1.4265,1.4265,1.4265,1.4278,1.4285,1.4285,1.4292,1.4299,1.4299,1.4299,1.4299,1.4299,1.4278,1.4265,1.4265,1.4265,1.4265,1.4265,1.4265,1.4265,1.4265,1.4278,1.4285,1.4285,1.4292,1.4299,1.4299,1.4299,1.4299,1.4299,1.4299,1.4299,1.4299,1.4299,1.4299,1.4299,1.4299,1.4299,1.4299,1.4299,1.4299,1.4299,1.4299,1.4299,1.4299,1.4299,1.4299,1.4299,1.4299,1.4299,1.4299,1.4285,1.4285,1.4278,1.4272,1.4265,1.4831,1.7031,1.7634,1.8974,2.3254,2.4291,2.5143,2.7467,2.7901,2.7505,2.6279,2.5718,2.5545,2.5864,2.5625,2.6052,2.7737,2.8058,2.8152,2.8152,2.8179,2.8179,2.8179,2.8179,2.8179,2.8179,2.8179,2.8179,2.8179,2.8179,2.8179,2.8179,2.8179,2.8179,2.8179,2.8179,2.8179,2.8179,2.8179,2.8179,2.8179,2.8179,2.8179,2.8179,2.8179,2.8179,2.8179,2.8179,2.8179,2.8179,2.8179,2.8179,2.8179,1.4109,1.4122,1.4143,1.4204,1.4211,1.4231,1.4292,1.4299,1.4299,1.4299,1.4299,1.4299,1.4299,1.4299,1.4299,1.4299,1.4299,1.4299,1.4299,1.4299,1.4299,1.4299,1.4299,1.4299,1.4299,1.4299,1.4299,1.4299,1.4299,1.4299,1.4299,1.4299,1.4299,1.4299,1.4299,1.4299,1.4299,1.4299,1.4299,1.4299,1.4299,1.4299,1.4299,1.4299,1.4299,1.4299,1.4299,1.4299,1.4299,1.4299,1.4299,1.4299,1.4299,1.4299,1.4299,1.4299,1.4299,1.4299,1.4299,1.4299,1.4299,1.4299,1.4299,1.4513,1.5425,1.6765,1.8714,2.1868,2.3695,2.5428,2.7757,2.8179,2.8005,2.7443,2.7255,2.7229,2.7336,2.7255,2.7429,2.8098,2.8179,2.8179,2.8179,2.8179,2.8179,2.8179,2.8179,2.8179,2.8179,2.8179,2.8179,2.8179,2.8179,2.8179,2.8179,2.8179,2.8179,2.8179,2.8179,2.8179,2.8179,2.8179,2.8179,2.8179,2.8179,2.8179,2.8179,2.8179,2.8179,2.8179,2.8179,2.8179,2.8179,2.8179,2.8179,2.8179,1.4278,1.4299,1.4299,1.4299,1.4299,1.4299,1.4299,1.4299,1.4299,1.4299,1.4299,1.4299,1.4299,1.4299,1.4299,1.4299,1.4299,1.4299,1.4299,1.4299,1.4299,1.4299,1.4299,1.4299,1.4299,1.4299,1.4299,1.4299,1.4299,1.4299,1.4299,1.4299,1.4299,1.4299,1.4299,1.4299,1.4299,1.4299,1.4299,1.4299,1.4299,1.4299,1.4299,1.4299,1.4299,1.4299,1.4299,1.4299,1.4299,1.4299,1.4299,1.4299,1.4299,1.4299,1.4299,1.4299,1.4299,1.4299,1.4299,1.4299,1.4299,1.4299,1.4299,1.469,1.6122,1.772,1.9749,2.2772,2.4679,2.6291,2.7883,2.8179,2.8179,2.8179,2.8179,2.8179,2.8179,2.8179,2.8179,2.8179,2.8179,2.8179,2.8179,2.8179,2.8179,2.8179,2.8179,2.8179,2.8179,2.8179,2.8179,2.8179,2.8179,2.8179,2.8179,2.8179,2.8179,2.8179,2.8179,2.8179,2.8179,2.8179,2.8179,2.8179,2.8179,2.8179,2.8179,2.8179,2.8179,2.8179,2.8179,2.8179,2.8179,2.8179,2.8179,2.8179,1.4299,1.4299,1.4299,1.4299,1.4299,1.4299,1.4299,1.4299,1.4299,1.4299,1.4299,1.4299,1.4299,1.4299,1.4299,1.4299,1.4299,1.4299,1.4299,1.4299,1.4299,1.4299,1.4299,1.4299,1.4299,1.4299,1.4299,1.4299,1.4299,1.4299,1.4299,1.4299,1.4299,1.4299,1.4299,1.4299,1.4299,1.4299,1.4299,1.4299,1.4299,1.4299,1.4299,1.4299,1.4299,1.4299,1.4299,1.4299,1.4299,1.4299,1.4299,1.4299,1.4299,1.4299,1.4299,1.4299,1.4299,1.4299,1.4299,1.4299,1.4299,1.4299,1.4299,1.5513,2.0139,2.1178,2.2514,2.7223,2.8179,2.8192,2.8179,2.8179,2.8179,2.8179,2.8179,2.8179,2.8179,2.8179,2.8179,2.8179,2.8179,2.8179,2.8179,2.8179,2.8179,2.8179,2.8179,2.8179,2.8179,2.8179,2.8179,2.8179,2.8179,2.8179,2.8179,2.8179,2.8179,2.8179,2.8179,2.8179,2.8179,2.8179,2.8179,2.8179,2.8179,2.8179,2.8179,2.8179,2.8179,2.8179,2.8179,2.8179,2.8179,2.8179,2.8179,2.8179,1.4299,1.4299,1.4299,1.4299,1.4299,1.4299,1.4299,1.4299,1.4299,1.4299,1.4299,1.4299,1.4299,1.4299,1.4299,1.4299,1.4299,1.4299,1.4299,1.4299,1.4299,1.4299,1.4299,1.4299,1.4299,1.4299,1.4299,1.4299,1.4299,1.4299,1.4299,1.4299,1.4299,1.4299,1.4299,1.4299,1.4299,1.4299,1.4299,1.4299,1.4299,1.4299,1.4299,1.4299,1.4299,1.4299,1.4299,1.4299,1.4299,1.4299,1.4299,1.4299,1.4299,1.4299,1.4299,1.4299,1.4299,1.4299,1.4299,1.4299,1.4299,1.4299,1.5557,1.7115,1.8497,2.0053,2.2041,2.5117,2.5726,2.6236,2.7883,2.8179,2.8179,2.8179,2.8179,2.8179,2.8179,2.8179,2.8179,2.8179,2.8179,2.8179,2.8179,2.8179,2.8179,2.8179,2.8179,2.8179,2.8179,2.8179,2.8179,2.8179,2.8179,2.8179,2.8179,2.8179,2.8179,2.8179,2.8179,2.8179,2.8179,2.8179,2.8179,2.8179,2.8179,2.8179,2.8179,2.8179,2.8179,2.8179,2.8179,2.8179,2.8179,2.8179,2.8179,2.8179,1.4299,1.4299,1.4299,1.4299,1.4299,1.4299,1.4299,1.4299,1.4299,1.4299,1.4299,1.4299,1.4299,1.4299,1.4299,1.4299,1.4299,1.4299,1.4299,1.4299,1.4299,1.4299,1.4299,1.4299,1.4299,1.4299,1.4299,1.4299,1.4299,1.4299,1.4299,1.4299,1.4299,1.4299,1.4299,1.4299,1.4299,1.4299,1.4299,1.4299,1.4299,1.4299,1.4299,1.4299,1.4299,1.4299,1.4299,1.4299,1.4299,1.4299,1.4299,1.4299,1.4299,1.4299,1.4299,1.4299,1.4948,1.569,1.569,1.6342,1.7036,1.7036,1.7413,1.8279,2.0096,2.161,2.3255,2.5586,2.6066,2.6503,2.7926,2.8179,2.8179,2.8179,2.8179,2.8179,2.8179,2.8179,2.8179,2.8179,2.8179,2.8179,2.8179,2.8179,2.8179,2.8179,2.8179,2.8179,2.8179,2.8179,2.8179,2.8179,2.8179,2.8179,2.8179,2.8179,2.8179,2.8179,2.8179,2.8179,2.8179,2.8179,2.8179,2.8179,2.8179,2.8179,2.8179,2.8179,2.8179,2.8179,2.8179,2.8179,2.8179,2.8179,2.8179,2.8179,1.4299,1.4299,1.4299,1.4299,1.4299,1.4299,1.4299,1.4299,1.4299,1.4299,1.4299,1.4299,1.4299,1.4299,1.4299,1.4299,1.4299,1.4299,1.4299,1.4299,1.4299,1.4299,1.4299,1.4299,1.4299,1.4299,1.4299,1.4299,1.4299,1.4299,1.4299,1.4299,1.4299,1.4299,1.4299,1.4299,1.4299,1.4299,1.4299,1.4299,1.4299,1.4299,1.4299,1.4299,1.4299,1.4299,1.4299,1.4299,1.4299,1.4299,1.4299,1.4299,1.4299,1.4299,1.4343,1.4564,1.6122,1.7851,1.806,1.9619,2.1264,2.148,1.9966,1.9532,2.3738,2.4861,2.5641,2.7757,2.8179,2.8179,2.8179,2.8179,2.8179,2.8179,2.8179,2.8179,2.8179,2.8179,2.8179,2.8179,2.8179,2.8179,2.8179,2.8179,2.8179,2.8179,2.8179,2.8179,2.8179,2.8179,2.8179,2.8179,2.8179,2.8179,2.8179,2.8179,2.8179,2.8179,2.8179,2.8179,2.8179,2.8179,2.8179,2.8179,2.8179,2.8179,2.8179,2.8179,2.8179,2.8179,2.8179,2.8179,2.8179,2.8179,2.8179,2.8179,1.4299,1.4299,1.4299,1.4299,1.4299,1.4299,1.4299,1.4299,1.4299,1.4299,1.4299,1.4299,1.4299,1.4299,1.4299,1.4299,1.4299,1.4299,1.4299,1.4299,1.4299,1.4299,1.4299,1.4299,1.4299,1.4299,1.4299,1.4299,1.4299,1.4299,1.4299,1.4299,1.4299,1.4299,1.4299,1.4299,1.4299,1.4299,1.4299,1.4299,1.4299,1.4299,1.4299,1.4299,1.4299,1.4299,1.4299,1.4299,1.4299,1.4299,1.4299,1.4299,1.4299,1.4299,1.4646,1.6509,1.7413,1.8191,1.9966,2.0832,2.1653,2.347,2.3555,2.347,2.4477,2.6109,2.7575,2.8094,2.8179,2.8179,2.8179,2.8179,2.8179,2.8179,2.8179,2.8179,2.8179,2.8179,2.8179,2.8179,2.8179,2.8179,2.8179,2.8179,2.8179,2.8179,2.8179,2.8179,2.8179,2.8179,2.8179,2.8179,2.8179,2.8179,2.8179,2.8179,2.8179,2.8179,2.8179,2.8179,2.8179,2.8179,2.8179,2.8179,2.8179,2.8179,2.8179,2.8179,2.8179,2.8179,2.8179,2.8179,2.8179,2.8179,2.8179,2.8179,1.4299,1.4299,1.4299,1.4299,1.4299,1.4299,1.4299,1.4299,1.4299,1.4299,1.4299,1.4299,1.4299,1.4299,1.4299,1.4299,1.4299,1.4299,1.4299,1.4299,1.4299,1.4299,1.4299,1.4299,1.4299,1.4299,1.4299,1.4299,1.4299,1.4299,1.4299,1.4299,1.4299,1.4299,1.4299,1.4299,1.4299,1.4299,1.4299,1.4299,1.4299,1.4299,1.4299,1.4299,1.4299,1.4299,1.4299,1.4299,1.4299,1.4299,1.4299,1.4299,1.4299,1.508,1.6202,1.7457,1.9358,2.1351,2.2568,2.3684,2.485,2.6066,2.6363,2.6363,2.6363,2.7321,2.8179,2.8179,2.8179,2.8179,2.8179,2.8179,2.8179,2.8179,2.8179,2.8179,2.8179,2.8179,2.8179,2.8179,2.8179,2.8179,2.8179,2.8179,2.8179,2.8179,2.8179,2.8179,2.8179,2.8179,2.8179,2.8179,2.8179,2.8179,2.8179,2.8179,2.8179,2.8179,2.8179,2.8179,2.8179,2.8179,2.8179,2.8179,2.8179,2.8179,2.8179,2.8179,2.8179,2.8179,2.8179,2.8179,2.8179,2.8179,2.8179,2.8179,1.4299,1.4299,1.4299,1.4299,1.4299,1.4299,1.4299,1.4299,1.4299,1.4299,1.4299,1.4299,1.4299,1.4299,1.4299,1.4299,1.4299,1.4299,1.4299,1.4299,1.4299,1.4299,1.4299,1.4299,1.4299,1.4299,1.4299,1.4299,1.4299,1.4299,1.4299,1.4299,1.4299,1.4299,1.4299,1.4299,1.4299,1.4299,1.4299,1.4299,1.4299,1.4299,1.4299,1.4299,1.4299,1.4299,1.4299,1.4299,1.4299,1.4299,1.4557,1.4911,1.4911,1.6509,1.8453,1.8845,2.1696,2.4776,2.5203,2.6715,2.8179,2.8179,2.8179,2.8179,2.8179,2.8179,2.8179,2.8179,2.8179,2.8179,2.8179,2.8179,2.8179,2.8179,2.8179,2.8179,2.8179,2.8179,2.8179,2.8179,2.8179,2.8179,2.8179,2.8179,2.8179,2.8179,2.8179,2.8179,2.8179,2.8179,2.8179,2.8179,2.8179,2.8179,2.8179,2.8179,2.8179,2.8179,2.8179,2.8179,2.8179,2.8179,2.8179,2.8179,2.8179,2.8179,2.8179,2.8179,2.8179,2.8179,2.8179,2.8179,2.8179,2.8179,2.8179,2.8179,1.4299,1.4299,1.4299,1.4299,1.4299,1.4299,1.4299,1.4299,1.4299,1.4299,1.4299,1.4299,1.4299,1.4299,1.4299,1.4299,1.4299,1.4299,1.4299,1.4299,1.4299,1.4299,1.4299,1.4299,1.4299,1.4299,1.4299,1.4299,1.4299,1.4299,1.4299,1.4299,1.4299,1.4299,1.4299,1.4299,1.4299,1.4299,1.4299,1.4299,1.4299,1.4299,1.4299,1.4299,1.4299,1.4299,1.4299,1.4299,1.4299,1.4299,1.5646,1.7334,1.7334,1.8889,2.1135,2.3169,2.4209,2.516,2.7194,2.7968,2.8179,2.8179,2.8179,2.8179,2.8179,2.8179,2.8179,2.8179,2.8179,2.8179,2.8179,2.8179,2.8179,2.8179,2.8179,2.8179,2.8179,2.8179,2.8179,2.8179,2.8179,2.8179,2.8179,2.8179,2.8179,2.8179,2.8179,2.8179,2.8179,2.8179,2.8179,2.8179,2.8179,2.8179,2.8179,2.8179,2.8179,2.8179,2.8179,2.8179,2.8179,2.8179,2.8179,2.8179,2.8179,2.8179,2.8179,2.8179,2.8179,2.8179,2.8179,2.8179,2.8179,2.8179,2.8179,2.8179,1.4299,1.4299,1.4299,1.4299,1.4299,1.4299,1.4299,1.4299,1.4299,1.4299,1.4299,1.4299,1.4299,1.4299,1.4299,1.4299,1.4299,1.4299,1.4299,1.4299,1.4299,1.4299,1.4299,1.4299,1.4299,1.4299,1.4299,1.4299,1.4299,1.4299,1.4299,1.4299,1.4299,1.4299,1.4299,1.4299,1.4299,1.4299,1.4299,1.4299,1.4299,1.4299,1.4299,1.4299,1.4299,1.4299,1.4299,1.4299,1.4299,1.4299,1.4992,1.5858,1.5858,1.7422,1.9749,2.2084,2.3684,2.5203,2.7575,2.8179,2.8179,2.8179,2.8179,2.8179,2.8179,2.8179,2.8179,2.8179,2.8179,2.8179,2.8179,2.8179,2.8179,2.8179,2.8179,2.8179,2.8179,2.8179,2.8179,2.8179,2.8179,2.8179,2.8179,2.8179,2.8179,2.8179,2.8179,2.8179,2.8179,2.8179,2.8179,2.8179,2.8179,2.8179,2.8179,2.8179,2.8179,2.8179,2.8179,2.8179,2.8179,2.8179,2.8179,2.8179,2.8179,2.8179,2.8179,2.8179,2.8179,2.8179,2.8179,2.8179,2.8179,2.8179,2.8179,2.8179]},{"header":{"parameterUnit":"m.s-1","parameterCategory":1,"la1":30.6,"la2":28.766,"lo1":-90.7593,"lo2":-88.6598,"dy":0.0162,"dx":0.0183,"nx":116,"ny":114,"refTime":"2023-09-26T12:00:00:Z","depth":0,"parameterNumber":3,"parameterNumberName":"V-component_of_WINDS"},"data":[0.0,0.0,0.0,0.0,0.0,0.0,0.0,0.0,0.0,0.0,0.0,0.0,0.0,0.0,0.0,0.0,0.0,0.0,0.0,0.0,0.0,0.0,0.0,0.0,0.0,0.0,0.0,0.0,0.0,0.0,0.0,0.0,0.0,0.0,0.0,0.0,0.0,0.0,0.0,0.0,0.0,0.0,0.0,0.0,0.0,0.0,0.0,0.0,0.0,0.0,0.0,0.0,0.0,0.0,0.0,0.0,0.0,0.0,0.0,0.0,0.0,0.0,0.0,0.0,0.0,0.0,0.0,0.0,0.0,0.0,0.0,0.0,0.0,0.0,0.0,0.0,0.0,0.0,0.0,0.0,0.0,0.0,0.0,0.0,0.0,0.0,0.0,0.0,0.0,0.0,0.0,0.0,0.0,0.0,0.0,0.0,0.0,0.0,0.0,0.0,0.0,0.0,0.0,0.0,0.0,0.0,0.0,0.0,0.0,0.0,0.0,0.0,0.0,0.0,0.0,0.0,0.0,0.0,0.0,0.0,0.0,0.0,0.0,0.0,0.0,0.0,0.0,0.0,0.0,0.0,0.0,0.0,0.0,0.0,0.0,0.0,0.0,0.0,0.0,0.0,0.0,0.0,0.0,0.0,0.0,0.0,0.0,0.0,0.0,0.0,0.0,0.0,0.0,0.0,0.0,0.0,0.0,0.0,0.0,0.0,0.0,0.0,0.0,0.0,0.0,0.0,0.0,0.0,0.0,0.0,0.0,0.0,0.0,0.0,0.0,0.0,0.0,0.0,0.0,0.0,0.0,0.0,0.0,0.0,0.0,0.0,0.0,0.0,0.0,0.0,0.0,0.0,0.0,0.0,0.0,0.0,0.0,0.0,0.0,0.0,0.0,0.0,0.0,0.0,0.0,0.0,0.0,0.0,0.0,0.0,0.0,0.0,0.0,0.0,0.0,0.0,0.0,0.0,0.0,0.0,0.0,0.0,0.0,0.0,0.0,0.0,0.0,0.0,0.0,0.0,0.0,0.0,0.0,0.0,0.0,0.0,0.0,0.0,0.0,0.0,0.0,0.0,0.0,0.0,0.0,0.0,0.0,0.0,0.0,0.0,0.0,0.0,0.0,0.0,0.0,0.0,0.0,0.0,0.0,0.0,0.0,0.0,0.0,0.0,0.0,0.0,0.0,0.0,0.0,0.0,0.0,0.0,0.0,0.0,0.0,0.0,0.0,0.0,0.0,0.0,0.0,0.0,0.0,0.0,0.0,0.0,0.0,0.0,0.0,0.0,0.0,0.0,0.0,0.0,0.0,0.0,0.0,0.0,0.0,0.0,0.0,0.0,0.0,0.0,0.0,0.0,0.0,0.0,0.0,0.0,0.0,0.0,0.0,0.0,0.0,0.0,0.0,0.0,0.0,0.0,0.0,0.0,0.0,0.0,0.0,0.0,0.0,0.0,0.0,0.0,0.0,0.0,0.0,0.0,0.0,0.0,0.0,0.0,0.0,0.0,0.0,0.0,0.0,0.0,0.0,0.0,0.0,0.0,0.0,0.0,0.0,0.0,0.0,0.0,0.0,0.0,0.0,0.0,0.0,0.0,0.0,0.0,0.0,0.0,0.0,0.0,0.0,0.0,0.0,0.0,0.0,0.0,0.0,0.0,0.0,0.0,0.0,0.0,0.0,0.0,0.0,0.0,0.0,0.0,0.0,0.0,0.0,0.0,0.0,0.0,0.0,0.0,0.0,0.0,0.0,0.0,0.0,0.0,0.0,0.0,0.0,0.0,0.0,0.0,0.0,0.0,0.0,0.0,0.0,0.0,0.0,0.0,0.0,0.0,0.0,0.0,0.0,0.0,0.0,0.0,0.0,0.0,0.0,0.0,0.0,0.0,0.0,0.0,0.0,0.0,0.0,0.0,0.0,0.0,0.0,0.0,0.0,0.0,0.0,0.0,0.0,0.0,0.0,0.0,0.0,0.0,0.0,0.0,0.0,0.0,0.0,0.0,0.0,0.0,0.0,0.0,0.0,0.0,0.0,0.0,0.0,0.0,0.0,0.0,0.0,0.0,0.0,0.0,0.0,0.0,0.0,0.0,0.0,0.0,0.0,0.0,0.0,0.0,0.0,0.0,0.0,0.0,0.0,0.0,0.0,0.0,0.0,0.0,0.0,0.0,0.0,0.0,0.0,0.0,0.0,0.0,0.0,0.0,0.0,0.0,0.0,0.0,0.0,0.0,0.0,0.0,0.0,0.0,0.0,0.0,0.0,0.0,0.0,0.0,0.0,0.0,0.0,0.0,0.0,0.0,0.0,0.0,0.0,0.0,0.0,0.0,0.0,0.0,0.0,0.0,0.0,0.0,0.0,0.0,0.0,0.0,0.0,0.0,0.0,0.0,0.0,0.0,0.0,0.0,0.0,0.0,0.0,0.0,0.0,0.0,0.0,0.0,0.0,0.0,0.0,0.0,0.0,0.0,0.0,0.0,0.0,0.0,0.0,0.0,0.0,0.0,0.0,0.0,0.0,0.0,0.0,0.0,0.0,0.0,0.0,0.0,0.0,0.0,0.0,0.0,0.0,0.0,0.0,0.0,0.0,0.0,0.0,0.0,0.0,0.0,0.0,0.0,0.0,0.0,0.0,0.0,0.0,0.0,0.0,0.0,0.0,0.0,0.0,0.0,0.0,0.0,0.0,0.0,0.0,0.0,0.0,0.0,0.0,0.0,0.0,0.0,0.0,0.0,0.0,0.0,0.0,0.0,0.0,0.0,0.0,0.0,0.0,0.0,0.0,0.0,0.0,0.0,0.0,0.0,0.0,0.0,0.0,0.0,0.0,0.0,0.0,0.0,0.0,0.0,0.0,0.0,0.0,0.0,0.0,0.0,0.0,0.0,0.0,0.0,0.0,0.0,0.0,0.0,0.0,0.0,0.0,0.0,0.0,0.0,0.0,0.0,0.0,0.0,0.0,0.0,0.0,0.0,0.0,0.0,0.0,0.0,0.0,0.0,0.0,0.0,0.0,0.0,0.0,0.0,0.0,0.0,0.0,0.0,0.0,0.0,0.0,0.0,0.0,0.0,0.0,0.0,0.0,0.0,0.0,0.0,0.0,0.0,0.0,0.0,0.0,0.0,0.0,0.0,0.0,0.0,0.0,0.0,0.0,0.0,0.0,0.0,0.0,0.0,0.0,0.0,0.0,0.0,0.0,0.0,0.0,0.0,0.0,0.0,0.0,0.0,0.0,0.0,0.0,0.0,0.0,0.0,0.0,0.0,0.0,0.0,0.0,0.0,0.0,0.0,0.0,0.0,0.0,0.0,0.0,0.0,0.0,0.0,0.0,0.0,0.0,0.0,0.0,0.0,0.0,0.0,0.0,0.0,0.0,0.0,0.0,0.0,0.0,0.0,0.0,0.0,0.0,0.0,0.0,0.0,0.0,0.0,0.0,0.0,0.0,0.0,0.0,0.0,0.0,0.0,0.0,0.0,0.0,0.0,0.0,0.0,0.0,0.0,0.0,0.0,0.0,0.0,0.0,0.0,0.0,0.0,0.0,0.0,0.0,0.0,0.0,0.0,0.0,0.0,0.0,0.0,0.0,0.0,0.0,0.0,0.0,0.0,0.0,0.0,0.0,0.0,0.0,0.0,0.0,0.0,0.0,0.0,0.0,0.0,0.0,0.0,0.0,0.0,0.0,0.0,0.0,0.0,0.0,0.0,0.0,0.0,0.0,0.0,0.0,0.0,0.0,0.0,0.0,0.0,0.0,0.0,0.0,0.0,0.0,0.0,0.0,0.0,0.0,0.0,0.0,0.0,0.0,0.0,0.0,0.0,0.0,0.0,0.0,0.0,0.0,0.0,0.0,0.0,0.0,0.0,0.0,0.0,0.0,0.0,0.0,0.0,0.0,0.0,0.0,0.0,0.0,0.0,0.0,0.0,0.0,0.0,0.0,0.0,0.0,0.0,0.0,0.0,0.0,0.0,0.0,0.0,0.0,0.0,0.0,0.0,0.0,0.0,0.0,0.0,0.0,0.0,0.0,0.0,0.0,0.0,0.0,0.0,0.0,0.0,0.0,0.0,0.0,0.0,0.0,0.0,0.0,0.0,0.0,0.0,0.0,0.0,0.0,0.0,0.0,0.0,0.0,0.0,0.0,0.0,0.0,0.0,0.0,0.0,0.0,0.0,0.0,0.0,0.0,0.0,0.0,0.0,0.0,0.0,0.0,0.0,0.0,0.0,0.0,0.0,0.0,0.0,0.0,0.0,0.0,0.0,0.0,0.0,0.0,0.0,0.0,0.0,0.0,0.0,0.0,0.0,0.0,0.0,0.0,0.0,0.0,0.0,0.0,0.0,0.0,0.0,0.0,0.0,0.0,0.0,0.0,0.0,0.0,0.0,0.0,0.0,0.0,0.0,0.0,0.0,0.0,0.0,0.0,0.0,0.0,0.0,0.0,0.0,0.0,0.0,0.0,0.0,0.0,0.0,0.0,0.0,0.0,0.0,0.0,0.0,0.0,0.0,0.0,0.0,0.0,0.0,0.0,0.0,0.0,0.0,0.0,0.0,0.0,0.0,0.0,0.0,0.0,0.0,0.0,0.0,0.0,0.0,0.0,0.0,0.0,0.0,0.0,0.0,0.0,0.0,0.0,0.0,0.0,0.0,0.0,0.0,0.0,0.0,0.0,0.0,0.0,0.0,0.0,0.0,0.0,0.0,0.0,0.0,0.0,0.0,0.0,0.0,0.0,0.0,0.0,0.0,0.0,0.0,0.0,0.0,0.0,0.0,0.0,0.0,0.0,0.0,0.0,0.0,0.0,0.0,0.0,0.0,0.0,0.0,0.0,0.0,0.0,0.0,0.0,0.0,0.0,0.0,0.0,0.0,0.0,0.0,0.0,0.0,0.0,0.0,0.0,0.0,0.0,0.0,0.0,0.0,0.0,0.0,0.0,0.0,0.0,0.0,0.0,0.0,0.0,0.0,0.0,0.0,0.0,0.0,0.0,0.0,0.0,0.0,0.0,0.0,0.0,0.0,0.0,0.0,0.0,0.0,0.0,0.0,0.0,0.0,0.0,0.0,0.0,0.0,0.0,0.0,0.0,0.0,0.0,0.0,0.0,0.0,0.0,0.0,0.0,0.0,0.0,0.0,0.0,0.0,0.0,0.0,0.0,0.0,0.0,0.0,0.0,0.0,0.0,0.0,0.0,0.0,0.0,0.0,0.0,0.0,0.0,0.0,0.0,0.0,0.0,0.0,0.0,0.0,0.0,0.0,0.0,0.0,0.0,0.0,0.0,0.0,0.0,0.0,0.0,0.0,0.0,0.0,0.0,0.0,0.0,0.0,0.0,0.0,0.0,0.0,0.0,0.0,0.0,0.0,0.0,0.0,0.0,0.0,0.0,0.0,0.0,0.0,0.0,0.0,0.0,0.0,0.0,0.0,0.0,0.0,0.0,0.0,0.0,0.0,0.0,0.0,0.0,0.0,0.0,0.0,0.0,0.0,0.0,0.0,0.0,0.0,0.0,0.0,0.0,0.0,0.0,0.0,0.0,0.0,0.0,0.0,0.0,0.0,0.0,0.0,0.0,0.0,0.0,0.0,0.0,0.0,0.0,0.0,0.0,0.0,0.0,0.0,0.0,0.0,0.0,0.0,0.0,0.0,0.0,0.0,0.0,0.0,0.0,0.0,0.0,0.0,0.0,0.0,0.0,0.0,0.0,0.0,0.0,0.0,0.0,0.0,0.0,0.0,0.0,0.0,0.0,0.0,0.0,0.0,0.0,0.0,0.0,0.0,0.0,0.0,0.0,0.0,0.0,0.0,0.0,0.0,0.0,0.0,0.0,0.0,0.0,0.0,0.0,0.0,0.0,0.0,0.0,0.0,0.0,0.0,0.0,0.0,0.0,0.0,0.0,0.0,0.0,0.0,0.0,0.0,0.0,0.0,0.0,0.0,0.0,0.0,0.0,0.0,0.0,0.0,0.0,0.0,0.0,0.0,0.0,0.0,0.0,0.0,0.0,0.0,0.0,0.0,0.0,0.0,0.0,0.0,0.0,0.0,0.0,0.0,0.0,0.0,0.0,0.0,0.0,0.0,0.0,0.0,0.0,0.0,2.7818,2.3084,0.0,0.0,0.0,0.0,0.0,0.0,0.0,0.0,0.0,0.0,0.0,0.0,0.0,0.0,0.0,0.0,0.0,0.0,0.0,0.0,0.0,0.0,0.0,0.0,0.0,0.0,0.0,0.0,0.0,0.0,0.0,0.0,0.0,0.0,0.0,0.0,0.0,2.2946,2.4279,2.5197,2.5747,2.5676,2.475,2.316,0.0,0.0,0.0,0.0,0.0,0.0,0.0,0.0,0.0,0.0,0.0,0.0,0.0,0.0,0.0,0.0,0.0,0.0,0.0,0.0,0.0,0.0,0.0,0.0,0.0,0.0,0.0,0.0,0.0,0.0,0.0,0.0,0.0,0.0,0.0,0.0,0.0,0.0,0.0,0.0,0.0,0.0,0.0,0.0,0.0,0.0,0.0,0.0,0.0,0.0,0.0,0.0,0.0,0.0,0.0,0.0,0.0,0.0,0.0,0.0,0.0,0.0,0.0,0.0,0.0,0.0,0.0,0.0,0.0,0.0,2.8698,2.7082,0.0,0.0,0.0,0.0,0.0,0.0,0.0,0.0,0.0,0.0,0.0,0.0,0.0,0.0,0.0,0.0,0.0,0.0,0.0,0.0,0.0,0.0,0.0,2.4135,2.4596,2.49,2.509,2.5167,0.0,0.0,0.0,0.0,0.0,0.0,2.2563,2.3702,2.4408,2.4586,2.6575,2.8424,3.0043,3.0043,2.8121,2.4706,2.5259,0.0,0.0,0.0,0.0,0.0,0.0,0.0,0.0,0.0,0.0,0.0,0.0,0.0,0.0,0.0,0.0,0.0,0.0,0.0,0.0,0.0,0.0,0.0,0.0,0.0,0.0,0.0,0.0,0.0,0.0,0.0,0.0,0.0,0.0,0.0,0.0,0.0,0.0,0.0,0.0,0.0,0.0,0.0,0.0,0.0,0.0,0.0,0.0,0.0,0.0,0.0,0.0,0.0,0.0,0.0,0.0,0.0,0.0,0.0,0.0,0.0,0.0,0.0,3.2269,3.2615,3.2615,3.2615,3.1465,2.9541,3.0769,3.2157,3.3279,2.966,0.0,0.0,0.0,0.0,0.0,0.0,0.0,0.0,0.0,0.0,0.0,0.0,0.0,0.0,0.0,0.0,0.0,0.0,0.0,2.4338,2.4338,2.444,2.4531,2.4543,2.5456,2.5872,2.5535,0.0,0.0,0.0,0.0,0.0,2.2689,2.4068,2.5277,2.6184,2.8532,3.0189,3.11,3.11,3.0784,3.0228,2.961,2.8529,2.7089,0.0,0.0,0.0,0.0,0.0,0.0,0.0,0.0,0.0,0.0,0.0,0.0,0.0,0.0,0.0,0.0,0.0,0.0,0.0,0.0,0.0,0.0,0.0,0.0,0.0,0.0,0.0,0.0,0.0,0.0,0.0,0.0,0.0,0.0,0.0,0.0,0.0,0.0,0.0,0.0,0.0,2.366,2.8148,0.0,0.0,0.0,0.0,0.0,0.0,0.0,0.0,0.0,0.0,0.0,0.0,0.0,2.9731,2.9385,3.3692,3.5888,3.5923,3.9658,4.1431,4.1431,4.1431,4.1239,4.07,3.6619,0.0,3.1077,3.3385,0.0,0.0,0.0,0.0,0.0,0.0,0.0,0.0,0.0,0.0,0.0,0.0,0.0,0.0,0.0,0.0,0.0,0.0,0.0,0.0,0.0,2.6216,2.6849,2.7058,2.798,2.8134,2.7305,2.6599,0.0,0.0,0.0,2.4008,2.367,2.512,2.7053,2.9492,3.1924,3.3624,3.4576,3.4703,3.4772,3.478,3.4626,3.2976,3.0337,2.9707,0.0,0.0,0.0,0.0,0.0,0.0,0.0,0.0,0.0,0.0,0.0,0.0,0.0,0.0,0.0,0.0,0.0,0.0,0.0,0.0,0.0,0.0,0.0,0.0,0.0,0.0,0.0,0.0,0.0,0.0,0.0,0.0,0.0,0.0,0.0,0.0,0.0,0.0,0.0,2.4776,2.6951,3.0235,3.1367,3.103,0.0,0.0,0.0,0.0,0.0,0.0,0.0,0.0,0.0,3.0968,3.3849,3.4696,3.3269,3.7927,4.0312,4.0312,4.22,4.3085,4.3085,4.3085,4.3085,4.297,4.0735,3.8927,3.7427,3.6077,3.6352,3.7488,0.0,0.0,0.0,0.0,3.1275,3.2817,0.0,0.0,0.0,0.0,0.0,0.0,0.0,0.0,0.0,0.0,0.0,0.0,2.6776,2.8076,2.909,2.9393,3.0045,2.994,2.8736,2.745,2.6243,2.5129,2.4745,2.4683,2.5016,2.7058,2.9632,3.2737,3.4933,3.6404,3.7192,3.748,3.7644,3.7649,3.7897,3.6135,3.2985,3.2762,3.1545,2.9662,0.0,0.0,0.0,0.0,0.0,0.0,0.0,0.0,0.0,0.0,0.0,0.0,0.0,0.0,0.0,0.0,0.0,0.0,0.0,0.0,0.0,0.0,0.0,0.0,0.0,0.0,0.0,0.0,0.0,0.0,0.0,0.0,0.0,0.0,0.0,0.0,0.0,2.8224,2.9432,3.2045,3.3471,3.3459,0.0,0.0,0.0,0.0,0.0,0.0,3.4568,3.4625,3.4313,3.3657,3.7969,3.9354,3.7465,4.1393,4.3393,4.3393,4.3624,4.3739,4.3739,4.3739,4.3739,4.3739,4.3739,4.3739,4.3431,3.9427,3.8908,4.0598,4.0123,3.88,3.7019,3.5656,3.5584,3.5857,0.0,0.0,0.0,0.0,0.0,0.0,0.0,0.0,0.0,0.0,0.0,2.8375,2.8391,2.9484,3.0232,3.0247,3.0636,3.0356,2.916,2.8344,2.755,2.6715,2.5562,2.5526,2.665,3.0373,3.3303,3.5317,3.6709,3.7438,3.7494,3.7812,3.7954,3.7993,3.8004,3.6542,3.4154,3.4962,3.3849,3.1429,2.9701,0.0,0.0,0.0,0.0,0.0,0.0,0.0,0.0,0.0,0.0,0.0,0.0,0.0,0.0,0.0,0.0,0.0,0.0,0.0,0.0,0.0,0.0,0.0,0.0,0.0,0.0,0.0,0.0,0.0,0.0,0.0,0.0,0.0,0.0,0.0,0.0,0.0,0.0,3.3471,3.6245,0.0,0.0,0.0,0.0,3.5342,3.5284,3.6402,3.8869,3.8984,4.0054,4.2393,4.2739,4.2854,4.2739,4.3739,4.4239,4.4239,4.509,4.5475,4.5475,4.5475,4.5475,4.5475,4.5475,4.5475,4.5398,4.4321,4.3936,4.3906,4.2316,4.1585,4.0896,3.6049,3.7315,4.1042,0.0,0.0,0.0,0.0,0.0,0.0,0.0,0.0,2.7317,2.691,2.8052,2.8971,2.9169,3.0564,3.1535,3.1753,3.2859,3.3058,3.1895,3.0377,2.9052,2.7987,2.7288,2.8079,3.0463,3.3453,3.5305,3.6021,3.7515,3.8558,3.9049,3.9345,3.9596,3.9822,4.0039,3.944,3.8207,3.743,3.5965,3.4077,3.3465,3.1888,0.0,0.0,0.0,0.0,0.0,0.0,0.0,0.0,0.0,0.0,0.0,0.0,0.0,0.0,0.0,0.0,0.0,0.0,0.0,0.0,0.0,0.0,0.0,0.0,0.0,0.0,0.0,0.0,0.0,0.0,0.0,0.0,0.0,0.0,0.0,0.0,0.0,3.6818,3.8742,0.0,3.8495,3.8845,3.8837,3.804,3.9495,4.1008,4.2435,4.2512,4.3205,4.4667,4.4705,4.4705,4.4705,4.4975,4.5128,4.5128,4.5436,4.5594,4.5594,4.5594,4.5594,4.5594,4.5594,4.5594,4.5594,4.5244,4.5128,4.509,4.4474,4.4244,4.4013,4.2205,4.2705,4.4128,0.0,0.0,0.0,0.0,0.0,0.0,0.0,0.0,2.7889,2.7919,2.8967,2.9912,3.0401,3.1776,3.288,3.337,3.4374,3.4554,3.3553,3.2014,3.0805,2.9972,3.0213,3.1511,3.4001,3.6062,3.7367,3.7918,3.9083,3.9962,4.0486,4.0742,4.0983,4.1204,4.1564,4.1495,4.1127,4.013,3.8738,3.7119,3.6234,3.4038,3.1118,0.0,0.0,0.0,0.0,0.0,0.0,0.0,0.0,0.0,0.0,0.0,0.0,0.0,0.0,0.0,0.0,0.0,0.0,0.0,0.0,0.0,0.0,0.0,0.0,0.0,0.0,0.0,0.0,0.0,0.0,0.0,0.0,0.0,0.0,3.1959,3.4853,3.8819,4.0512,4.1281,4.1012,4.1474,4.1666,4.1435,4.2974,4.4167,4.4705,4.4744,4.5013,4.5594,4.5898,4.6052,4.6052,4.6321,4.6436,4.6436,4.6436,4.6436,4.6436,4.6436,4.5667,4.4397,4.5821,4.5629,4.4436,4.5859,4.6436,4.6398,4.5821,4.5594,4.5594,4.5594,4.5594,4.5629,0.0,0.0,0.0,0.0,0.0,0.0,2.8281,2.8105,2.8181,2.8926,3.0148,3.1201,3.1945,3.3111,3.4167,3.4924,3.5034,3.4747,3.3954,3.3139,3.2688,3.269,3.4183,3.5623,3.6967,3.8159,3.9525,4.1095,4.1423,4.1607,4.1615,4.1909,4.2021,4.2046,4.2389,4.2534,4.2522,4.2944,4.2128,4.0362,3.785,3.535,3.2929,0.0,0.0,0.0,0.0,0.0,0.0,0.0,0.0,0.0,0.0,0.0,0.0,0.0,0.0,0.0,0.0,0.0,0.0,0.0,0.0,0.0,0.0,0.0,0.0,0.0,0.0,0.0,0.0,0.0,0.0,0.0,0.0,0.0,2.9315,3.5177,3.9319,3.9473,4.1666,4.347,4.4239,4.4355,4.4705,4.5526,4.5633,4.5633,4.5642,4.5556,4.5475,4.5475,4.6317,4.6735,4.6735,4.7658,4.8082,4.8082,4.8082,4.8082,4.8082,4.8082,4.5851,4.2235,4.6312,4.5774,4.2312,4.6428,4.8082,4.7928,4.6321,4.5671,4.5671,4.5671,4.5671,4.5782,0.0,0.0,0.0,0.0,0.0,0.0,2.8353,2.8311,2.8145,2.7756,2.9777,3.1111,3.074,3.3086,3.4747,3.4961,3.6112,3.6714,3.6501,3.547,3.4837,3.4847,3.4701,3.6021,3.8996,3.9962,4.0663,4.1095,4.118,4.153,4.2128,4.2195,4.2351,4.2578,4.2932,4.2876,4.2522,4.2944,4.2816,4.2277,4.0927,3.9238,3.7434,0.0,0.0,0.0,0.0,0.0,0.0,0.0,0.0,0.0,0.0,0.0,0.0,0.0,0.0,0.0,0.0,0.0,0.0,0.0,0.0,0.0,0.0,0.0,0.0,0.0,0.0,0.0,0.0,0.0,0.0,0.0,3.4596,3.7749,3.7456,3.7959,3.9742,4.3436,4.4474,4.5013,4.5205,4.5244,4.5389,4.5733,4.6257,4.6579,4.6614,4.421,4.2854,4.2854,4.3081,4.3196,4.3196,4.6466,4.8082,4.8082,4.8082,4.8082,4.8082,4.8082,4.7466,4.6428,4.7582,4.7428,4.6466,4.762,4.8082,4.8043,4.7586,4.7394,4.7394,4.7394,4.7394,4.6932,0.0,0.0,0.0,0.0,0.0,0.0,2.8615,2.8521,2.8296,2.8003,2.9954,3.1354,3.1231,3.3463,3.5298,3.6002,3.7257,3.7705,3.7044,3.6661,3.6521,3.6645,3.7043,3.8428,4.0855,4.136,4.1764,4.2094,4.2094,4.2323,4.28,4.28,4.2889,4.3132,4.3605,4.3674,4.342,4.3943,4.4167,4.409,4.3201,4.1431,3.9281,3.9127,3.7507,3.5405,3.5792,3.5628,3.5,3.3104,0.0,0.0,0.0,0.0,0.0,0.0,0.0,0.0,0.0,0.0,0.0,0.0,0.0,0.0,0.0,0.0,0.0,0.0,0.0,0.0,0.0,0.0,0.0,0.0,3.7102,4.1442,4.2604,4.1895,4.2348,4.5257,4.5636,4.5692,4.5692,4.6046,4.6293,4.6385,4.712,4.7572,4.7627,4.5696,4.3753,4.1932,4.4314,4.4727,4.2854,4.7774,5.0236,5.0236,5.0236,5.0236,5.0236,5.0236,4.9274,4.7697,4.9466,4.9236,4.7735,4.9505,5.0236,5.0082,0.0,0.0,0.0,0.0,4.8082,4.7735,0.0,0.0,0.0,0.0,0.0,0.0,2.894,2.8706,2.859,2.8946,3.0467,3.1825,3.2509,3.4197,3.5892,3.7382,3.8248,3.8131,3.678,3.7044,3.7598,3.8461,4.0088,4.1434,4.2396,4.2433,4.2808,4.3506,4.3506,4.3506,4.3506,4.3506,4.3532,4.358,4.4306,4.4631,4.4714,4.5318,4.5594,4.5513,4.4744,4.2628,3.9935,4.0554,3.9407,3.7539,3.8309,3.8691,3.8656,3.7584,0.0,0.0,0.0,0.0,0.0,0.0,0.0,0.0,0.0,0.0,0.0,0.0,0.0,0.0,0.0,0.0,0.0,0.0,0.0,0.0,0.0,0.0,0.0,0.0,3.8672,4.1645,4.538,4.595,4.5932,4.5815,4.5909,4.6006,4.6087,4.6875,4.7337,4.7388,4.8161,4.8706,4.8796,4.844,0.0,0.0,0.0,4.8601,4.4628,5.0317,5.3197,5.3197,5.3197,5.3197,5.3197,5.3197,5.1159,4.7812,5.1582,5.1082,4.7889,5.1659,5.3197,5.289,4.9851,4.8697,4.862,4.8043,4.8197,4.8697,0.0,0.0,0.0,0.0,0.0,0.0,2.8975,2.8934,2.8917,2.8975,3.0974,3.2442,3.2583,3.5238,3.7155,3.7456,3.8248,3.8836,3.9174,3.6883,3.7257,4.1297,4.0602,4.112,4.3212,4.3286,4.3322,4.3506,4.3506,4.3506,4.3506,4.3506,4.3627,4.3935,4.438,4.4757,4.5017,4.5429,4.5594,4.5594,4.5436,4.4551,4.3282,4.2777,4.2302,4.1964,4.2118,4.234,4.2185,3.9871,3.9602,4.008,3.9172,3.8363,0.0,0.0,0.0,0.0,0.0,0.0,0.0,0.0,0.0,0.0,0.0,0.0,0.0,0.0,0.0,0.0,0.0,0.0,0.0,4.0968,4.3191,4.5081,4.5816,4.6603,4.7035,4.6921,4.6929,4.7218,4.7925,4.8141,4.8306,4.8414,4.9134,4.9864,5.0636,4.8024,4.6381,4.6105,4.7214,4.7382,4.6394,5.0928,5.3197,5.3197,5.3197,0.0,5.3197,5.3197,5.2736,5.2043,5.2851,5.2736,5.2043,5.2851,5.3197,5.3121,5.2467,5.2197,5.1741,4.7591,4.8663,5.1664,0.0,0.0,0.0,0.0,0.0,0.0,2.8981,2.8981,2.8981,2.8981,3.0754,3.2302,3.3103,3.5011,3.6413,3.6861,3.689,3.7727,3.9761,3.8358,3.8909,4.2176,4.1927,4.2258,4.3469,4.3506,4.3506,4.3506,4.3506,4.3506,4.3506,4.3506,4.3589,4.3791,4.4369,4.4701,4.4884,4.5395,4.5594,4.5594,4.5594,4.5321,4.4898,4.4513,4.4383,4.4388,4.4388,4.4527,4.4424,4.266,4.2416,4.2685,4.1785,4.1192,4.0501,0.0,0.0,0.0,0.0,0.0,0.0,0.0,0.0,0.0,0.0,0.0,0.0,0.0,0.0,3.832,3.7461,0.0,3.9597,4.0886,4.2527,4.4358,4.6445,4.7557,4.7898,4.7271,4.7651,4.811,4.8579,4.9434,4.997,5.0067,5.1183,5.2117,5.2565,5.0956,4.9169,4.7377,4.9702,4.9922,4.7631,5.2156,5.4434,5.4434,5.453,5.4757,5.5093,5.5152,5.5408,5.5736,5.5736,5.5736,5.5736,5.528,5.4857,5.4434,5.4434,5.3933,5.289,5.0356,5.101,5.2851,0.0,0.0,0.0,0.0,0.0,0.0,0.0,2.8981,2.9097,2.9427,3.0723,3.2265,3.3844,3.4754,3.5525,3.6229,3.5378,3.6222,3.9688,3.9761,4.0524,4.2433,4.3139,4.3506,4.3506,4.3506,4.3506,4.3506,4.3506,4.3506,4.3506,4.3506,4.3563,4.3726,4.4311,4.4682,4.4843,4.5386,4.5594,4.5594,4.5594,4.5594,4.5594,4.5594,4.5594,4.5594,4.5594,4.5696,4.5703,4.4992,4.4827,4.4822,4.4115,4.3886,4.3272,4.0198,4.0289,0.0,0.0,0.0,0.0,0.0,0.0,0.0,0.0,3.8906,3.9844,3.9023,3.9531,3.9687,3.8242,3.8008,3.875,4.1016,4.1992,4.3711,4.7344,4.8594,4.8861,4.8111,4.8737,4.927,4.9466,5.0933,5.1914,5.1914,5.3203,5.4062,5.4258,5.4258,5.2693,4.9357,5.3252,5.3724,5.0099,5.4203,5.6261,5.6266,5.6372,5.6725,5.7305,5.7387,5.7762,5.8313,5.8313,5.8313,5.8236,5.755,5.6824,5.6203,5.6203,5.5395,5.4159,5.3818,5.3703,5.3703,0.0,0.0,0.0,0.0,0.0,0.0,0.0,0.0,2.95,3.095,3.1898,3.3066,3.4704,3.5635,3.6193,3.6303,3.4835,3.5642,3.9651,3.9239,4.0194,4.3212,4.3433,4.3506,4.3506,4.3506,4.3506,4.3506,4.3506,4.3506,4.3506,4.3506,4.3855,4.4499,4.4579,4.4937,4.548,4.5573,4.5594,4.5594,4.5594,4.5594,4.5594,4.5594,4.5594,4.5594,4.5594,4.5696,4.578,4.5703,4.5692,4.5763,4.5646,4.5607,4.5257,4.3376,4.2987,4.2404,3.9054,3.5572,3.2904,3.3046,3.5273,3.6836,0.0,3.9922,4.4375,4.0547,4.2773,4.5391,4.5195,4.5156,4.5508,4.6562,4.6836,4.7305,4.8594,4.9492,5.0273,5.0858,5.1015,5.1406,5.2187,5.3125,5.3711,5.3711,5.3906,5.4336,5.5117,5.5156,5.523,5.5382,5.6697,5.7042,5.6381,5.7687,5.8378,5.8378,5.8395,5.835,5.8338,5.8363,5.8317,5.8313,5.8313,5.8313,5.8275,5.8198,5.8088,5.8011,5.8011,5.789,5.755,5.5972,5.5439,5.5439,0.0,0.0,0.0,0.0,0.0,0.0,0.0,0.0,2.9427,3.054,3.1384,3.2522,3.413,3.4204,3.4351,3.4798,3.3336,3.4321,3.8909,3.8909,4.0157,4.3359,4.3506,4.3506,4.3506,4.3506,4.3506,4.3506,4.3506,4.3506,4.3506,4.3506,4.3672,4.3966,4.4425,4.477,4.5039,4.5434,4.5594,4.5594,4.5594,4.5594,4.5594,4.5594,4.5594,4.5475,4.4513,4.4186,0.0,4.4226,4.4242,4.4424,4.5427,4.5073,4.4175,4.3488,4.2668,4.1429,3.9014,3.8541,3.8531,3.7655,4.0,4.2266,4.1172,4.3711,4.5781,4.3984,4.5469,4.707,4.707,4.5391,4.4961,4.7891,4.6641,4.6328,4.9258,5.082,5.1797,5.2109,5.0859,4.9883,4.9766,5.2773,5.3711,5.1211,5.3828,5.5898,5.6758,5.6797,5.7187,5.7999,5.8286,5.8369,5.8254,5.8545,5.8701,5.8704,5.8774,5.8968,5.9271,5.9342,5.9521,5.9742,5.9742,5.9473,5.9006,5.9006,5.8704,5.8313,5.8313,5.8313,5.8204,5.7473,5.7203,5.7203,0.0,0.0,0.0,0.0,0.0,0.0,0.0,0.0,0.0,0.0,3.0913,3.2015,3.3623,3.3066,3.2919,3.3733,3.2926,3.4174,3.8424,3.9122,4.0646,4.35,4.3538,4.3529,4.3647,4.3538,4.3506,4.3506,4.3506,4.3506,4.3506,4.3506,4.3605,4.3831,4.4376,4.4714,4.4914,4.5405,4.5594,4.5594,4.5594,4.5594,4.5594,4.5594,4.5321,4.4744,4.3547,4.3085,4.3047,4.2547,4.2701,4.3239,4.3974,4.3736,4.3075,4.2588,4.1346,3.9896,3.8982,4.0063,4.145,4.1522,4.3242,4.5156,4.6094,4.6484,4.6641,4.6641,4.7344,4.7969,4.7969,4.5898,4.5312,4.8711,4.7148,4.6758,5.0391,5.1914,5.2422,5.1758,5.0039,4.7812,4.5039,5.0312,5.3203,5.1523,5.4844,5.7344,5.8203,5.8242,5.8555,5.918,5.9285,5.9308,5.9308,5.9458,5.9543,5.9543,5.964,5.9847,6.0205,6.0224,6.0415,6.0787,6.0787,6.0441,5.9858,5.9858,5.9511,5.8973,5.8973,5.8973,5.8973,5.8973,5.8704,5.8313,0.0,0.0,0.0,0.0,0.0,0.0,0.0,0.0,0.0,0.0,0.0,0.0,0.0,3.3066,3.2919,3.3733,3.4454,3.5958,3.8534,4.0149,4.1923,4.3915,4.366,4.3635,4.3967,4.3652,4.3506,4.3506,4.3506,4.3506,4.3506,4.3506,4.3894,4.4579,4.4599,4.4966,4.5573,4.5586,4.5594,4.5594,4.5594,4.5594,4.5594,4.5594,4.459,4.3162,4.3124,4.3085,4.2854,4.1166,4.1704,4.2816,4.1166,4.1785,4.279,4.1101,3.9411,3.8298,3.928,3.7785,3.6981,4.1286,4.1875,4.2226,4.5547,4.6953,4.7578,4.7578,4.8242,4.8867,4.8867,4.8789,4.9023,5.0,5.0078,5.0625,5.2383,5.2656,5.1797,4.9297,4.8945,4.5937,3.8359,4.5351,5.2383,5.7265,5.7773,5.8242,5.9101,5.914,5.918,5.9219,5.9961,6.0351,6.0351,6.1172,6.1601,6.1601,6.1601,6.1491,6.1229,6.0901,6.076,6.0787,6.0787,6.0787,6.0748,6.0748,6.0748,6.0704,6.0704,6.0704,6.0704,6.0704,5.9704,5.8313,0.0,0.0,0.0,0.0,0.0,0.0,0.0,0.0,0.0,0.0,0.0,0.0,0.0,0.0,0.0,0.0,3.3073,3.41,3.7669,3.8403,4.0073,4.3066,4.3607,4.3889,4.399,4.3896,4.3726,4.3506,4.3506,4.3622,4.3826,4.3826,4.4125,4.4624,4.4837,4.5044,4.5273,4.5523,4.5594,4.5594,4.5594,4.5594,4.5475,4.4359,4.3585,4.2816,0.0,3.9738,3.9623,3.9046,3.9238,3.9815,4.0319,4.0127,3.9392,3.7696,3.842,3.9372,3.7514,3.893,4.1056,4.1483,4.3555,4.5742,4.6914,4.7851,4.8476,4.8476,4.7773,4.7187,4.7187,4.5742,4.543,4.8047,4.6094,4.6211,5.1914,4.875,4.7695,5.2578,4.8594,4.6914,5.0625,5.0976,5.0547,4.9414,5.5195,5.9101,5.9961,6.0,6.0273,6.0859,6.1133,6.125,6.125,6.1562,6.1719,6.1719,6.1514,6.1378,6.1313,6.1548,6.1672,6.1672,6.2243,6.2474,6.2474,6.2474,6.2474,6.2397,6.1864,6.1672,6.1595,6.1018,6.0441,5.9973,0.0,0.0,0.0,0.0,0.0,0.0,0.0,0.0,0.0,0.0,0.0,0.0,0.0,0.0,0.0,0.0,0.0,3.3807,3.6413,3.7162,3.8685,4.1381,4.1869,4.2299,4.2701,4.2886,4.2868,4.2653,4.3336,4.3807,4.399,4.4139,4.4414,4.4794,4.4994,4.5175,4.5278,4.5528,4.5594,4.5556,4.4936,4.4705,4.4513,4.282,4.1816,0.0,3.8777,3.7623,3.7119,3.7119,3.7507,3.8084,3.8546,3.7969,3.7119,3.7234,3.8469,3.9604,3.8702,4.1216,4.3964,4.3593,4.5781,4.8047,4.8047,4.875,4.9375,4.9375,4.8711,4.793,4.7344,4.5078,4.4453,4.7969,4.543,4.5508,5.2617,4.9805,4.8633,5.2969,4.9336,4.8242,5.2851,5.2695,5.1172,4.8437,5.3867,5.7695,5.8515,5.8594,5.9531,6.164,6.1719,6.1719,6.1719,6.1992,6.2305,6.2617,6.2311,6.2181,6.2208,6.2431,6.1556,5.994,6.2275,6.2275,6.0737,6.2545,6.3314,6.3237,6.2743,6.2512,6.2474,6.1897,6.1704,6.1627,0.0,0.0,0.0,0.0,0.0,0.0,0.0,0.0,0.0,0.0,0.0,0.0,0.0,0.0,0.0,0.0,0.0,0.0,3.4997,3.6486,3.791,3.9103,3.884,3.9172,4.0307,4.0768,4.0973,4.0993,4.2846,4.3751,4.3744,4.4124,4.4505,4.4832,4.4843,4.5,4.5308,4.5321,4.5325,4.5205,4.3628,4.297,4.2777,4.1012,3.9396,3.8007,3.7892,3.685,3.55,3.55,3.6619,3.7738,3.6248,3.5741,3.635,3.9407,3.9486,3.9238,4.2416,4.4185,4.5529,4.7226,4.832,4.8984,4.8984,4.9648,5.0234,5.0078,5.0586,5.0547,4.8828,4.6289,4.5703,4.9414,4.7656,4.7969,5.4101,5.4805,5.3594,5.0625,5.0937,4.9922,4.6133,5.0976,5.4258,5.4062,5.4258,5.4765,5.5586,5.5625,5.75,6.164,6.1758,6.1797,6.1836,6.2656,6.3476,6.4297,6.3949,6.3816,6.3806,6.3513,6.0742,5.6439,6.1314,6.0698,5.6593,6.1435,6.3429,6.3429,6.3391,6.3352,6.3352,6.3314,6.3314,6.3083,0.0,0.0,0.0,0.0,0.0,0.0,0.0,0.0,0.0,0.0,0.0,0.0,0.0,0.0,0.0,0.0,0.0,0.0,3.4961,3.5408,3.6427,3.8244,3.8241,3.86,3.9476,3.9635,3.9571,3.9305,3.9826,4.0163,4.0439,4.0547,4.0747,4.1076,4.1294,4.1409,4.1527,4.1724,4.1785,4.1747,4.132,4.1166,4.0973,3.9281,3.8354,3.7853,3.658,3.5846,3.55,3.55,3.6619,3.8152,3.908,3.9296,3.9034,3.8029,4.0263,4.2815,4.1883,4.4669,4.8006,4.8437,4.9219,4.9883,4.9883,5.0508,5.0547,4.8633,4.7383,4.5937,4.3594,3.9961,3.9492,4.6211,4.2969,4.2148,4.9492,4.8281,4.7773,5.0742,5.1289,5.2734,5.6133,5.7851,5.7695,5.5156,5.793,5.9844,6.0078,6.0078,6.0859,6.2617,6.2656,6.2969,6.3633,6.3867,6.4062,6.4297,6.3949,6.3816,6.3806,6.4131,6.3551,6.2435,6.4397,6.4512,6.3403,6.4705,6.5243,6.5166,6.4512,6.4282,6.4199,6.3545,6.3314,6.3237,0.0,0.0,0.0,0.0,0.0,0.0,0.0,0.0,0.0,0.0,0.0,0.0,0.0,0.0,0.0,0.0,0.0,0.0,0.0,3.427,3.4974,3.6113,3.6157,3.6528,3.733,3.7745,3.799,3.8182,3.8671,3.9219,3.97,3.9508,3.9569,3.9893,4.0029,4.0176,4.0274,4.043,4.0516,0.0,0.0,3.9396,3.9204,3.7546,3.6888,3.6773,3.5846,3.5274,3.5273,3.7238,3.7719,3.8067,4.0956,4.1318,4.0757,4.121,4.3004,4.473,4.445,4.6866,4.9453,4.9453,5.0117,5.043,4.9297,4.9414,4.9101,4.6914,4.5664,4.4453,4.2617,3.875,3.8398,4.6172,4.3008,4.1875,4.8516,4.7773,4.7773,5.1016,5.1758,5.418,5.9844,6.0742,6.0156,5.8242,5.8594,5.8906,5.8906,5.9258,6.0547,6.293,6.3359,6.3984,6.4844,6.4883,6.5038,6.5299,6.5056,6.4905,6.4815,6.5131,6.4029,6.2066,6.4801,6.4723,6.2827,6.4997,6.5904,6.5865,6.5359,6.5166,6.5128,6.4628,6.4436,6.4436,0.0,0.0,0.0,0.0,0.0,0.0,0.0,0.0,0.0,0.0,0.0,0.0,0.0,0.0,0.0,0.0,0.0,0.0,0.0,0.0,3.3733,3.3843,3.3723,3.4057,3.4961,3.5745,3.653,3.7345,3.8234,3.8992,3.9656,3.9181,3.9099,3.9304,3.9404,3.9575,3.9784,3.9812,3.9858,3.9704,3.8238,3.7661,3.7507,0.0,3.55,3.55,3.55,3.4981,3.4982,3.9418,3.9328,3.8109,4.2408,4.2842,4.2372,4.5755,4.6168,4.5986,4.7859,4.9367,5.0351,5.0351,5.0898,5.082,4.8594,4.793,4.7266,4.5391,4.4922,4.4609,4.3828,4.0547,4.0312,4.7383,4.5195,4.3945,4.793,4.957,5.0469,5.0703,5.1992,5.4883,6.0078,6.0742,6.1133,6.1836,5.8437,5.6328,5.6328,5.7148,5.9375,6.3203,6.418,6.5,6.5741,6.5741,6.6001,6.6558,6.6452,6.6305,6.616,6.616,6.3714,5.9753,6.4182,6.3587,5.9839,6.4132,6.5904,6.5904,6.5904,6.5904,6.5904,6.5904,6.5904,6.5904,0.0,0.0,0.0,0.0,0.0,0.0,0.0,0.0,0.0,0.0,2.9807,3.0995,0.0,0.0,0.0,0.0,0.0,0.0,0.0,0.0,0.0,3.411,3.3295,3.35,3.4961,3.5144,3.5635,3.6494,3.597,3.5821,3.5938,3.5411,3.5192,3.5267,3.5752,3.5989,3.6039,3.6285,3.6388,3.635,3.6038,3.5923,3.5885,3.5615,0.0,0.0,3.55,3.4981,3.4982,3.9418,4.0139,3.9898,4.4263,4.5839,4.5872,4.461,4.6551,4.8759,4.7144,4.8906,5.1172,5.1172,5.1289,5.1289,5.0859,4.9687,4.7969,4.5508,4.4414,4.3867,4.3711,4.25,4.2656,4.6172,4.4922,4.2539,3.9922,4.625,5.0195,4.75,5.1094,5.5781,6.0976,5.8398,5.8164,6.2461,6.2109,6.164,6.164,6.25,6.3633,6.5117,6.5976,6.6441,6.6441,6.6441,6.6438,6.6429,6.6402,6.6371,6.6341,6.6341,6.579,6.4836,6.5722,6.552,6.4674,6.5538,6.5904,6.5904,6.5904,6.5904,6.5904,6.5904,6.5904,6.5904,0.0,0.0,0.0,0.0,0.0,0.0,0.0,2.8863,2.8599,2.7867,2.8491,2.9591,3.1179,3.2578,3.374,0.0,0.0,0.0,0.0,0.0,0.0,0.0,3.3962,3.4068,3.4839,3.5261,3.5808,3.6502,0.0,3.5615,3.5873,3.4916,3.4513,3.4663,3.4981,3.5182,3.5331,3.5462,3.55,3.55,3.55,3.55,3.55,3.55,0.0,0.0,3.55,3.4981,3.4824,3.836,3.8997,3.9343,4.5098,4.7128,4.7075,4.5493,4.7412,4.9642,4.7539,4.9141,5.1406,5.1406,5.1406,5.082,4.8594,4.7461,4.6016,4.2969,4.1992,4.1875,4.2305,4.1328,4.1992,4.6875,4.6172,4.4961,4.4687,4.8555,5.1133,5.0391,5.25,5.5156,5.8086,5.6914,5.6992,5.9492,6.0508,6.1797,6.3594,6.4492,6.539,6.625,6.668,6.6834,6.6743,6.6743,6.6677,6.6503,6.6429,6.6341,6.624,6.624,6.6179,6.6109,6.6109,6.4575,6.2246,6.4855,6.432,6.2204,6.4859,6.5904,6.5904,6.5904,6.5904,6.5904,0.0,0.0,0.0,0.0,0.0,0.0,0.0,2.8503,2.8133,2.7214,2.7363,2.8315,3.0284,3.2001,3.3449,0.0,0.0,0.0,0.0,0.0,0.0,0.0,0.0,0.0,3.4934,0.0,0.0,3.7032,3.6453,0.0,0.0,0.0,0.0,0.0,3.517,3.5281,3.55,3.55,3.55,0.0,0.0,3.55,3.55,0.0,0.0,0.0,0.0,3.5078,3.4935,3.7424,3.8012,3.8731,4.4792,4.66,4.6484,4.6562,4.8047,4.9453,4.8633,4.9883,5.1406,5.1406,5.1523,5.0664,4.6719,4.5703,4.4648,4.1367,4.043,4.0547,4.1797,4.0898,4.1875,4.7695,4.6992,4.6797,4.9883,5.0781,5.1836,5.3789,5.4141,5.4922,5.6523,5.664,5.707,5.8164,5.9844,6.2031,6.4726,6.5508,6.6172,6.6875,6.6914,6.6875,6.6833,6.6833,6.6733,6.6473,6.6432,6.629,6.6109,6.6126,6.6121,6.6109,6.6109,6.3186,5.8845,6.385,6.2897,5.8813,6.3897,6.5904,6.5904,6.5904,6.5904,6.5904,0.0,0.0,0.0,0.0,0.0,0.0,0.0,2.8761,2.8245,2.6825,2.736,2.8211,2.9158,3.0803,3.2493,0.0,0.0,0.0,0.0,0.0,0.0,0.0,0.0,0.0,0.0,0.0,0.0,3.8148,3.7375,0.0,0.0,0.0,0.0,0.0,0.0,3.5483,3.55,3.55,0.0,0.0,0.0,0.0,0.0,0.0,0.0,0.0,0.0,3.5433,3.5672,3.7569,3.8636,3.9716,4.2838,4.3368,4.3476,4.6562,4.7656,4.832,5.0469,5.1211,5.1406,5.1406,5.1992,5.1875,4.9141,4.793,4.6601,4.3906,4.2148,4.1797,4.4219,4.4531,4.5156,4.7344,4.5586,4.4609,4.6484,4.8828,5.1211,5.3711,5.4687,5.6758,6.0742,5.8398,5.8555,6.3242,6.5195,6.6328,6.664,6.6758,6.6836,6.6914,6.6914,6.6791,6.6628,6.6628,6.6488,6.6139,6.6316,6.629,6.6119,6.6287,6.6268,6.6109,6.6109,6.3124,5.8704,6.3794,6.2897,5.8813,6.3897,6.5904,6.5904,6.5904,6.5904,6.5904,0.0,0.0,0.0,0.0,0.0,0.0,2.9107,2.8992,2.8399,2.6802,2.689,2.7236,2.7544,2.9124,3.124,3.3975,0.0,0.0,0.0,0.0,0.0,0.0,0.0,0.0,0.0,0.0,3.6865,3.7806,3.7712,0.0,0.0,0.0,0.0,0.0,0.0,3.55,3.55,3.55,0.0,0.0,0.0,0.0,0.0,0.0,0.0,0.0,0.0,0.0,3.5684,3.6986,3.7676,3.833,4.0468,4.0595,4.0454,4.2916,4.5895,4.8164,4.707,4.9023,5.1523,5.2031,5.2422,5.1914,4.8828,4.7851,4.6562,4.293,4.1641,4.1523,4.2539,4.2695,4.3594,4.6367,4.5937,4.6953,5.1836,5.3398,5.5195,5.8281,5.8945,5.9023,5.8672,5.7851,5.8633,6.1719,6.2148,6.3633,6.6719,6.6914,6.6914,6.6914,6.6914,6.6874,6.6787,6.6787,6.6632,6.6396,6.6402,6.629,6.6109,6.6094,6.6046,6.5974,6.5974,6.1329,5.4362,6.2512,6.1095,5.4554,6.2704,6.5904,6.5904,6.5904,6.5904,6.5904,0.0,0.0,0.0,0.0,0.0,3.0388,2.9278,2.9088,2.8585,2.7159,2.6967,2.6967,2.6967,2.8467,3.0547,3.324,3.4468,0.0,0.0,0.0,0.0,0.0,0.0,0.0,0.0,0.0,3.6546,3.6922,3.7394,3.7694,0.0,0.0,3.658,3.6308,0.0,0.0,0.0,0.0,0.0,0.0,0.0,0.0,0.0,0.0,0.0,0.0,0.0,0.0,0.0,0.0,0.0,3.7638,3.9145,3.9397,3.953,4.125,4.4593,4.7341,4.5703,4.8437,5.1914,5.2539,5.25,5.1484,4.832,4.7187,4.5742,4.1992,4.1211,4.1211,4.1211,4.1406,4.2695,4.6133,4.6914,4.9101,5.5,5.582,5.7109,6.0547,6.0976,6.039,5.9023,5.9687,6.0781,6.2226,6.1797,6.3047,6.6719,6.6914,6.6914,6.6914,6.6914,6.6914,6.6914,6.6833,6.6733,6.6533,6.6393,6.5428,6.383,6.5276,6.5089,6.3743,6.5243,6.0979,5.3631,6.2326,6.0787,5.3823,6.2518,6.5904,6.5904,6.5904,6.5904,6.5904,0.0,0.0,0.0,0.0,0.0,0.0,2.9357,2.9088,2.8819,2.8008,2.7893,2.7893,2.7893,2.9387,3.0731,3.1657,3.324,0.0,0.0,0.0,0.0,0.0,0.0,0.0,0.0,0.0,3.5538,3.5535,3.6308,3.6308,3.5535,3.6346,3.6269,3.55,0.0,0.0,0.0,0.0,0.0,0.0,0.0,0.0,0.0,0.0,0.0,0.0,0.0,0.0,0.0,0.0,0.0,0.0,0.0,4.0228,4.1328,4.3048,4.4222,4.5522,4.8124,5.0742,5.2695,5.2695,5.2031,5.0742,4.8164,4.6289,4.4297,4.1719,4.1211,4.1211,4.1211,4.1836,4.3516,4.7031,4.832,5.0078,5.3555,5.4023,5.5312,5.8828,5.9219,6.0547,6.3906,6.5,6.5898,6.6758,6.6836,6.6836,6.6914,6.6914,6.6914,6.6914,6.6914,6.6914,6.6914,6.6692,6.6529,6.6387,6.6191,6.3394,5.855,6.3589,6.3166,5.866,6.3705,6.2974,5.8627,6.3782,6.2858,5.8742,6.3897,6.5904,6.5904,6.5904,6.5904,6.5904,0.0,0.0,0.0,0.0,0.0,0.0,0.0,3.0388,2.9698,2.8816,2.8703,2.8511,2.797,2.9387,3.0731,3.1618,3.324,0.0,0.0,0.0,0.0,0.0,0.0,0.0,0.0,0.0,3.55,3.55,3.6308,3.658,3.6346,3.658,3.658,3.6308,3.5731,3.55,0.0,0.0,0.0,0.0,0.0,0.0,3.5514,0.0,0.0,0.0,0.0,0.0,0.0,0.0,0.0,0.0,0.0,0.0,0.0,4.0936,4.2443,4.4138,4.4375,4.6367,4.8476,4.9062,4.9023,4.8281,4.6289,4.5391,4.4297,4.1719,4.1211,4.1367,4.1914,4.2226,4.375,4.7812,4.8711,5.0703,5.5937,5.668,5.793,6.1406,6.2851,6.3984,6.5078,6.2773,6.2812,6.6601,6.3633,6.3164,6.6719,6.6914,6.6914,6.6914,6.6914,6.6833,6.669,6.663,6.6447,6.6183,6.6146,6.3351,5.8467,6.3589,6.3128,5.8583,6.3705,6.3012,5.8698,6.3782,6.2897,5.8813,6.3897,6.5904,6.5904,6.5904,6.5904,6.5904,0.0,0.0,0.0,0.0,0.0,0.0,0.0,3.1426,3.0695,3.0163,2.9775,2.939,2.889,3.008,3.1234,3.2083,3.3394,0.0,0.0,0.0,0.0,0.0,0.0,0.0,3.55,3.55,3.5346,3.5003,3.585,3.608,3.5776,3.608,3.6231,3.6231,3.5731,3.55,0.0,0.0,0.0,0.0,0.0,0.0,3.5585,0.0,0.0,0.0,0.0,0.0,0.0,0.0,0.0,0.0,0.0,0.0,0.0,0.0,4.0972,4.2305,4.2383,4.4297,4.6523,4.7383,4.7109,4.6328,4.5234,4.4258,4.3125,4.1523,4.2226,4.2969,4.25,4.375,4.543,4.7148,4.9336,5.1797,5.4609,5.5547,5.6953,5.9765,6.1914,6.3945,6.5898,6.3672,6.3437,6.664,6.3906,6.3515,6.6719,6.6914,6.6874,6.6788,6.6788,6.6737,6.6618,6.6459,6.6302,6.6109,6.6049,6.3323,5.8467,6.3589,6.3128,5.8583,6.3705,6.4089,0.0,6.4589,6.4012,6.1473,6.4666,6.5904,6.5904,6.5904,6.5904,6.5904,0.0,0.0,0.0,0.0,0.0,0.0,0.0,3.2314,3.1775,3.1775,3.108,3.0577,3.0577,3.1349,3.2199,3.2929,0.0,0.0,0.0,0.0,0.0,0.0,0.0,0.0,3.5499,3.546,3.504,3.4202,3.504,3.5001,3.4241,3.512,3.5499,3.5499,3.5499,3.5499,0.0,0.0,0.0,0.0,3.5689,3.5686,0.0,0.0,0.0,0.0,0.0,0.0,0.0,0.0,0.0,0.0,0.0,0.0,0.0,0.0,0.0,0.0,0.0,4.3984,4.6133,4.6953,4.5937,4.4726,4.4726,4.2891,0.0,4.1523,4.4101,4.5586,4.3281,4.6328,4.8359,4.5781,5.0234,5.3164,5.0703,5.1992,5.3672,5.5039,5.789,6.1523,6.6094,6.6758,6.6914,6.6914,6.6914,6.6914,6.6914,6.6875,6.6789,6.6619,6.6565,6.6558,6.6558,6.6244,6.5906,6.5538,6.5774,6.3051,5.7934,6.3397,6.3128,5.8583,6.3705,6.5904,6.5904,6.5904,6.5904,6.5904,6.5904,6.5904,6.5904,6.5904,6.5904,6.5904,0.0,0.0,0.0,0.0,0.0,0.0,0.0,0.0,0.0,0.0,3.2429,3.2314,3.2314,3.3083,3.3702,0.0,0.0,0.0,0.0,0.0,0.0,0.0,0.0,0.0,3.565,3.5062,3.4639,3.4418,3.4639,3.4639,3.4457,3.5266,3.5652,3.5652,3.5652,3.5652,0.0,0.0,0.0,0.0,3.5677,3.5686,0.0,0.0,0.0,0.0,3.6946,3.7693,0.0,0.0,0.0,0.0,0.0,0.0,0.0,0.0,3.8398,3.8984,3.9375,0.0,4.2461,4.2656,4.2383,4.2109,0.0,4.1641,4.1953,4.457,4.5742,4.6523,4.7226,4.9805,5.1172,4.9297,5.1797,5.3555,5.2305,5.5312,5.6836,5.457,6.0703,6.4531,6.3047,6.5312,6.6914,6.6914,6.6914,6.6914,6.6914,6.6743,6.6635,6.6618,6.6351,6.6236,6.6236,6.613,6.4082,6.0162,6.4049,6.121,5.2784,6.1781,6.3128,5.8583,6.3705,6.5904,6.5904,6.5904,6.5904,6.5904,6.5904,6.5904,6.5904,6.5904,6.5904,6.5904,0.0,0.0,0.0,0.0,0.0,0.0,0.0,0.0,0.0,0.0,0.0,3.3045,3.3433,3.3933,0.0,0.0,0.0,0.0,0.0,0.0,0.0,0.0,0.0,3.5669,3.5686,3.4902,3.4669,3.5068,3.4669,3.4709,3.5068,3.5493,3.5686,3.5686,3.5686,3.5686,0.0,0.0,0.0,0.0,3.5849,0.0,0.0,0.0,0.0,0.0,3.7577,3.8476,0.0,4.0195,4.0547,4.0508,0.0,0.0,0.0,0.0,3.8242,3.8672,3.9101,3.9883,4.0976,4.2539,4.207,4.1523,4.2695,4.2305,4.2617,4.5664,4.6953,4.7773,4.8711,4.9375,4.9844,5.0156,4.9687,4.9922,5.1836,5.4805,5.6094,5.4219,5.8476,6.1445,6.1133,6.4609,6.6914,6.6914,6.6914,6.6874,6.6785,6.6678,6.6537,6.6373,6.6204,6.6109,6.6109,6.6028,6.3417,5.8352,6.3474,6.1781,5.4434,6.2326,6.4397,6.1781,6.182,6.3358,6.5711,6.2941,6.3441,6.5904,6.5904,6.5904,6.5904,6.5904,6.5904,6.5904,0.0,0.0,0.0,0.0,0.0,0.0,0.0,0.0,0.0,0.0,0.0,0.0,0.0,0.0,0.0,0.0,0.0,0.0,0.0,0.0,0.0,0.0,3.575,3.575,3.5762,3.5097,3.5136,3.5958,3.498,3.5019,3.5958,3.5684,3.5606,3.5764,3.5764,3.5764,0.0,0.0,0.0,0.0,3.5975,0.0,0.0,0.0,0.0,0.0,0.0,0.0,0.0,4.0742,4.0508,3.9844,3.9609,0.0,0.0,0.0,0.0,0.0,3.9687,3.9883,4.0703,4.4141,4.3086,4.1914,4.4609,4.375,4.332,4.6601,4.8437,4.9414,4.9141,4.8867,4.8906,4.9687,4.7383,4.6992,5.1367,5.3711,5.4765,5.4258,5.5898,5.8008,6.0351,6.4414,6.6914,6.6914,6.6874,6.6787,6.6621,6.6551,6.639,6.6123,6.607,6.6089,6.6089,6.5961,6.332,5.8352,6.3474,6.3243,5.8467,6.3589,6.5904,6.5634,6.0544,6.1243,6.5519,6.0441,6.1325,6.5904,6.5904,6.5904,6.5904,6.5904,6.5904,6.5904,0.0,0.0,0.0,0.0,0.0,0.0,0.0,0.0,0.0,0.0,0.0,0.0,0.0,0.0,0.0,0.0,0.0,0.0,0.0,0.0,0.0,3.5934,3.5912,3.591,3.5934,3.5817,3.6208,3.7067,3.5465,3.5504,3.7028,3.5543,3.5231,3.5934,3.5934,3.5934,3.5973,0.0,0.0,3.5976,3.6015,0.0,0.0,0.0,0.0,0.0,0.0,0.0,0.0,4.0039,4.0,3.9648,3.8164,0.0,0.0,0.0,0.0,0.0,3.9844,3.9883,4.0703,4.4141,4.3086,4.207,4.5351,4.418,4.418,5.043,5.1914,5.168,5.0273,5.5117,5.6836,4.9219,5.1094,5.3789,5.4609,5.7422,5.8359,5.543,6.1015,6.418,6.1758,6.4765,6.6914,6.6914,6.674,6.663,6.6618,6.6329,6.6148,6.6114,6.5997,6.594,6.594,6.5929,6.332,5.8352,6.3474,6.3243,5.8467,6.3589,6.5904,6.5865,6.4936,6.5051,6.582,6.4903,6.5057,6.5904,6.5904,6.5904,6.5904,6.5904,6.5904,6.6013,0.0,0.0,0.0,0.0,0.0,0.0,0.0,0.0,0.0,0.0,0.0,0.0,0.0,0.0,0.0,0.0,0.0,0.0,0.0,0.0,3.5973,3.6016,3.6403,3.6442,3.6016,3.5547,3.5508,3.5898,3.4609,3.4648,3.5898,3.5547,3.5859,3.668,3.6211,3.6016,3.6016,3.6016,3.6016,3.6055,0.0,0.0,0.0,0.0,0.0,0.0,0.0,0.0,0.0,0.0,3.9258,3.8437,3.8125,0.0,0.0,0.0,0.0,0.0,4.0469,4.0586,4.1758,4.6601,4.3789,4.168,4.8828,4.5586,4.3672,5.2891,5.1094,4.832,4.9922,5.2344,5.2969,4.957,5.5664,6.0078,5.7734,5.9961,6.0859,5.8359,6.2031,6.3789,6.125,6.4485,6.6739,6.6739,6.6594,6.6457,6.6332,6.6191,6.6084,6.6008,6.594,6.5904,6.5904,6.5904,6.332,5.8352,6.3474,6.3243,5.8467,6.3589,6.5904,6.5705,6.248,6.2903,6.5628,6.2403,6.298,6.5904,6.5904,6.6173,6.6596,6.709,6.7244,6.7321,0.0,0.0,0.0,0.0,0.0,0.0,0.0,0.0,0.0,0.0,0.0,0.0,0.0,0.0,0.0,0.0,0.0,0.0,0.0,0.0,3.6406,3.6601,3.7031,3.6875,3.6016,3.5742,3.5508,3.5312,3.4453,3.4336,3.5039,3.5898,3.6641,3.7266,3.6406,3.6016,3.6016,3.6016,3.6133,3.6367,0.0,0.0,0.0,0.0,0.0,0.0,0.0,0.0,0.0,0.0,0.0,0.0,0.0,0.0,0.0,3.9492,4.0039,4.0351,4.1016,4.1211,4.25,4.793,4.4336,4.2148,5.2305,4.7266,4.3594,5.4648,5.082,4.6719,5.0664,4.9648,4.9258,5.2383,5.9219,6.3398,6.1289,6.2695,6.3437,6.207,6.3086,6.3359,6.1989,6.4734,6.6608,6.6545,6.6423,6.6256,6.6119,6.6051,6.5997,6.591,6.5904,6.5904,6.5904,6.5904,6.3935,6.0127,6.4051,6.3858,6.0204,6.4128,6.5904,6.5634,6.1056,6.1672,6.5551,6.0979,6.1903,6.6173,6.6173,6.6667,6.7475,6.816,6.8545,6.8699,0.0,0.0,0.0,0.0,0.0,0.0,0.0,0.0,0.0,0.0,0.0,0.0,0.0,0.0,0.0,0.0,0.0,0.0,0.0,0.0,3.7578,3.8398,3.7695,3.6875,3.6016,3.7539,3.793,3.7109,3.625,3.5859,3.5937,3.6797,3.7226,3.7266,3.6406,3.6016,3.6016,3.6016,3.6484,3.7226,3.7266,0.0,0.0,0.0,0.0,0.0,0.0,0.0,0.0,0.0,0.0,0.0,0.0,0.0,3.9726,3.9844,4.0469,4.1133,4.1172,4.1211,4.207,4.5664,4.4336,4.4648,5.4219,4.9062,4.5195,5.5664,5.4101,5.168,5.4414,5.2226,5.2383,5.9687,6.0195,6.1211,6.5703,6.6484,6.6562,6.6445,6.6523,6.648,6.6163,6.6424,6.6541,6.6418,6.6228,6.6128,6.6109,6.598,6.5923,6.5904,6.5904,6.5904,6.5904,6.5904,6.5705,6.5359,6.5705,6.5705,6.5359,6.575,6.5904,6.5859,6.5442,6.5519,6.5865,6.5442,6.5942,6.7019,6.7019,6.7552,6.8314,6.8391,6.8891,6.9629,0.0,0.0,0.0,0.0,0.0,0.0,0.0,0.0,0.0,0.0,0.0,0.0,0.0,0.0,0.0,0.0,0.0,0.0,0.0,3.8125,3.8242,3.8594,3.8281,3.7695,3.6836,3.6914,3.6562,3.5664,3.5351,3.5469,3.6016,3.6328,3.6797,3.7266,3.6406,3.6289,3.6797,3.6797,3.7305,3.8164,3.8711,3.9297,0.0,0.0,0.0,0.0,0.0,0.0,0.0,0.0,3.7969,3.793,3.8672,3.9375,4.0,4.0547,4.0937,4.1328,4.1797,4.1172,4.1992,4.8633,4.6328,4.4883,5.4414,5.0508,4.793,5.8828,5.4219,4.918,5.2305,5.4023,5.664,6.168,6.3359,6.4687,6.664,6.6914,6.6914,6.6914,6.6788,6.6685,6.6619,6.6407,6.6252,6.6212,6.6054,6.5969,6.5969,6.5927,6.5904,6.5904,6.5904,6.5904,6.5904,6.5904,6.5904,6.5904,6.5904,6.5904,6.5904,6.5904,6.5904,6.5904,6.5904,6.6173,6.6635,6.6635,6.7128,6.7975,6.8513,6.8936,6.9283,6.9783,7.0167,7.0437,0.0,0.0,0.0,0.0,0.0,0.0,0.0,0.0,0.0,0.0,0.0,0.0,0.0,0.0,0.0,0.0,0.0,0.0,3.8945,3.9023,3.9023,3.9023,3.875,3.8203,3.7305,3.6719,3.6133,3.5508,3.5781,3.6094,3.6406,3.6406,3.6719,3.7266,3.668,3.6758,3.7305,3.7578,3.8203,3.9062,3.9648,3.9883,0.0,0.0,0.0,0.0,0.0,0.0,0.0,0.0,3.8398,3.832,3.9531,4.0078,4.043,4.1016,4.082,4.0508,4.1055,4.0742,4.1914,4.8594,4.6719,4.5703,5.5234,5.207,4.9766,5.9062,5.6406,5.2851,5.4375,5.664,5.9336,6.25,6.3828,6.5039,6.668,6.6834,6.6791,6.6791,6.6667,6.6516,6.6437,6.6217,6.6075,6.6028,6.5949,6.5904,6.5904,6.5904,6.5904,6.5904,6.5904,6.5904,6.5904,6.5904,6.5904,6.5904,6.5904,6.5904,6.5904,6.5904,6.6058,6.6288,6.6288,6.675,6.7513,6.7513,6.8013,6.8891,6.9744,7.009,7.0167,7.0706,7.0898,7.0898,0.0,0.0,0.0,0.0,0.0,0.0,0.0,0.0,0.0,0.0,0.0,0.0,0.0,0.0,0.0,0.0,0.0,0.0,3.9844,3.9922,3.9922,3.9922,3.9062,3.8203,3.7344,3.7305,3.7305,3.7305,3.8164,3.8125,3.7305,3.7305,3.7305,3.7305,3.7344,3.7344,3.7383,3.8242,3.9141,3.9922,3.9883,3.9883,3.9883,0.0,0.0,0.0,0.0,0.0,0.0,0.0,3.918,3.9883,3.9922,4.0508,4.1211,4.125,4.0,3.8633,3.8672,3.9922,4.1797,4.4375,4.5,4.7461,5.6914,5.3828,5.0391,5.5547,6.1367,6.4765,6.2148,6.0351,6.0078,6.2578,6.0898,6.1055,6.6172,6.6737,6.6616,6.6616,6.6478,6.6316,6.6133,6.6109,6.6033,6.5923,6.5904,6.5904,6.5904,6.5904,6.5904,6.5904,6.5904,6.5904,6.5904,6.5904,6.5904,6.5904,6.5904,6.5904,6.5904,6.5904,6.6365,6.7096,6.7096,6.7628,6.8391,6.843,6.893,6.9783,7.0591,7.0898,7.0898,7.0898,7.0898,7.0898,0.0,0.0,0.0,0.0,0.0,0.0,0.0,0.0,0.0,0.0,0.0,0.0,0.0,0.0,0.0,0.0,0.0,0.0,4.0742,4.082,4.082,4.082,3.9375,3.8476,3.8203,3.7617,3.7305,3.7305,3.6953,3.6641,3.6406,3.6992,3.7305,3.7383,3.9219,3.9687,3.9219,4.0664,4.1094,4.0742,4.0156,3.9883,3.9844,0.0,0.0,0.0,0.0,0.0,0.0,0.0,0.0,0.0,4.0625,4.0976,4.168,4.4062,4.3125,4.1953,4.5,4.2695,4.0586,4.5586,4.5898,4.5586,4.7773,5.0469,5.3633,5.7617,6.0312,6.1172,5.8594,6.168,6.4258,6.3164,6.3906,6.5115,6.6498,6.6631,6.6553,6.6468,6.6309,6.6153,6.6119,6.6014,6.5925,6.591,6.5904,6.5904,6.5904,6.5904,6.5904,6.5904,6.5904,6.5904,6.5904,6.5904,6.5904,6.5904,6.6481,6.675,6.675,6.675,6.7205,6.8013,6.8013,6.8507,6.9353,6.9937,7.0321,7.0552,7.0821,7.0898,7.0898,7.0898,7.0898,7.0898,0.0,0.0,0.0,0.0,0.0,0.0,0.0,0.0,0.0,0.0,3.8906,0.0,0.0,0.0,0.0,0.0,0.0,0.0,0.0,4.1211,4.1055,4.0703,3.9336,3.8437,3.8086,3.7226,3.6953,3.7305,3.6758,3.6523,3.6523,3.7031,3.7461,3.7891,3.9844,4.0391,4.0,4.1367,4.1836,4.1601,4.0742,4.043,4.0312,0.0,0.0,0.0,0.0,0.0,0.0,0.0,0.0,0.0,4.1016,4.2148,4.3242,4.3242,4.2617,4.25,4.5117,4.3047,4.1797,4.8906,4.8086,4.582,4.6992,5.0508,5.5156,6.1055,6.2656,6.25,6.0976,6.4101,6.6367,6.4718,6.5732,6.6733,6.6533,6.6434,6.6364,6.629,6.6114,6.6024,6.6024,6.5937,6.5904,6.5904,6.5904,6.5904,6.5904,6.5904,6.5904,6.5904,6.5904,6.5904,6.5904,6.5904,6.6051,6.6365,6.6865,6.7481,6.8129,6.7782,6.809,6.893,6.9237,6.9706,7.0206,7.0706,7.0898,7.0898,7.0898,7.0898,7.0898,7.0898,7.0898,7.0898,0.0,0.0,0.0,0.0,0.0,0.0,0.0,0.0,0.0,0.0,3.9531,4.0039,0.0,0.0,0.0,0.0,0.0,0.0,0.0,0.0,4.0742,3.9922,3.8984,3.8086,3.7187,3.6484,3.6523,3.7305,3.7305,3.7305,3.7305,3.7461,3.7969,3.875,3.9805,4.0156,4.0078,4.1016,4.1758,4.2226,4.1406,4.1094,4.1016,4.0195,0.0,0.0,0.0,0.0,0.0,0.0,0.0,0.0,4.1289,4.3437,4.5117,4.0781,4.0664,4.1953,4.2265,4.2499,4.4531,5.2499,5.0351,4.7656,5.2812,5.3672,5.5976,6.5039,6.6562,6.6445,6.6836,6.6875,6.6791,6.6628,6.6571,6.6529,6.6387,6.6208,6.61,6.6075,6.5963,6.5904,6.5904,6.5904,6.5904,6.5904,6.5904,6.5904,6.5904,6.5904,6.5904,6.5904,6.5904,6.5904,6.5904,6.5981,6.6365,6.7096,6.725,6.8167,6.9667,6.8891,6.9007,6.986,7.0591,7.0898,7.0898,7.0898,7.0898,7.0898,7.0898,7.0898,7.0898,7.0898,7.0898,7.0898,0.0,0.0,0.0,0.0,0.0,0.0,0.0,0.0,0.0,0.0,0.0,0.0,0.0,0.0,0.0,0.0,0.0,0.0,0.0,0.0,4.0117,3.9922,3.8398,3.7187,3.6289,3.6758,3.7109,3.7305,3.7305,3.7305,3.7344,3.8711,3.9453,3.9726,4.1914,4.2148,4.1016,4.2539,4.25,4.1367,4.0508,4.0195,4.0156,3.9961,3.9766,0.0,0.0,0.0,0.0,0.0,0.0,0.0,4.1953,4.2656,4.3672,4.6016,4.6953,4.7811,5.04,4.7819,4.4974,4.7458,4.7176,4.9375,6.1172,6.1211,6.0312,6.5781,6.418,6.2851,6.6289,6.6785,6.6636,6.6619,6.6509,6.6384,6.6183,6.6142,6.6069,6.5961,6.5903,6.5904,6.5904,6.5904,6.5904,6.5904,6.5904,6.5904,6.5904,6.5904,6.5904,6.5904,6.5904,6.5904,6.5904,6.6519,6.6942,6.7135,6.8475,6.936,6.9706,6.9513,6.986,7.0667,7.0821,7.0898,7.0898,7.0898,7.0898,7.0898,7.0898,7.0898,7.0898,7.0898,7.0898,7.0898,0.0,0.0,0.0,0.0,0.0,0.0,0.0,0.0,0.0,0.0,0.0,0.0,0.0,0.0,0.0,0.0,0.0,0.0,0.0,0.0,3.9531,3.8672,3.8164,3.75,3.6641,3.7461,3.793,3.793,3.8359,3.8555,3.8555,3.9453,4.0117,4.0586,4.2305,4.2383,4.1289,4.2539,4.2578,4.1719,4.0859,4.0742,4.1055,4.0664,4.0508,4.0586,4.1055,0.0,0.0,0.0,0.0,0.0,0.0,0.0,4.5469,4.5273,4.6367,4.7733,4.8175,4.8141,4.87,5.1624,5.4292,5.75,6.2617,6.3633,6.414,6.6317,6.4946,6.4047,6.6353,6.6613,6.6483,6.6373,6.6281,6.6213,6.603,6.5992,6.5974,6.5923,6.5904,6.5904,6.5904,6.5904,6.5904,6.5904,6.5904,6.5904,6.5904,6.5904,6.5904,6.5904,6.5904,6.6096,6.6481,6.6904,6.752,6.8359,6.9283,6.9898,7.0283,7.0283,7.0514,7.0898,7.0898,7.0898,7.0898,7.0898,7.0898,7.0898,7.0898,7.0898,7.0898,7.0898,7.0898,7.0898,0.0,0.0,0.0,0.0,0.0,0.0,0.0,0.0,0.0,0.0,0.0,0.0,0.0,0.0,0.0,0.0,0.0,0.0,0.0,0.0,0.0,3.7383,3.8125,3.8242,3.7539,3.8398,3.8828,3.8828,3.9687,4.0351,4.0781,4.0781,4.1172,4.1875,4.2695,4.2461,4.1445,4.2109,4.2305,4.2148,4.1484,4.1601,4.2148,4.1601,4.1406,4.1445,4.1562,4.1641,4.1641,4.1641,0.0,0.0,0.0,0.0,4.7422,4.3281,4.4414,4.6523,4.4396,4.7841,5.3201,5.8163,6.2031,6.4101,6.1951,6.3709,6.589,6.6455,6.6567,6.6572,6.6557,6.6455,6.629,6.6142,6.607,6.604,6.5903,6.5904,6.5904,6.5904,6.5904,6.5904,6.5904,6.5904,6.5904,6.5904,6.5904,6.5904,6.5904,6.5904,6.5904,6.5904,6.6019,6.6442,6.7096,6.7404,6.8282,6.9706,6.986,7.0244,7.0898,7.0898,7.0898,7.0898,7.0898,7.0898,7.0898,7.0898,7.0898,7.0898,7.0898,7.0898,7.0898,7.0898,7.1014,7.1129,0.0,0.0,0.0,0.0,0.0,0.0,0.0,0.0,0.0,0.0,4.1211,4.1211,0.0,0.0,0.0,0.0,0.0,0.0,4.0117,0.0,0.0,3.7344,3.8125,3.8555,3.8437,3.9297,3.9726,3.9726,4.0586,4.2148,4.4336,4.4336,4.4375,4.4531,4.5391,4.4453,4.2266,4.2344,4.1992,4.1367,4.125,4.125,4.1406,4.2031,4.2226,4.2344,4.3086,4.3359,4.3359,4.3359,4.3437,0.0,0.0,0.0,4.5547,4.5586,4.7539,4.9725,4.9958,5.2248,5.5503,5.9234,5.7925,5.7498,6.4222,6.3348,6.2112,6.5706,6.6516,6.6553,6.6446,6.6272,6.6146,6.6114,6.5986,6.5915,6.591,6.5904,6.5904,6.5904,6.5904,6.5904,6.5904,6.5904,6.5904,6.5904,6.5904,6.5904,6.5904,6.5904,6.5904,6.5904,6.6596,6.6981,6.7096,6.859,6.9475,6.9706,7.0398,7.0783,7.0898,7.0898,7.0898,7.0898,7.0898,7.0898,7.0898,7.0898,7.0898,7.0898,7.0898,7.0898,7.0898,7.0898,7.136,7.2021,0.0,0.0,0.0,0.0,0.0,0.0,0.0,0.0,0.0,0.0,0.0,4.1211,0.0,0.0,0.0,4.1083,4.1081,4.073,3.9831,3.949,3.8945,3.8086,3.8867,3.9336,3.9336,4.0195,4.0859,4.1289,4.168,4.3711,4.7187,4.7695,4.7148,4.582,4.7656,4.6211,4.25,4.3945,4.3555,4.1875,4.1875,4.1875,4.1953,0.0,0.0,0.0,4.3398,4.3711,4.3711,4.3711,4.4023,4.4492,4.4883,0.0,0.0,0.0,4.7461,4.9647,5.3701,5.2813,5.2838,6.1558,5.8712,5.604,6.4556,6.318,6.1274,6.5374,6.6298,6.6291,6.6244,6.6109,6.5997,6.5997,6.5958,6.5904,6.5904,6.5904,6.5904,6.5904,6.5904,6.5904,6.5904,6.5904,6.5904,6.5904,6.5904,6.5904,6.5904,6.5904,6.6096,6.6558,6.6904,6.7558,6.8552,6.9321,6.9937,7.0398,7.0744,7.0898,7.0898,7.0898,7.0898,7.0898,7.0898,7.0898,7.0898,7.0898,7.0898,7.0898,7.0898,7.1206,7.1636,7.1636,7.2168,7.2937,0.0,0.0,0.0,0.0,0.0,0.0,0.0,0.0,0.0,0.0,0.0,0.0,0.0,0.0,0.0,0.0,4.1317,4.0863,3.982,3.9841,3.9609,3.8945,3.9766,4.0312,4.0547,4.1172,4.1914,4.2734,4.2734,4.4726,4.8594,4.9687,4.9258,4.7695,4.9648,4.8359,4.4805,4.6328,4.5703,4.3711,4.3476,4.3008,4.2461,4.3125,4.2968,0.0,0.0,4.4023,4.4021,4.4297,4.4805,4.5312,4.5312,4.5781,0.0,0.0,0.0,4.9491,5.5167,5.3065,5.162,6.14,5.8245,5.4533,6.1502,6.0631,5.9487,6.3593,6.5275,6.6049,6.6049,6.5984,6.5904,6.5904,6.5904,6.5904,6.5904,6.5904,6.5904,6.5904,6.5904,6.5904,6.5904,6.5904,6.5904,6.5904,6.5904,6.5904,6.5904,6.5904,6.6288,6.7058,6.7321,6.8167,6.9706,6.9898,7.0321,7.0898,7.0898,7.0898,7.0898,7.0898,7.0898,7.0898,7.0898,7.0898,7.0898,7.0898,7.1014,7.1245,7.1245,7.1745,7.2514,7.2514,7.3053,7.3815,0.0,0.0,0.0,0.0,0.0,0.0,0.0,0.0,0.0,0.0,0.0,0.0,4.1957,4.2033,4.2031,4.2025,4.2143,4.1576,4.0,3.9883,3.9883,3.9844,4.0664,0.0,4.2266,4.2305,4.2773,4.3633,4.3633,4.5039,4.7695,4.9414,5.0547,5.1133,5.1289,5.1172,5.0859,4.9375,4.8203,4.7266,4.6445,4.4609,4.2383,4.2461,4.2416,4.255,4.4295,4.4877,4.4974,4.5858,4.6172,4.6211,4.6211,4.625,4.6445,0.0,0.0,0.0,5.3437,5.444,5.5034,5.6565,5.3431,5.0707,5.3443,5.3886,5.4886,5.9001,6.3081,6.5929,6.5929,6.591,6.5904,6.5904,6.5904,6.5904,6.5904,6.5904,6.5904,6.5904,6.5904,6.5904,6.5904,6.5904,6.5904,6.5904,6.5904,6.5904,6.5904,6.5904,6.6288,6.7058,6.7898,6.8776,6.9706,7.0475,7.086,7.0898,7.0898,7.0898,7.0898,7.0898,7.0898,7.0898,7.0898,7.0898,7.0898,7.0898,7.1398,7.2136,7.2136,7.2668,7.343,7.343,7.393,7.4623,0.0,0.0,0.0,0.0,0.0,0.0,0.0,0.0,0.0,0.0,0.0,0.0,0.0,4.2634,4.2271,4.2234,4.1743,4.1216,4.0646,4.117,4.1484,4.1484,4.2344,4.293,4.3242,4.3242,4.3672,4.4531,4.4531,4.5859,4.8437,4.9062,5.0078,5.1523,5.4336,5.3125,4.9141,5.1875,5.0273,4.6172,4.9124,4.745,4.3476,4.5535,4.6015,4.5445,4.4353,4.6078,4.8544,4.6764,4.6936,4.7874,4.7929,4.7969,4.8125,4.9023,4.9297,5.0115,5.3645,5.2356,5.1252,5.6333,5.1509,4.7143,5.3429,5.4034,5.3673,5.5137,6.1012,6.5051,6.2281,6.4051,6.5904,6.5904,6.5904,6.5904,6.5904,6.5904,6.5904,6.5904,6.5904,6.5904,6.5904,6.5904,6.5904,6.5904,6.2858,6.2435,6.575,6.3281,6.3666,6.7821,6.8776,6.9629,7.0475,7.0744,7.0898,7.0898,7.0898,7.0898,7.0898,7.0898,7.0898,7.0937,7.1475,7.1745,7.1745,7.1745,7.2245,7.3014,7.3014,7.3546,7.4276,7.4276,7.4822,7.5515,0.0,0.0,0.0,0.0,0.0,0.0,0.0,0.0,0.0,4.2222,0.0,0.0,0.0,0.0,4.238,4.2694,4.2104,4.1782,4.187,4.2394,4.2758,4.2807,4.3354,4.3826,4.4141,4.3867,4.4258,4.543,4.543,4.6328,4.8047,4.8945,4.9766,5.0703,5.4492,5.4101,5.0859,5.4609,5.3516,4.9453,5.1026,4.9811,4.7132,4.748,4.785,4.8065,4.7463,4.8821,5.0778,4.9784,4.9278,4.9135,4.9843,4.9661,4.9274,4.9549,4.9433,4.9729,5.2102,5.0439,4.907,5.3438,4.9609,4.5932,5.0433,5.2818,5.3895,5.3313,5.9973,6.5013,6.2166,6.3974,6.5904,6.5904,6.5904,6.5904,6.5904,6.5904,6.5904,6.5904,6.5904,6.5904,6.5904,6.5904,6.5904,6.5904,6.2743,6.232,6.5705,6.3435,6.4128,6.8699,6.9667,7.036,7.0898,7.0898,7.0898,7.0898,7.0898,7.0898,7.0898,7.0898,7.1052,7.136,7.1944,7.2213,7.2213,7.2514,7.3129,7.3892,7.3892,7.4392,7.513,7.513,7.5515,7.6015,0.0,0.0,0.0,0.0,0.0,0.0,0.0,0.0,4.2892,4.2127,0.0,0.0,0.0,0.0,0.0,4.3496,4.3379,4.3301,4.3577,4.3509,4.3498,4.362,4.3663,4.4117,4.5039,4.4258,4.4648,4.6328,4.6328,4.6328,4.6367,4.8906,4.9648,4.8945,5.1523,5.4062,5.6523,5.75,5.7812,5.7187,5.2368,5.1634,5.2965,4.8097,4.7603,4.9938,5.3479,5.3095,5.1459,5.4935,5.3324,5.012,5.175,5.1141,0.0,0.0,0.0,0.0,0.0,0.0,0.0,4.7533,4.7569,4.7158,4.3932,4.9586,5.5049,5.3395,5.9819,6.575,6.5705,6.582,6.5904,6.5904,6.5904,6.5904,6.5904,6.5904,6.5904,6.5904,6.5904,6.5904,6.5904,6.5904,6.5904,6.5904,6.5743,6.575,6.5942,6.6712,6.7975,6.9667,7.0475,7.0898,7.0898,7.0898,7.0898,7.0898,7.0898,7.0898,7.0937,7.0937,7.1398,7.2252,7.2252,7.229,7.2329,7.3199,7.4007,7.4738,7.4738,7.5245,7.6015,7.6015,7.6015,7.6015,0.0,0.0,0.0,0.0,0.0,4.1351,4.1306,4.1822,4.2335,0.0,0.0,0.0,4.4772,4.4328,4.3825,4.3493,4.3402,4.3391,4.3454,4.4016,4.4366,4.4396,4.4947,4.5661,4.658,4.6441,4.6616,4.7082,4.7185,4.6914,4.6328,4.7031,4.7266,4.7148,5.0351,5.2148,5.3086,5.7148,5.5586,5.1015,5.7406,5.4565,4.7128,5.2743,5.1173,4.6675,5.1785,5.3571,5.3721,5.5392,5.4761,5.3088,5.1822,0.0,0.0,0.0,0.0,0.0,4.8451,0.0,0.0,0.0,0.0,0.0,4.5128,4.8129,5.0818,4.974,5.628,6.2012,6.1396,6.382,6.5904,6.5904,6.5904,6.5904,6.5904,6.5904,6.5904,6.5904,6.5904,6.5904,6.5904,6.5904,6.5904,6.5904,6.2474,6.2281,6.6558,6.8167,6.9475,7.0514,7.0783,7.0898,7.0898,7.0898,7.0898,7.0898,7.0898,7.1245,7.1828,7.1828,7.2322,7.3168,7.3745,7.4014,7.4014,7.4276,7.4861,7.563,7.563,7.5784,7.6015,7.6015,7.6015,7.6015,0.0,0.0,0.0,0.0,0.0,4.2303,4.2651,4.3073,4.347,0.0,0.0,0.0,4.4732,4.4665,4.4448,4.3994,4.4514,4.4885,4.4971,4.5745,4.6234,4.6373,4.6807,4.7174,4.7358,4.7081,4.6938,4.6936,4.7029,4.6797,4.6328,4.7031,4.7187,4.6953,4.9297,5.0351,5.0664,5.5117,5.5469,5.3319,5.7769,5.6769,5.3041,5.6862,5.5644,5.2484,5.6899,5.8127,5.7923,5.9526,5.8336,5.5821,5.3673,5.2052,0.0,0.0,0.0,0.0,0.0,0.0,0.0,4.7498,0.0,0.0,4.4898,4.8706,5.2015,5.0082,5.6742,6.2127,5.9473,6.105,6.2743,6.2743,6.2743,6.3474,6.559,6.5904,6.5904,6.5904,6.5904,6.5904,6.5904,6.5904,6.5904,6.5904,6.3474,6.3782,6.7975,6.9167,7.0052,7.086,7.0898,7.0898,7.0898,7.0898,7.0898,7.0898,7.1283,7.1713,7.2213,7.2591,7.3206,7.4046,7.4507,7.4892,7.5245,7.5245,7.5553,7.6015,7.6015,7.6015,7.6015,7.6015,7.6015,7.6015,0.0,0.0,4.1718,4.412,4.4422,4.4592,4.5366,4.541,4.5119,0.0,4.4546,4.4348,4.3662,4.4375,4.4941,4.5077,4.6294,4.7105,4.731,4.7818,4.8254,4.8473,4.8403,4.8078,4.7529,4.6869,4.6518,4.6518,4.6637,4.6638,4.6599,4.8122,4.8435,4.7732,4.8591,4.8982,4.9216,5.2341,5.5935,5.9215,5.5905,5.8332,6.3612,6.0388,5.9908,6.1432,6.4717,6.4134,6.2172,6.4634,6.2474,5.8357,5.6126,5.3362,5.1015,5.1274,4.9736,0.0,0.0,0.0,0.0,0.0,4.7274,0.0,4.4047,4.9784,5.4977,5.2313,5.8396,6.2941,5.8781,5.8011,5.8011,5.8011,5.7852,5.9435,6.4359,6.5551,6.5711,6.5128,6.5557,6.5904,6.5904,6.5904,6.5904,6.5904,6.675,6.7975,6.9629,6.9783,7.0167,7.0898,7.0898,7.0898,7.0898,7.0898,7.0898,7.0898,7.1783,7.2252,7.2367,7.3245,7.4084,7.4853,7.4853,7.5284,7.6015,7.6015,7.6015,7.6015,7.6015,7.6015,7.6015,7.6015,7.6015,7.6015,0.0,4.2614,4.278,4.3323,4.3374,4.342,4.3612,4.3614,4.3756,4.4259,4.5535,4.633,4.6177,4.6913,4.7392,4.7435,4.7708,4.7892,4.7906,4.7448,4.7195,4.7245,4.6599,4.646,4.7027,4.7597,4.7892,4.7919,4.8729,4.8772,4.8067,4.8419,4.8497,4.8341,4.9241,4.9633,4.9713,5.1082,5.2542,5.435,5.8935,5.9185,5.7359,6.2497,6.0102,5.5084,6.3066,6.3358,6.0281,6.221,6.2172,6.0479,5.5318,5.3241,5.2087,4.8812,4.7505,0.0,0.0,0.0,0.0,4.5859,4.5975,0.0,4.5244,4.6513,4.8399,5.0515,5.24,5.4208,5.5901,5.6203,5.6203,5.6203,5.5088,5.5505,5.9281,6.332,6.4397,6.0281,6.3397,6.5904,6.5904,6.5904,6.5904,6.5904,6.7282,6.8584,6.9629,7.0321,7.0744,7.0898,7.0898,7.0898,7.0898,7.0898,7.0898,7.0898,7.1783,7.2552,7.3276,7.4084,7.4938,7.5745,7.5745,7.5822,7.6015,7.6015,7.6015,7.6015,7.6015,7.6015,7.6015,7.6015,7.6015,7.6015,4.3085,4.3085,4.3239,4.3624,4.3701,4.4008,4.485,4.5004,4.5274,4.6086,4.6966,4.7505,4.7505,4.7505,4.7658,4.8043,4.8082,4.829,4.8835,4.8882,4.893,4.8991,4.8576,4.834,4.8368,4.8803,4.884,4.8398,4.8904,4.8934,4.8502,4.8934,4.8475,4.7356,4.9494,4.9729,4.8688,5.0393,5.2069,5.3951,5.8616,5.9219,5.7932,6.3698,6.3033,5.9595,6.4241,6.4512,6.2512,6.1243,6.1364,6.1479,5.805,5.5241,5.2697,5.0159,4.8197,4.6812,4.6355,4.5936,4.5594,4.5594,4.5594,0.0,0.0,4.6321,4.836,4.9245,5.1438,5.2938,5.2087,5.1895,5.1895,5.1895,5.051,5.0164,5.2313,5.8088,6.2089,6.2089,6.4359,6.5904,6.5904,6.5904,6.6244,6.709,6.793,6.8968,7.0244,7.0667,7.0898,7.0898,7.0898,7.0898,7.0898,7.0898,7.1129,7.1552,7.2437,7.3283,7.4123,7.4976,7.5592,7.6015,7.6015,7.6015,7.6015,7.6015,7.6015,7.6015,7.6015,7.6015,7.6015,7.6015,7.6015,7.6015,4.3816,4.397,4.4278,4.4932,4.5047,4.5509,4.6928,4.712,4.7428,4.8235,4.8082,4.8235,4.924,4.7889,4.7428,4.8735,4.8812,4.8976,4.9277,5.06,5.1171,5.0772,5.0622,5.0192,4.9484,4.964,4.9365,4.8657,4.8851,4.8926,4.8926,4.9634,4.8871,4.6984,4.9268,4.9698,4.8774,5.0353,5.251,5.514,5.803,5.9334,5.9967,6.4268,6.5596,6.525,6.5705,6.5904,6.5282,6.132,6.0941,6.1864,6.0517,5.6703,5.2626,5.2043,4.9274,4.6466,4.6812,4.6278,4.5594,4.5594,4.5594,4.5244,0.0,0.0,0.0,4.7894,5.0894,5.2515,4.8394,4.7625,4.7548,4.7394,4.6086,4.5667,4.7158,5.2544,5.7742,6.1556,6.2557,6.3012,6.3205,6.3935,6.5551,6.8199,6.8391,6.9122,7.0821,7.0898,7.0898,7.0898,7.0898,7.0898,7.0898,7.1052,7.1514,7.2213,7.3245,7.4084,7.4738,7.5592,7.6015,7.6015,7.6015,7.6015,7.6015,7.6015,7.6015,7.6015,7.6015,7.6015,7.6015,7.6015,7.6015,7.6015,4.6466,4.7043,4.7543,4.7658,4.7658,4.7735,4.7928,4.7966,4.8274,4.9125,4.7971,4.8774,5.328,4.9659,4.812,5.1192,5.1462,5.0553,4.8392,5.1203,5.1949,4.967,4.8861,4.8398,4.8317,4.9053,4.94,4.9319,5.0051,5.0441,5.0441,5.0556,5.0441,5.0098,4.8206,4.9708,5.3557,5.1563,5.2623,5.5943,6.0024,6.0409,5.9023,6.3992,6.4519,6.2826,6.5096,6.5904,6.548,6.271,6.1941,6.1562,5.8407,5.4477,5.1092,5.1736,4.8428,4.4932,4.6466,4.6278,4.5594,4.5594,4.5594,4.5556,4.5359,0.0,4.6129,4.5936,0.0,4.6552,4.5975,0.0,0.0,4.4855,4.397,4.4739,4.8586,4.9202,4.8933,4.8014,5.0592,5.2708,5.3428,5.6929,6.1737,6.793,6.8391,6.9122,7.0821,7.0898,7.0898,7.0898,7.0898,7.0898,7.0898,7.1668,7.2098,7.2213,7.3822,7.4623,7.4738,7.5592,7.6015,7.6015,7.6015,7.6015,7.6015,7.6015,7.6015,7.6015,7.6015,7.6015,7.6015,7.6015,7.6015,7.6015,4.7582,4.7851,4.8082,4.8082,4.8082,4.8432,4.9433,5.0433,5.0856,5.0245,4.9971,5.1005,5.4164,5.2125,5.1928,5.5313,5.5164,5.4626,5.4044,5.3972,0.0,5.2395,5.0587,4.963,4.963,4.9976,5.0168,5.0168,5.0515,5.0707,5.0707,5.0707,4.9899,4.8432,4.7389,4.8894,5.2207,5.113,5.3208,5.728,5.8055,5.8357,5.8852,6.3974,6.525,6.4134,6.2704,6.3782,6.4897,5.8396,5.9781,6.3172,5.6824,5.4246,5.3785,5.4621,5.0543,4.6504,4.9697,4.9928,4.9279,4.9279,4.8894,4.8552,4.8552,4.7018,4.5594,4.5594,0.0,0.0,0.0,0.0,0.0,0.0,4.3932,4.3893,4.6124,4.4859,4.5629,5.0822,5.2323,5.378,5.6082,5.5275,5.7006,6.2814,6.4166,6.5057,6.575,6.9052,7.0898,7.0898,7.0898,7.1129,7.1629,7.2021,7.2668,7.3668,7.4361,7.4969,7.5476,7.5822,7.6015,7.6015,7.6015,7.6015,7.6015,7.6015,7.6015,7.6015,7.6015,7.6015,7.6015,7.6015,7.6322,7.6716,4.8779,0.0,4.9082,4.8856,4.9005,4.951,5.0553,5.2125,5.2933,5.2169,5.1972,5.3005,5.5895,5.2972,5.2702,5.7511,5.6747,5.6439,5.7511,5.6319,5.5549,5.5549,5.2438,5.1015,5.1746,5.1053,5.0707,5.0707,5.0707,5.0707,5.0707,5.0707,4.9707,4.7894,4.7197,4.8317,5.0745,5.1438,5.428,5.8313,5.8434,5.9242,6.0704,6.3705,6.5288,6.5474,6.2358,6.3243,6.4743,5.7242,5.9204,6.3788,5.7588,5.5665,5.6055,5.7857,5.3928,4.9736,5.328,5.3626,5.2736,5.1813,5.1125,5.0438,4.9514,4.7364,4.5594,4.5594,4.5594,0.0,0.0,0.0,0.0,0.0,0.0,4.3893,4.4239,4.2897,4.4474,5.1438,5.2356,5.3472,5.6126,5.3659,5.3621,5.7819,6.0594,6.2095,6.2095,6.7705,7.0898,7.0898,7.0898,7.1321,7.2175,7.2444,7.3283,7.47,7.493,7.5399,7.6015,7.6015,7.6015,7.6015,7.6015,7.6015,7.6015,7.6015,7.613,7.6361,7.6361,7.6409,7.6416,7.6186,7.6647,7.7281,5.0438,5.1241,5.1543,5.0745,5.1279,5.1543,5.0822,5.2125,5.378,5.5324,5.339,5.4121,5.9973,5.1015,4.7937,5.6324,5.4741,5.401,5.567,5.728,5.8159,5.8159,5.3362,5.1861,5.4318,5.1977,5.0707,5.0707,5.0707,5.0707,5.0707,5.0707,5.0668,5.0476,4.8009,4.8317,5.0861,5.3323,5.5895,5.8742,6.3628,6.5596,6.5404,6.3095,6.3749,6.5859,6.575,6.5788,6.548,6.271,6.1979,6.2172,6.1903,5.9017,5.6516,6.071,5.8286,5.4626,5.6401,5.6247,5.4785,5.1553,5.0707,4.9822,4.6518,4.5671,4.5594,4.5594,4.5594,4.5594,4.5594,0.0,0.0,0.0,0.0,0.0,0.0,4.4975,4.4975,4.3662,4.5658,4.7505,4.8389,5.0543,5.2659,5.4511,5.9286,6.2095,6.2095,6.7705,7.0898,7.0898,7.0898,7.1321,7.2175,7.3053,7.3892,7.47,7.5553,7.5976,7.6015,7.6015,7.6015,7.6015,7.6015,7.6015,7.6015,7.6015,7.6515,7.7253,7.7253,7.738,7.7455,7.6607,7.6836,7.7494,5.013,5.0966,5.1659,5.0822,5.0938,5.1015,5.0745,5.2631,5.4241,5.4818,5.5121,5.689,6.1172,5.8325,5.6786,5.8511,6.0473,6.0627,5.8357,5.9858,6.0825,6.0825,5.755,5.5357,5.4511,5.3669,5.24,5.0707,5.0707,5.0707,5.0707,5.0707,5.0707,5.0592,4.8048,4.8317,5.0861,5.3439,5.5972,5.8511,6.0742,6.2012,6.2672,6.4095,6.5134,6.5904,6.5904,6.5904,6.5243,6.1012,6.182,6.4019,6.0666,5.9358,5.9787,6.3518,6.0594,5.6786,5.96,6.0171,5.9671,5.8523,5.6093,5.3708,5.2554,4.8822,4.5594,4.5594,4.5594,4.5594,4.5594,0.0,0.0,0.0,0.0,0.0,0.0,4.4936,4.4513,4.397,4.4162,4.5351,4.7851,4.5355,4.4739,4.7548,4.9861,5.0938,5.0361,5.971,6.5096,6.5096,6.9405,7.2168,7.3053,7.3892,7.47,7.5553,7.5861,7.6015,7.6015,7.6015,7.6015,7.6015,7.6015,7.6015,7.5993,7.6117,7.6373,7.6653,7.6808,7.729,7.7743,7.7302,7.7432,7.7792,5.0361,5.0741,5.1318,5.0784,5.0707,5.1015,5.19,5.2933,5.4434,5.6901,5.6819,5.8088,6.2095,6.0902,6.0094,6.0781,6.1166,6.1512,6.1743,5.944,5.9671,6.3288,5.8973,5.6703,5.7209,5.5434,5.4126,5.34,5.1592,5.1169,5.2015,5.113,5.0707,5.063,4.8971,4.8317,4.8745,5.3741,5.6088,5.6736,5.9358,6.1666,6.3589,6.4288,6.5474,6.6782,6.6782,6.6782,6.6282,6.3006,6.4089,6.6205,6.2929,6.2627,6.3935,6.6128,6.4051,6.1518,6.3749,6.432,6.4051,6.2826,6.0435,5.8088,5.6896,5.3015,4.963,4.9663,4.9399,4.8629,4.6821,4.7014,0.0,0.0,0.0,0.0,0.0,4.4667,4.4201,4.3893,4.447,4.5124,4.5812,4.3239,4.1666,4.2047,4.4244,4.5205,4.4359,5.5631,6.2095,6.2095,6.8674,7.2629,7.3507,7.4315,7.513,7.6015,7.6015,7.6015,7.6015,7.6015,7.6015,7.6015,7.6015,7.6048,7.6106,7.6258,7.6503,7.6875,7.7072,7.7516,7.7975,7.7541,7.7516,7.7724,5.1207,5.0707,5.0707,5.0707,5.0784,5.1707,5.4126,5.3236,5.4544,6.0941,5.844,5.7857,6.2583,5.8973,5.8011,6.2468,5.7159,5.6934,6.4826,5.6478,5.5593,6.548,5.8165,5.6434,6.1979,5.7363,5.6011,5.8313,5.3323,5.213,5.4434,5.19,5.0707,5.0745,5.0745,4.8399,4.5047,5.4434,5.6582,5.4126,5.9594,6.432,6.7699,6.3711,6.482,6.8507,6.843,6.8391,6.8391,6.8391,6.8391,6.8391,6.8391,6.8391,6.8391,6.8391,6.8391,6.8391,6.8391,6.8391,6.7622,6.4352,6.3429,6.2468,5.9275,5.7786,5.7055,5.7044,5.6395,5.4357,4.9433,4.974,0.0,0.0,0.0,0.0,0.0,4.4278,4.397,4.3201,4.5817,4.612,4.2196,4.3936,4.3243,3.8354,4.2474,4.4936,4.4316,5.5131,6.1595,6.2133,6.8174,7.2091,7.3546,7.4084,7.4885,7.5947,7.6007,7.5969,7.5947,7.5947,7.5985,7.6024,7.6001,7.6096,7.6313,7.6322,7.6928,7.7873,7.7876,7.8029,7.813,7.7308,7.7123,7.7289,5.1207,5.0707,5.0707,5.0707,5.2284,5.3746,5.4395,5.6242,5.7511,5.7363,5.9665,6.1121,6.055,6.2166,6.1518,5.7126,5.805,5.8434,5.7478,5.794,6.0517,6.5673,6.382,6.248,6.2095,6.0825,5.9556,5.8313,5.5088,5.3857,5.4434,5.19,5.1015,5.1582,5.1582,4.9582,4.6851,5.6203,6.0012,5.9671,5.8017,6.0242,6.4506,6.3391,6.6013,7.009,6.8853,6.8391,6.8391,6.8391,6.8391,6.8391,6.8391,6.8391,6.8391,6.8391,6.8391,6.8391,6.8391,6.8391,6.8199,6.7314,6.5199,6.3083,6.2198,5.9935,5.7973,5.7967,5.7775,5.7049,5.5093,5.301,5.0971,0.0,0.0,0.0,0.0,4.4205,4.3316,4.3124,4.22,4.1623,4.1773,4.1277,4.0127,3.8161,3.92,4.12,4.4124,4.8432,5.4549,6.2737,6.1012,6.4589,7.4315,7.0821,7.1173,7.5323,7.5795,7.5779,7.5315,7.5315,7.565,7.6218,7.5779,7.6011,7.6614,7.6761,7.6993,7.7237,7.7395,7.751,7.7518,7.7319,7.7273,7.7289,5.1207,5.0707,5.0707,5.0707,5.3746,5.6165,5.6165,5.7126,5.8396,5.9979,6.1012,6.1814,6.2243,6.4436,6.4166,5.9858,5.8588,5.8478,5.944,5.7165,5.8979,6.6096,6.5019,6.3557,6.2133,6.2826,6.2127,5.9973,5.7049,5.6165,5.7165,5.351,5.2049,5.2467,5.2467,5.1005,4.9086,5.6896,6.1595,6.3518,6.0704,6.2397,0.0,6.4583,6.6821,7.0783,6.9821,6.9475,6.9475,6.9475,6.9475,6.9475,6.9475,6.9475,6.9475,6.9475,6.9475,6.9475,6.9475,6.9475,6.9475,6.9475,6.8045,6.6622,6.6622,6.4897,6.3281,6.3281,6.2968,6.1891,5.9171,5.6472,5.3467,0.0,0.0,0.0,4.509,4.5513,4.5163,4.3316,4.3124,4.2931,4.2427,3.9815,3.8277,3.855,3.8588,3.9434,4.1431,4.774,5.2626,5.5472,5.8896,6.2704,6.693,6.507,6.665,7.1596,7.154,7.2788,7.5091,7.5209,7.5509,7.5962,7.5988,7.6314,7.6842,7.6948,7.706,7.7131,7.7273,7.7289,7.7289,7.7289,7.7289,7.7289,5.1207,5.0784,5.0976,5.1284,5.5011,5.8204,5.9011,5.7934,5.8979,6.4365,6.2397,6.1704,6.4903,6.582,6.6051,6.559,5.9473,5.8473,6.5128,5.6549,5.6011,6.6782,6.448,6.2941,6.2941,6.4359,6.4397,6.2941,5.9275,5.8621,6.071,5.5588,5.3274,5.3351,5.3351,5.2972,5.2631,5.7011,6.1512,6.5667,6.4897,6.6782,6.9744,6.6628,6.7705,7.0898,7.0898,7.0898,7.0898,7.0898,7.0898,7.0898,7.0898,7.0898,7.0898,7.0898,7.0898,7.0898,7.0898,7.0898,7.0898,7.0898,7.0898,7.0898,7.0898,7.036,6.986,6.986,6.9244,6.7353,6.2781,5.9665,5.5467,4.8389,4.6124,4.4936,4.3936,4.7129,4.7932,4.347,4.6086,0.0,4.3431,3.9619,3.8004,3.9511,3.9819,3.9692,3.9127,4.9346,5.262,4.7059,5.8339,6.254,5.8352,5.9377,6.2668,6.8049,6.6561,6.9094,7.5038,7.527,7.5517,7.5732,7.6343,7.6755,7.7027,7.7027,7.7146,7.7289,7.7289,7.7289,7.7289,7.7289,7.7289,7.7289,5.1207,5.1241,5.2351,5.4477,5.5555,5.7819,6.2743,6.3858,6.3281,6.0935,6.3628,6.4749,6.1979,6.5436,6.6814,6.4006,6.2545,6.2314,6.366,6.1929,6.3045,6.7968,6.7622,6.7314,6.7314,6.7583,6.7583,6.7314,6.2474,6.0358,6.071,5.5588,5.3587,5.428,5.428,5.6819,6.0852,5.7011,5.9011,6.482,6.4666,6.5051,6.6013,6.8744,7.0244,7.0898,7.0898,7.0898,7.0898,7.0898,7.0898,7.0898,7.0898,7.0898,7.0898,7.0898,7.0898,7.0898,7.0898,7.0898,7.0898,7.0898,7.0898,7.0898,7.0898,7.0783,7.0706,7.0706,7.0552,6.9975,6.8436,6.1012,5.3818,4.9625,4.5893,4.2974,4.1397,4.6552,4.836,4.2696,4.6278,4.7586,4.3508,4.1773,4.1042,4.135,4.2624,4.3905,4.4967,4.5346,4.802,5.3439,5.1776,5.5467,6.5243,6.0398,6.2992,7.2977,6.8417,6.9179,7.4685,7.4761,7.547,7.6724,7.6379,7.6589,7.7266,7.7266,7.7264,7.7289,7.7289,7.7289,7.7289,7.7289,7.7289,7.7289,5.4208,5.3587,5.3351,5.3659,5.6665,5.9671,6.1666,6.4936,6.6474,6.4391,6.6244,6.7013,6.4974,6.693,6.7737,6.6083,6.4314,6.4045,6.5814,6.4275,6.5045,6.8898,6.9084,6.8237,6.6468,6.859,6.8622,6.6429,6.3512,6.2089,6.1973,5.6896,5.4703,5.517,5.6511,5.8665,6.1314,6.1127,6.2935,6.6013,6.7321,6.7859,6.809,7.0129,7.0898,7.0898,7.0898,7.0898,7.0898,7.0898,7.0898,7.0898,7.0898,7.0898,7.0898,7.0898,7.0898,7.0898,7.0898,7.0898,7.0898,7.0898,7.0898,7.0898,7.0898,7.0898,7.0898,7.0898,7.0898,7.0244,6.8129,6.3358,5.8627,5.5203,4.9971,4.6086,4.5244,4.6821,4.7475,4.5932,4.9471,5.0894,4.7966,4.7122,4.5328,4.1855,4.3337,4.3781,4.239,4.5393,4.8304,5.0812,5.2217,5.5754,6.1544,5.9214,6.1949,6.9662,6.7037,6.8895,7.4619,7.5139,7.5823,7.6534,7.6684,7.6922,7.7289,7.7289,7.7289,7.7289,7.7289,7.7289,7.7289,7.7289,7.7289,7.7289,5.7824,5.6901,5.5857,5.5005,5.8896,6.2056,6.1935,6.532,6.8007,6.8353,6.8545,6.866,6.866,6.8814,6.8622,6.793,6.6045,6.5429,6.6699,6.5622,6.6122,6.8783,6.9552,6.8706,6.6013,6.9206,6.9283,6.5936,6.4699,6.3814,6.3198,5.8627,5.6511,5.6626,5.9165,6.0627,6.1396,6.5404,6.7404,6.8097,7.009,7.1014,7.1168,7.1168,7.1283,7.1437,7.1437,7.1437,7.1437,7.1437,7.1206,7.0898,7.0898,7.0898,7.0898,7.0898,7.0898,7.0898,7.0898,7.0898,7.0898,7.0898,7.0898,7.0898,7.0898,7.0898,7.0898,7.0898,7.0898,7.009,6.7436,6.5397,6.2897,5.9281,5.3164,4.8432,4.7163,4.6667,4.6986,4.8518,5.1964,5.3441,5.1392,5.0894,4.8075,4.1752,4.3294,4.3365,4.0785,4.6326,4.8907,4.7537,5.3324,5.677,5.7369,5.7849,6.117,6.7321,6.6037,6.8733,7.4954,7.5735,7.6203,7.6387,7.7032,7.7289,7.7289,7.7289,7.7289,7.7289,7.7289,7.7289,7.7289,7.7289,7.7289,7.7289,6.0441,6.0941,6.2056,6.4205,6.3211,6.3865,6.9052,6.7744,6.6667,6.8199,6.9084,6.959,6.959,7.0244,6.9436,6.6397,6.8629,6.7705,6.1897,6.6974,6.9013,6.6359,6.9167,7.0629,7.0321,7.0706,7.0706,7.0321,6.7936,6.5551,6.3237,6.0435,5.9127,5.9242,6.1814,6.4243,6.6404,6.6904,6.8436,7.0552,7.0783,7.136,7.2098,7.2098,7.2552,7.3276,7.3276,7.3276,7.3276,7.3276,7.2206,7.0898,7.0898,7.0898,7.0898,7.0898,7.0898,7.0898,7.0898,7.0898,7.0898,7.0898,7.0898,7.0898,7.0898,7.0898,7.0898,7.0898,7.0898,7.0783,7.0475,6.5981,6.0941,5.6747,5.1048,4.5235,3.9815,4.4816,4.8383,4.6525,5.0446,5.2143,4.9181,4.8664,4.6368,4.1252,4.3165,4.5556,4.7793,4.6177,4.6597,4.9611,5.0401,5.3819,6.017,5.7637,6.2197,7.3653,6.8235,6.9286,7.5978,7.605,7.6481,7.7179,7.7289,7.7289,7.7289,7.7289,7.7289,7.7289,7.7289,7.7289,7.7289,7.7289,7.7289,7.7289,6.4596,6.4057,6.3589,6.3634,6.4865,6.6359,6.7705,6.8475,6.9129,6.9821,7.0206,7.0437,7.0437,7.0706,7.036,6.9013,7.0129,6.9744,6.7051,6.9398,7.0283,6.8975,7.0167,7.0898,7.0898,7.0898,7.0898,7.0898,6.6821,6.4314,6.3237,6.0698,6.0319,6.1891,6.4436,6.6436,6.7975,6.9513,7.1052,7.2469,7.2469,7.2668,7.2976,7.2976,7.3199,7.3507,7.3507,7.3507,7.3507,7.3507,7.3046,7.2469,7.2469,7.2469,7.2469,7.2469,7.2469,7.2469,7.2469,7.2469,7.2469,7.2469,7.2052,7.1668,7.1668,7.1283,7.0898,7.0898,7.0898,7.0898,7.0898,6.8975,6.582,6.105,5.7896,5.4126,4.8663,5.0087,5.2684,5.534,5.4497,5.4931,5.812,5.3482,4.9787,4.8637,4.7458,4.6281,4.4994,4.7536,5.0806,5.468,5.3869,5.7972,6.7654,6.3663,6.5791,7.4039,7.2623,7.3388,7.613,7.6592,7.6995,7.7289,7.7289,7.7289,7.7289,7.7289,7.7289,7.7289,7.7289,7.7289,7.7289,7.7289,7.7289,7.7289,6.8205,6.7244,6.609,6.4903,6.7167,6.8398,6.6244,6.8975,7.0937,6.9898,7.0898,7.1475,7.0975,7.0898,7.0514,6.9513,7.0321,7.0052,6.8052,6.9783,7.0475,6.9475,7.036,7.0898,7.0898,7.0898,7.0898,7.0898,6.7552,6.5545,6.4775,6.3198,6.3468,6.5276,6.7859,6.9321,7.0007,7.1822,7.2937,7.3507,7.3507,7.3623,7.3853,7.3853,7.4007,7.4238,7.4238,7.4238,7.4238,7.4238,7.4238,7.4161,7.3661,7.3507,7.3507,7.3507,7.3507,7.3507,7.3507,7.3507,7.3507,7.3507,7.3053,7.2591,7.2591,7.2091,7.1668,7.1668,7.1668,7.1668,7.1668,7.1668,7.009,6.5205,6.338,6.0879,5.6028,5.4681,5.579,6.0132,5.6539,5.6085,6.2132,5.635,5.221,5.2234,5.045,4.8159,4.5296,4.7912,5.1473,5.5757,5.2721,5.676,6.8825,6.4848,6.6696,7.4404,7.5542,7.624,7.6481,7.7032,7.7289,7.7289,7.7289,7.7289,7.7289,7.7289,7.7289,7.7289,7.7289,7.7289,7.7289,7.7289,7.7289,7.7289,7.086,7.0821,7.0821,7.0783,7.0821,6.9744,6.6404,6.9482,7.0982,6.7596,7.086,7.2815,7.1091,7.0898,6.9552,6.625,6.8975,6.8052,6.1364,6.7205,6.9436,6.609,6.9129,7.0898,7.0898,7.0898,7.0898,7.0898,7.1713,7.0783,6.8353,6.9199,6.959,6.9744,7.2276,7.343,7.343,7.3469,7.3507,7.3507,7.3507,7.3969,7.47,7.47,7.5207,7.5976,7.5976,7.5976,7.5976,7.5976,7.5976,7.5668,7.4007,7.3507,7.3507,7.3507,7.3507,7.3507,7.3507,7.3507,7.3507,7.3507,7.3507,7.3469,7.3469,7.3469,7.3469,7.3469,7.3469,7.3469,7.3469,7.3469,7.2045,6.775,6.5166,6.2208,5.7969,5.6836,5.6678,5.7194,5.4753,5.4149,5.7035,5.5082,5.2299,4.8997,5.0743,5.195,5.1877,4.6627,4.5856,5.0729,4.3873,4.6691,6.0419,5.8132,6.3343,7.6056,7.6093,7.6533,7.7289,7.7289,7.7289,7.7289,7.7289,7.7289,7.7289,7.7289,7.7289,7.7289,7.7289,7.7289,7.7289,7.7289,7.7289,7.7289,6.4474,6.7744,7.036,6.859,7.0251,7.1629,7.1168,7.2206,7.2699,7.1629,7.2661,7.3276,7.2738,7.2661,7.2238,7.1161,6.9937,6.9276,6.943,6.9276,6.9776,7.1014,6.9853,6.9199,6.9199,6.9199,6.9199,6.9199,7.0052,7.009,6.9276,6.959,7.0629,7.2315,7.3122,7.3815,7.4315,7.4315,7.4661,7.5207,7.5207,7.5361,7.5592,7.5592,7.5745,7.6015,7.6015,7.6015,7.6015,7.6015,7.6015,7.5899,7.5361,7.5207,7.5207,7.5207,7.5207,7.5207,7.5207,7.5207,7.5207,7.5207,7.4745,7.4315,7.4315,7.3892,7.3507,7.3507,7.3507,7.3507,7.3507,7.3169,7.1309,6.646,6.7619,6.7458,6.2643,6.1956,6.1826,6.1413,5.78,5.6996,6.1215,5.9083,5.7674,5.8266,5.6915,5.4887,5.2134,5.2868,5.5868,6.1337,5.8731,6.1153,6.9376,6.5999,6.8238,7.6093,7.6665,7.7069,7.7289,7.7289,7.7289,7.7289,7.7289,7.7289,7.7289,7.7289,7.7289,7.7289,7.7289,7.7289,7.7289,7.7289,7.7289,7.7289,6.5974,6.8975,7.136,6.9783,7.1283,7.2437,7.1699,7.293,7.3507,7.2238,7.343,7.443,7.443,7.443,7.4199,7.3546,7.1545,7.1238,7.3353,7.1507,7.1276,7.3392,7.1468,7.0314,7.0314,7.0314,7.0314,7.0314,7.1161,7.1745,7.2052,7.2052,7.2899,7.443,7.443,7.47,7.52,7.52,7.5515,7.6015,7.6015,7.6015,7.6015,7.6015,7.6015,7.6015,7.6015,7.6015,7.6015,7.6015,7.6015,7.6015,7.6015,7.6015,7.6015,7.6015,7.6015,7.6015,7.6015,7.6015,7.6015,7.6015,7.5592,7.52,7.52,7.4822,7.443,7.443,7.443,7.4387,7.4121,7.3794,7.2418,6.9055,7.0678,7.125,6.8038,6.5962,6.4844,6.4956,6.0491,5.9478,6.4712,6.321,6.2316,6.3196,5.9171,5.6748,5.6969,5.6785,5.8547,6.2732,6.2365,6.5118,7.1409,6.8949,7.066,7.6555,7.7069,7.7289,7.7289,7.7289,7.7289,7.7289,7.7289,7.7289,7.7289,7.7289,7.7289,7.7289,7.7289,7.7289,7.7289,7.7289,7.7289,7.7289,7.2853,7.3161,7.343,7.3276,7.343,7.2545,6.9391,7.2276,7.3668,7.0552,7.3553,7.6015,7.6015,7.6015,7.5361,7.3815,7.3469,7.343,7.3661,7.343,7.343,7.3661,7.343,7.3315,7.3315,7.3315,7.343,7.3661,7.443,7.5207,7.6015,7.6015,7.6015,7.6015,7.6015,7.6015,7.6015,7.6053,7.6092,7.6092,7.613,7.6169,7.6169,7.6169,7.6169,7.6169,7.6169,7.6169,7.6169,7.6169,7.6169,7.6169,7.6169,7.6169,7.613,7.6015,7.6015,7.6015,7.6015,7.6015,7.6015,7.6015,7.6015,7.6015,7.6015,7.6015,7.6015,7.6015,7.6015,7.5826,7.5271,7.5091,7.4895,7.4379,7.3747,7.3216,7.2894,6.8502,6.5705,6.6819,6.2622,6.1692,6.693,6.715,6.6219,6.458,5.8841,5.84,6.5251,5.9245,5.6345,5.7985,5.8095,6.141,6.8214,6.8325,7.1358,7.7289,7.7289,7.7289,7.7289,7.7289,7.7289,7.7289,7.7289,7.7289,7.7289,7.7289,7.7289,7.7289,7.7289,7.7289,7.7289,7.7289,7.7289,7.7289,6.6237,6.993,7.2892,7.093,7.2699,7.4353,7.4207,7.5053,7.5399,7.4591,7.5361,7.6015,7.6015,7.6015,7.5822,7.5438,7.3014,7.2629,7.5245,7.2976,7.2668,7.5284,7.2899,7.1514,7.1514,7.1514,7.2783,7.5399,7.5592,7.5784,7.6015,7.6015,7.6015,7.6015,7.6015,7.6015,7.6053,7.6707,7.6984,7.7061,7.7676,7.7907,7.7907,7.7907,7.7907,7.7907,7.7907,7.7907,7.7907,7.7907,7.7907,7.7907,7.7907,7.7907,7.7676,7.6361,7.6015,7.6015,7.6015,7.6015,7.6015,7.6015,7.6015,7.6015,7.6015,7.6015,7.6015,7.6015,7.6015,7.5947,7.5818,7.5083,7.4453,7.4315,7.3404,7.1439,6.7731,6.6103,6.382,5.9869,6.2022,6.415,6.4874,6.8678,7.0146,6.7944,6.6329,6.6476,6.8825,6.7894,6.8334,7.0536,7.1211,7.2349,7.4074,7.472,7.5784,7.7289,7.7289,7.7289,7.7289,7.7289,7.7289,7.7289,7.7289,7.7289,7.7289,7.7289,7.7289,7.7289,7.7289,7.7289,7.7289,7.7289,7.7289,7.7289,6.9468,7.2091,7.4207,7.2822,7.4091,7.5438,7.5938,7.6015,7.6015,7.6015,7.6361,7.6592,7.6592,7.6899,7.7138,7.7138,7.4745,7.4014,7.5861,7.4245,7.4053,7.5938,7.4207,7.3245,7.3245,7.3245,7.413,7.6015,7.6399,7.6592,7.6592,7.6984,7.7138,7.7138,7.7138,7.7138,7.7169,7.7638,7.7869,7.7907,7.833,7.8484,7.8484,7.8484,7.8484,7.8484,7.8484,7.8484,7.8484,7.8484,7.8484,7.8484,7.8484,7.8484,7.833,7.74,7.7138,7.7138,7.7138,7.6861,7.6515,7.6092,7.6015,7.6015,7.6015,7.6015,7.6015,7.6015,7.6015,7.5826,7.531,7.471,7.4117,7.3578,7.108,6.8298,6.5655,6.338,6.1667,6.0774,6.3747,6.6549,6.8325,7.1578,7.3032,7.1747,6.9252,6.9265,7.2642,7.0807,7.1431,7.5322,7.6225,7.6628,7.6628,7.7069,7.7289,7.7289,7.7289,7.7289,7.7289,7.7289,7.7289,7.7289,7.7289,7.7289,7.7289,7.7289,7.7289,7.7289,7.7289,7.7289,7.7289,7.7289,7.7289,7.7289,7.6015,7.6015,7.6053,7.6169,7.6207,7.6245,7.6361,7.6361,7.6361,7.6361,7.7015,7.7484,7.7484,7.8099,7.8484,7.8484,7.7215,7.6361,7.6361,7.6361,7.6361,7.6361,7.6361,7.6361,7.6361,7.6361,7.6361,7.6361,7.7138,7.7484,7.7484,7.8176,7.8484,7.8484,7.8484,7.8484,7.8523,7.8638,7.8715,7.8715,7.883,7.8907,7.8907,7.8907,7.8907,7.8907,7.8907,7.8907,7.8907,7.8907,7.8907,7.8907,7.8907,7.8907,7.8907,7.8907,7.8907,7.883,7.8561,7.7984,7.7292,7.6553,7.6361,7.6361,7.6361,7.6361,7.6346,7.6279,7.6225,7.5909,7.4863,7.4593,7.4005,7.236,6.8452,6.5448,6.4811,6.1704,6.1006,6.5191,6.6916,6.9376,7.3487,7.4515,7.494,7.505,7.066,7.0403,7.5983,7.1762,7.1321,7.613,7.6922,7.7289,7.7289,7.7289,7.7289,7.7289,7.7289,7.7289,7.7289,7.7289,7.7289,7.7289,7.7289,7.7289,7.7289,7.7289,7.7289,7.7289,7.7289,7.7289,7.7289,7.7289,7.7289,7.7289,7.6015,7.6015,7.6245,7.6984,7.7099,7.733,7.8023,7.8099,7.8099,7.8099,7.8215,7.8292,7.8292,7.8446,7.8484,7.8484,7.8253,7.8099,7.8099,7.8099,7.8099,7.8099,7.8099,7.8099,7.8099,7.8099,7.8099,7.8099,7.8253,7.8292,7.833,7.8446,7.8484,7.8484,7.8484,7.8484,7.8561,7.9285,7.9592,7.9669,8.04,8.0708,8.0708,8.0708,8.0708,8.0708,8.0708,8.0708,8.0708,8.0708,8.0708,8.0708,8.0708,8.0708,8.0708,8.0708,8.0708,8.0362,7.8907,7.8407,7.8292,7.8138,7.8099,7.8099,7.8099,7.8099,7.7954,7.7447,7.7357,7.7141,7.6446,7.5904,7.4399,7.0809,6.8587,6.6122,6.2658,6.4506,6.6489,6.726,7.1027,7.3876,7.4647,7.483,7.516,7.5873,7.5102,7.5359,7.7032,7.6298,7.6225,7.7105,7.7252,7.7289,7.7289,7.7289,7.7289,7.7289,7.7289,7.7289,7.7289,7.7289,7.7289,7.7289,7.7289,7.7289,7.7289,7.7289,7.7289,7.7289,7.7289,7.7289,7.7289,7.7289,7.7289,7.7289,7.7253,7.7361,7.7484,7.7869,7.7946,7.8061,7.8446,7.8484,7.8484,7.8484,7.8907,7.9208,7.9208,7.9631,7.99,7.99,7.99,7.99,7.99,7.9023,7.8484,7.8484,7.8484,7.8484,7.8484,7.8484,7.8484,7.8484,7.8977,7.9208,7.9208,7.9669,7.99,7.99,7.99,7.99,7.9939,8.0323,8.0516,8.0554,8.0939,8.1093,8.1093,8.1093,8.1093,8.1093,8.1093,8.1093,8.1093,8.1093,8.1093,8.1093,8.1093,8.1093,8.1093,8.1093,8.1093,8.0823,7.9554,7.9208,7.9092,7.8638,7.8484,7.8484,7.8484,7.8267,7.7947,7.7674,7.7356,7.6933,7.6315,7.5993,7.5073,7.2883,6.9828,6.704,6.5167,6.6526,6.77,6.77,7.2349,7.5542,7.5542,7.5931,7.6335,7.6702,7.6738,7.6922,7.7289,7.7289,7.7289,7.7289,7.7289,7.7289,7.7289,7.7289,7.7289,7.7289,7.7289,7.7289,7.7289,7.7289,7.7289,7.7289,7.7289,7.7289,7.7289,7.7289,7.7289,7.7289,7.7289,7.7289,7.7289,7.7289,7.7289,7.7289,7.8369,7.8484,7.8561,7.8754,7.8792,7.8869,7.9061,7.91,7.91,7.91,7.9708,8.0085,8.0085,8.0708,8.1093,8.1093,8.1093,8.1093,8.1093,7.9862,7.91,7.91,7.91,7.91,7.91,7.91,7.91,7.91,7.9785,8.0085,8.0123,8.0785,8.1093,8.1093,8.1093,8.1093,8.1093,8.1093,8.1093,8.1093,8.1093,8.1093,8.1093,8.1093,8.1093,8.1093,8.1093,8.1093,8.1093,8.1093,8.1093,8.1093,8.1093,8.1093,8.1093,8.1093,8.1093,8.0939,8.0285,8.0085,7.9939,7.9254,7.91,7.9069,7.8891,7.8521,7.8094,7.7835,7.7379,7.6891,7.6263,7.6165,7.569,7.4309,7.0807,6.8325,6.8508,6.8398,6.8692,6.9779,7.3744,7.6387,7.6387,7.6922,7.7289,7.7289,7.7289,7.7289,7.7289,7.7289,7.7289,7.7289,7.7289,7.7289,7.7289,7.7289,7.7289,7.7289,7.7289,7.7289,7.7289,7.7289,7.7289,7.7289,7.7289,7.7289,7.7289,7.7289,7.7289,7.7289,7.7289,7.7289,7.7289,7.7289,7.7289,7.7289,7.8484,7.8484,7.8754,7.9554,7.97,7.9977,8.0785,8.09,8.09,8.09,8.0977,8.1016,8.1016,8.1054,8.1093,8.1093,8.1093,8.1093,8.1093,8.0977,8.09,8.09,8.09,8.09,8.09,8.09,8.09,8.09,8.0977,8.1016,8.1016,8.1054,8.1093,8.1093,8.1093,8.1093,8.1093,8.1093,8.1093,8.1093,8.1093,8.1093,8.1093,8.1093,8.1093,8.1093,8.1093,8.1093,8.1093,8.1093,8.1093,8.1093,8.1093,8.1093,8.1093,8.1093,8.1093,8.1093,8.1016,8.1016,8.0977,8.0939,8.09,8.0759,8.0124,7.9953,7.9606,7.8503,7.8229,7.796,7.7296,7.7182,7.5954,7.2202,7.066,7.0183,7.094,7.0403,7.1578,7.6078,7.6959,7.7215,7.7215,7.7289,7.7289,7.7289,7.7289,7.7289,7.7289,7.7289,7.7289,7.7289,7.7289,7.7289,7.7289,7.7289,7.7289,7.7289,7.7289,7.7289,7.7289,7.7289,7.7289,7.7289,7.7289,7.7289,7.7289,7.7289,7.7289,7.7289,7.7289,7.7289,7.7289,7.7289,7.7289,7.7289,8.0015,8.0092,8.0208,8.0554,8.0592,8.0708,8.1054,8.1093,8.1093,8.1093,8.1093,8.1093,8.1093,8.1093,8.1093,8.1093,8.1093,8.1093,8.1093,8.1093,8.1093,8.1093,8.1093,8.1093,8.1093,8.1093,8.1093,8.1093,8.1093,8.1093,8.1093,8.1093,8.1093,8.1093,8.1093,8.1093,8.1093,8.1093,8.1093,8.1093,8.1093,8.1093,8.1093,8.1093,8.1093,8.1093,8.1093,8.1093,8.1093,8.1093,8.1093,8.1093,8.1093,8.1093,8.1093,8.1093,8.1093,8.1093,8.1093,8.1093,8.1093,8.1093,8.1093,8.1015,8.0767,8.0379,7.9868,7.9022,7.8575,7.8114,7.7441,7.7289,7.6812,7.527,7.4757,7.4683,7.4977,7.4757,7.5234,7.7069,7.7289,7.7289,7.7289,7.7289,7.7289,7.7289,7.7289,7.7289,7.7289,7.7289,7.7289,7.7289,7.7289,7.7289,7.7289,7.7289,7.7289,7.7289,7.7289,7.7289,7.7289,7.7289,7.7289,7.7289,7.7289,7.7289,7.7289,7.7289,7.7289,7.7289,7.7289,7.7289,7.7289,7.7289,7.7289,7.7289,8.0977,8.1093,8.1093,8.1093,8.1093,8.1093,8.1093,8.1093,8.1093,8.1093,8.1093,8.1093,8.1093,8.1093,8.1093,8.1093,8.1093,8.1093,8.1093,8.1093,8.1093,8.1093,8.1093,8.1093,8.1093,8.1093,8.1093,8.1093,8.1093,8.1093,8.1093,8.1093,8.1093,8.1093,8.1093,8.1093,8.1093,8.1093,8.1093,8.1093,8.1093,8.1093,8.1093,8.1093,8.1093,8.1093,8.1093,8.1093,8.1093,8.1093,8.1093,8.1093,8.1093,8.1093,8.1093,8.1093,8.1093,8.1093,8.1093,8.1093,8.1093,8.1093,8.1093,8.0983,8.0591,8.0134,7.9578,7.8766,7.8272,7.7869,7.7396,7.7289,7.7289,7.7289,7.7289,7.7289,7.7289,7.7289,7.7289,7.7289,7.7289,7.7289,7.7289,7.7289,7.7289,7.7289,7.7289,7.7289,7.7289,7.7289,7.7289,7.7289,7.7289,7.7289,7.7289,7.7289,7.7289,7.7289,7.7289,7.7289,7.7289,7.7289,7.7289,7.7289,7.7289,7.7289,7.7289,7.7289,7.7289,7.7289,7.7289,7.7289,7.7289,7.7289,7.7289,7.7289,8.1093,8.1093,8.1093,8.1093,8.1093,8.1093,8.1093,8.1093,8.1093,8.1093,8.1093,8.1093,8.1093,8.1093,8.1093,8.1093,8.1093,8.1093,8.1093,8.1093,8.1093,8.1093,8.1093,8.1093,8.1093,8.1093,8.1093,8.1093,8.1093,8.1093,8.1093,8.1093,8.1093,8.1093,8.1093,8.1093,8.1093,8.1093,8.1093,8.1093,8.1093,8.1093,8.1093,8.1093,8.1093,8.1093,8.1093,8.1093,8.1093,8.1093,8.1093,8.1093,8.1093,8.1093,8.1093,8.1093,8.1093,8.1093,8.1093,8.1093,8.1093,8.1093,8.1093,8.075,7.948,7.921,7.884,7.7548,7.7289,7.7326,7.7289,7.7289,7.7289,7.7289,7.7289,7.7289,7.7289,7.7289,7.7289,7.7289,7.7289,7.7289,7.7289,7.7289,7.7289,7.7289,7.7289,7.7289,7.7289,7.7289,7.7289,7.7289,7.7289,7.7289,7.7289,7.7289,7.7289,7.7289,7.7289,7.7289,7.7289,7.7289,7.7289,7.7289,7.7289,7.7289,7.7289,7.7289,7.7289,7.7289,7.7289,7.7289,7.7289,7.7289,7.7289,7.7289,8.1093,8.1093,8.1093,8.1093,8.1093,8.1093,8.1093,8.1093,8.1093,8.1093,8.1093,8.1093,8.1093,8.1093,8.1093,8.1093,8.1093,8.1093,8.1093,8.1093,8.1093,8.1093,8.1093,8.1093,8.1093,8.1093,8.1093,8.1093,8.1093,8.1093,8.1093,8.1093,8.1093,8.1093,8.1093,8.1093,8.1093,8.1093,8.1093,8.1093,8.1093,8.1093,8.1093,8.1093,8.1093,8.1093,8.1093,8.1093,8.1093,8.1093,8.1093,8.1093,8.1093,8.1093,8.1093,8.1093,8.1093,8.1093,8.1093,8.1093,8.1093,8.1093,8.0741,8.0306,7.9919,7.9502,7.8974,7.8173,7.8016,7.7846,7.7396,7.7289,7.7289,7.7289,7.7289,7.7289,7.7289,7.7289,7.7289,7.7289,7.7289,7.7289,7.7289,7.7289,7.7289,7.7289,7.7289,7.7289,7.7289,7.7289,7.7289,7.7289,7.7289,7.7289,7.7289,7.7289,7.7289,7.7289,7.7289,7.7289,7.7289,7.7289,7.7289,7.7289,7.7289,7.7289,7.7289,7.7289,7.7289,7.7289,7.7289,7.7289,7.7289,7.7289,7.7289,7.7289,8.1093,8.1093,8.1093,8.1093,8.1093,8.1093,8.1093,8.1093,8.1093,8.1093,8.1093,8.1093,8.1093,8.1093,8.1093,8.1093,8.1093,8.1093,8.1093,8.1093,8.1093,8.1093,8.1093,8.1093,8.1093,8.1093,8.1093,8.1093,8.1093,8.1093,8.1093,8.1093,8.1093,8.1093,8.1093,8.1093,8.1093,8.1093,8.1093,8.1093,8.1093,8.1093,8.1093,8.1093,8.1093,8.1093,8.1093,8.1093,8.1093,8.1093,8.1093,8.1093,8.1093,8.1093,8.1093,8.1093,8.0896,8.0716,8.0716,8.0546,8.0362,8.0362,8.0201,7.9969,7.9491,7.9093,7.8666,7.8021,7.7903,7.7797,7.7381,7.7289,7.7289,7.7289,7.7289,7.7289,7.7289,7.7289,7.7289,7.7289,7.7289,7.7289,7.7289,7.7289,7.7289,7.7289,7.7289,7.7289,7.7289,7.7289,7.7289,7.7289,7.7289,7.7289,7.7289,7.7289,7.7289,7.7289,7.7289,7.7289,7.7289,7.7289,7.7289,7.7289,7.7289,7.7289,7.7289,7.7289,7.7289,7.7289,7.7289,7.7289,7.7289,7.7289,7.7289,7.7289,8.1093,8.1093,8.1093,8.1093,8.1093,8.1093,8.1093,8.1093,8.1093,8.1093,8.1093,8.1093,8.1093,8.1093,8.1093,8.1093,8.1093,8.1093,8.1093,8.1093,8.1093,8.1093,8.1093,8.1093,8.1093,8.1093,8.1093,8.1093,8.1093,8.1093,8.1093,8.1093,8.1093,8.1093,8.1093,8.1093,8.1093,8.1093,8.1093,8.1093,8.1093,8.1093,8.1093,8.1093,8.1093,8.1093,8.1093,8.1093,8.1093,8.1093,8.1093,8.1093,8.1093,8.1093,8.1085,8.1045,8.0591,8.0105,8.0018,7.961,7.9187,7.9128,7.9524,7.9632,7.8562,7.8255,7.8044,7.7441,7.7289,7.7289,7.7289,7.7289,7.7289,7.7289,7.7289,7.7289,7.7289,7.7289,7.7289,7.7289,7.7289,7.7289,7.7289,7.7289,7.7289,7.7289,7.7289,7.7289,7.7289,7.7289,7.7289,7.7289,7.7289,7.7289,7.7289,7.7289,7.7289,7.7289,7.7289,7.7289,7.7289,7.7289,7.7289,7.7289,7.7289,7.7289,7.7289,7.7289,7.7289,7.7289,7.7289,7.7289,7.7289,7.7289,7.7289,7.7289,8.1093,8.1093,8.1093,8.1093,8.1093,8.1093,8.1093,8.1093,8.1093,8.1093,8.1093,8.1093,8.1093,8.1093,8.1093,8.1093,8.1093,8.1093,8.1093,8.1093,8.1093,8.1093,8.1093,8.1093,8.1093,8.1093,8.1093,8.1093,8.1093,8.1093,8.1093,8.1093,8.1093,8.1093,8.1093,8.1093,8.1093,8.1093,8.1093,8.1093,8.1093,8.1093,8.1093,8.1093,8.1093,8.1093,8.1093,8.1093,8.1093,8.1093,8.1093,8.1093,8.1093,8.1093,8.0991,8.0472,8.0201,7.9989,7.9524,7.9301,7.9081,7.8602,7.8576,7.8602,7.8376,7.7889,7.7465,7.732,7.7289,7.7289,7.7289,7.7289,7.7289,7.7289,7.7289,7.7289,7.7289,7.7289,7.7289,7.7289,7.7289,7.7289,7.7289,7.7289,7.7289,7.7289,7.7289,7.7289,7.7289,7.7289,7.7289,7.7289,7.7289,7.7289,7.7289,7.7289,7.7289,7.7289,7.7289,7.7289,7.7289,7.7289,7.7289,7.7289,7.7289,7.7289,7.7289,7.7289,7.7289,7.7289,7.7289,7.7289,7.7289,7.7289,7.7289,7.7289,8.1093,8.1093,8.1093,8.1093,8.1093,8.1093,8.1093,8.1093,8.1093,8.1093,8.1093,8.1093,8.1093,8.1093,8.1093,8.1093,8.1093,8.1093,8.1093,8.1093,8.1093,8.1093,8.1093,8.1093,8.1093,8.1093,8.1093,8.1093,8.1093,8.1093,8.1093,8.1093,8.1093,8.1093,8.1093,8.1093,8.1093,8.1093,8.1093,8.1093,8.1093,8.1093,8.1093,8.1093,8.1093,8.1093,8.1093,8.1093,8.1093,8.1093,8.1093,8.1093,8.1093,8.0871,8.0535,8.0192,7.9674,7.9163,7.8866,7.8538,7.8218,7.7903,7.7803,7.7803,7.7803,7.7555,7.7289,7.7289,7.7289,7.7289,7.7289,7.7289,7.7289,7.7289,7.7289,7.7289,7.7289,7.7289,7.7289,7.7289,7.7289,7.7289,7.7289,7.7289,7.7289,7.7289,7.7289,7.7289,7.7289,7.7289,7.7289,7.7289,7.7289,7.7289,7.7289,7.7289,7.7289,7.7289,7.7289,7.7289,7.7289,7.7289,7.7289,7.7289,7.7289,7.7289,7.7289,7.7289,7.7289,7.7289,7.7289,7.7289,7.7289,7.7289,7.7289,7.7289,8.1093,8.1093,8.1093,8.1093,8.1093,8.1093,8.1093,8.1093,8.1093,8.1093,8.1093,8.1093,8.1093,8.1093,8.1093,8.1093,8.1093,8.1093,8.1093,8.1093,8.1093,8.1093,8.1093,8.1093,8.1093,8.1093,8.1093,8.1093,8.1093,8.1093,8.1093,8.1093,8.1093,8.1093,8.1093,8.1093,8.1093,8.1093,8.1093,8.1093,8.1093,8.1093,8.1093,8.1093,8.1093,8.1093,8.1093,8.1093,8.1093,8.1093,8.1007,8.0943,8.0943,8.0472,7.9929,7.9837,7.9069,7.8282,7.8146,7.7724,7.7289,7.7289,7.7289,7.7289,7.7289,7.7289,7.7289,7.7289,7.7289,7.7289,7.7289,7.7289,7.7289,7.7289,7.7289,7.7289,7.7289,7.7289,7.7289,7.7289,7.7289,7.7289,7.7289,7.7289,7.7289,7.7289,7.7289,7.7289,7.7289,7.7289,7.7289,7.7289,7.7289,7.7289,7.7289,7.7289,7.7289,7.7289,7.7289,7.7289,7.7289,7.7289,7.7289,7.7289,7.7289,7.7289,7.7289,7.7289,7.7289,7.7289,7.7289,7.7289,7.7289,7.7289,7.7289,7.7289,8.1093,8.1093,8.1093,8.1093,8.1093,8.1093,8.1093,8.1093,8.1093,8.1093,8.1093,8.1093,8.1093,8.1093,8.1093,8.1093,8.1093,8.1093,8.1093,8.1093,8.1093,8.1093,8.1093,8.1093,8.1093,8.1093,8.1093,8.1093,8.1093,8.1093,8.1093,8.1093,8.1093,8.1093,8.1093,8.1093,8.1093,8.1093,8.1093,8.1093,8.1093,8.1093,8.1093,8.1093,8.1093,8.1093,8.1093,8.1093,8.1093,8.1093,8.0724,8.0259,8.0259,7.9827,7.9221,7.8691,7.8418,7.8159,7.7599,7.7365,7.7289,7.7289,7.7289,7.7289,7.7289,7.7289,7.7289,7.7289,7.7289,7.7289,7.7289,7.7289,7.7289,7.7289,7.7289,7.7289,7.7289,7.7289,7.7289,7.7289,7.7289,7.7289,7.7289,7.7289,7.7289,7.7289,7.7289,7.7289,7.7289,7.7289,7.7289,7.7289,7.7289,7.7289,7.7289,7.7289,7.7289,7.7289,7.7289,7.7289,7.7289,7.7289,7.7289,7.7289,7.7289,7.7289,7.7289,7.7289,7.7289,7.7289,7.7289,7.7289,7.7289,7.7289,7.7289,7.7289,8.1093,8.1093,8.1093,8.1093,8.1093,8.1093,8.1093,8.1093,8.1093,8.1093,8.1093,8.1093,8.1093,8.1093,8.1093,8.1093,8.1093,8.1093,8.1093,8.1093,8.1093,8.1093,8.1093,8.1093,8.1093,8.1093,8.1093,8.1093,8.1093,8.1093,8.1093,8.1093,8.1093,8.1093,8.1093,8.1093,8.1093,8.1093,8.1093,8.1093,8.1093,8.1093,8.1093,8.1093,8.1093,8.1093,8.1093,8.1093,8.1093,8.1093,8.0888,8.0643,8.0643,8.024,7.9578,7.8962,7.8538,7.8146,7.7465,7.7289,7.7289,7.7289,7.7289,7.7289,7.7289,7.7289,7.7289,7.7289,7.7289,7.7289,7.7289,7.7289,7.7289,7.7289,7.7289,7.7289,7.7289,7.7289,7.7289,7.7289,7.7289,7.7289,7.7289,7.7289,7.7289,7.7289,7.7289,7.7289,7.7289,7.7289,7.7289,7.7289,7.7289,7.7289,7.7289,7.7289,7.7289,7.7289,7.7289,7.7289,7.7289,7.7289,7.7289,7.7289,7.7289,7.7289,7.7289,7.7289,7.7289,7.7289,7.7289,7.7289,7.7289,7.7289,7.7289,7.7289]}]]